[[{"header":{"parameterUnit":"m.s-1","parameterCategory":1,"la1":30.6,"la2":28.766,"lo1":-90.7593,"lo2":-88.6598,"dy":0.0162,"dx":0.0183,"nx":116,"ny":114,"refTime":"2023-06-28T12:00:00:Z","depth":0,"parameterNumber":2,"parameterNumberName":"U-component_of_WINDS"},"data":[0.0,0.0,0.0,0.0,0.0,0.0,0.0,0.0,0.0,0.0,0.0,0.0,0.0,0.0,0.0,0.0,0.0,0.0,0.0,0.0,0.0,0.0,0.0,0.0,0.0,0.0,0.0,0.0,0.0,0.0,0.0,0.0,0.0,0.0,0.0,0.0,0.0,0.0,0.0,0.0,0.0,0.0,0.0,0.0,0.0,0.0,0.0,0.0,0.0,0.0,0.0,0.0,0.0,0.0,0.0,0.0,0.0,0.0,0.0,0.0,0.0,0.0,0.0,0.0,0.0,0.0,0.0,0.0,0.0,0.0,0.0,0.0,0.0,0.0,0.0,0.0,0.0,0.0,0.0,0.0,0.0,0.0,0.0,0.0,0.0,0.0,0.0,0.0,0.0,0.0,0.0,0.0,0.0,0.0,0.0,0.0,0.0,0.0,0.0,0.0,0.0,0.0,0.0,0.0,0.0,0.0,0.0,0.0,0.0,0.0,0.0,0.0,0.0,0.0,0.0,0.0,0.0,0.0,0.0,0.0,0.0,0.0,0.0,0.0,0.0,0.0,0.0,0.0,0.0,0.0,0.0,0.0,0.0,0.0,0.0,0.0,0.0,0.0,0.0,0.0,0.0,0.0,0.0,0.0,0.0,0.0,0.0,0.0,0.0,0.0,0.0,0.0,0.0,0.0,0.0,0.0,0.0,0.0,0.0,0.0,0.0,0.0,0.0,0.0,0.0,0.0,0.0,0.0,0.0,0.0,0.0,0.0,0.0,0.0,0.0,0.0,0.0,0.0,0.0,0.0,0.0,0.0,0.0,0.0,0.0,0.0,0.0,0.0,0.0,0.0,0.0,0.0,0.0,0.0,0.0,0.0,0.0,0.0,0.0,0.0,0.0,0.0,0.0,0.0,0.0,0.0,0.0,0.0,0.0,0.0,0.0,0.0,0.0,0.0,0.0,0.0,0.0,0.0,0.0,0.0,0.0,0.0,0.0,0.0,0.0,0.0,0.0,0.0,0.0,0.0,0.0,0.0,0.0,0.0,0.0,0.0,0.0,0.0,0.0,0.0,0.0,0.0,0.0,0.0,0.0,0.0,0.0,0.0,0.0,0.0,0.0,0.0,0.0,0.0,0.0,0.0,0.0,0.0,0.0,0.0,0.0,0.0,0.0,0.0,0.0,0.0,0.0,0.0,0.0,0.0,0.0,0.0,0.0,0.0,0.0,0.0,0.0,0.0,0.0,0.0,0.0,0.0,0.0,0.0,0.0,0.0,0.0,0.0,0.0,0.0,0.0,0.0,0.0,0.0,0.0,0.0,0.0,0.0,0.0,0.0,0.0,0.0,0.0,0.0,0.0,0.0,0.0,0.0,0.0,0.0,0.0,0.0,0.0,0.0,0.0,0.0,0.0,0.0,0.0,0.0,0.0,0.0,0.0,0.0,0.0,0.0,0.0,0.0,0.0,0.0,0.0,0.0,0.0,0.0,0.0,0.0,0.0,0.0,0.0,0.0,0.0,0.0,0.0,0.0,0.0,0.0,0.0,0.0,0.0,0.0,0.0,0.0,0.0,0.0,0.0,0.0,0.0,0.0,0.0,0.0,0.0,0.0,0.0,0.0,0.0,0.0,0.0,0.0,0.0,0.0,0.0,0.0,0.0,0.0,0.0,0.0,0.0,0.0,0.0,0.0,0.0,0.0,0.0,0.0,0.0,0.0,0.0,0.0,0.0,0.0,0.0,0.0,0.0,0.0,0.0,0.0,0.0,0.0,0.0,0.0,0.0,0.0,0.0,0.0,0.0,0.0,0.0,0.0,0.0,0.0,0.0,0.0,0.0,0.0,0.0,0.0,0.0,0.0,0.0,0.0,0.0,0.0,0.0,0.0,0.0,0.0,0.0,0.0,0.0,0.0,0.0,0.0,0.0,0.0,0.0,0.0,0.0,0.0,0.0,0.0,0.0,0.0,0.0,0.0,0.0,0.0,0.0,0.0,0.0,0.0,0.0,0.0,0.0,0.0,0.0,0.0,0.0,0.0,0.0,0.0,0.0,0.0,0.0,0.0,0.0,0.0,0.0,0.0,0.0,0.0,0.0,0.0,0.0,0.0,0.0,0.0,0.0,0.0,0.0,0.0,0.0,0.0,0.0,0.0,0.0,0.0,0.0,0.0,0.0,0.0,0.0,0.0,0.0,0.0,0.0,0.0,0.0,0.0,0.0,0.0,0.0,0.0,0.0,0.0,0.0,0.0,0.0,0.0,0.0,0.0,0.0,0.0,0.0,0.0,0.0,0.0,0.0,0.0,0.0,0.0,0.0,0.0,0.0,0.0,0.0,0.0,0.0,0.0,0.0,0.0,0.0,0.0,0.0,0.0,0.0,0.0,0.0,0.0,0.0,0.0,0.0,0.0,0.0,0.0,0.0,0.0,0.0,0.0,0.0,0.0,0.0,0.0,0.0,0.0,0.0,0.0,0.0,0.0,0.0,0.0,0.0,0.0,0.0,0.0,0.0,0.0,0.0,0.0,0.0,0.0,0.0,0.0,0.0,0.0,0.0,0.0,0.0,0.0,0.0,0.0,0.0,0.0,0.0,0.0,0.0,0.0,0.0,0.0,0.0,0.0,0.0,0.0,0.0,0.0,0.0,0.0,0.0,0.0,0.0,0.0,0.0,0.0,0.0,0.0,0.0,0.0,0.0,0.0,0.0,0.0,0.0,0.0,0.0,0.0,0.0,0.0,0.0,0.0,0.0,0.0,0.0,0.0,0.0,0.0,0.0,0.0,0.0,0.0,0.0,0.0,0.0,0.0,0.0,0.0,0.0,0.0,0.0,0.0,0.0,0.0,0.0,0.0,0.0,0.0,0.0,0.0,0.0,0.0,0.0,0.0,0.0,0.0,0.0,0.0,0.0,0.0,0.0,0.0,0.0,0.0,0.0,0.0,0.0,0.0,0.0,0.0,0.0,0.0,0.0,0.0,0.0,0.0,0.0,0.0,0.0,0.0,0.0,0.0,0.0,0.0,0.0,0.0,0.0,0.0,0.0,0.0,0.0,0.0,0.0,0.0,0.0,0.0,0.0,0.0,0.0,0.0,0.0,0.0,0.0,0.0,0.0,0.0,0.0,0.0,0.0,0.0,0.0,0.0,0.0,0.0,0.0,0.0,0.0,0.0,0.0,0.0,0.0,0.0,0.0,0.0,0.0,0.0,0.0,0.0,0.0,0.0,0.0,0.0,0.0,0.0,0.0,0.0,0.0,0.0,0.0,0.0,0.0,0.0,0.0,0.0,0.0,0.0,0.0,0.0,0.0,0.0,0.0,0.0,0.0,0.0,0.0,0.0,0.0,0.0,0.0,0.0,0.0,0.0,0.0,0.0,0.0,0.0,0.0,0.0,0.0,0.0,0.0,0.0,0.0,0.0,0.0,0.0,0.0,0.0,0.0,0.0,0.0,0.0,0.0,0.0,0.0,0.0,0.0,0.0,0.0,0.0,0.0,0.0,0.0,0.0,0.0,0.0,0.0,0.0,0.0,0.0,0.0,0.0,0.0,0.0,0.0,0.0,0.0,0.0,0.0,0.0,0.0,0.0,0.0,0.0,0.0,0.0,0.0,0.0,0.0,0.0,0.0,0.0,0.0,0.0,0.0,0.0,0.0,0.0,0.0,0.0,0.0,0.0,0.0,0.0,0.0,0.0,0.0,0.0,0.0,0.0,0.0,0.0,0.0,0.0,0.0,0.0,0.0,0.0,0.0,0.0,0.0,0.0,0.0,0.0,0.0,0.0,0.0,0.0,0.0,0.0,0.0,0.0,0.0,0.0,0.0,0.0,0.0,0.0,0.0,0.0,0.0,0.0,0.0,0.0,0.0,0.0,0.0,0.0,0.0,0.0,0.0,0.0,0.0,0.0,0.0,0.0,0.0,0.0,0.0,0.0,0.0,0.0,0.0,0.0,0.0,0.0,0.0,0.0,0.0,0.0,0.0,0.0,0.0,0.0,0.0,0.0,0.0,0.0,0.0,0.0,0.0,0.0,0.0,0.0,0.0,0.0,0.0,0.0,0.0,0.0,0.0,0.0,0.0,0.0,0.0,0.0,0.0,0.0,0.0,0.0,0.0,0.0,0.0,0.0,0.0,0.0,0.0,0.0,0.0,0.0,0.0,0.0,0.0,0.0,0.0,0.0,0.0,0.0,0.0,0.0,0.0,0.0,0.0,0.0,0.0,0.0,0.0,0.0,0.0,0.0,0.0,0.0,0.0,0.0,0.0,0.0,0.0,0.0,0.0,0.0,0.0,0.0,0.0,0.0,0.0,0.0,0.0,0.0,0.0,0.0,0.0,0.0,0.0,0.0,0.0,0.0,0.0,0.0,0.0,0.0,0.0,0.0,0.0,0.0,0.0,0.0,0.0,0.0,0.0,0.0,0.0,0.0,0.0,0.0,0.0,0.0,0.0,0.0,0.0,0.0,0.0,0.0,0.0,0.0,0.0,0.0,0.0,0.0,0.0,0.0,0.0,0.0,0.0,0.0,0.0,0.0,0.0,0.0,0.0,0.0,0.0,0.0,0.0,0.0,0.0,0.0,0.0,0.0,0.0,0.0,0.0,0.0,0.0,0.0,0.0,0.0,0.0,0.0,0.0,0.0,0.0,0.0,0.0,0.0,0.0,0.0,0.0,0.0,0.0,0.0,0.0,0.0,0.0,0.0,0.0,0.0,0.0,0.0,0.0,0.0,0.0,0.0,0.0,0.0,0.0,0.0,0.0,0.0,0.0,0.0,0.0,0.0,0.0,0.0,0.0,0.0,0.0,0.0,0.0,0.0,0.0,0.0,0.0,0.0,0.0,0.0,0.0,0.0,0.0,0.0,0.0,0.0,0.0,0.0,0.0,0.0,0.0,0.0,0.0,0.0,0.0,0.0,0.0,0.0,0.0,0.0,0.0,0.0,0.0,0.0,0.0,0.0,0.0,0.0,0.0,0.0,0.0,0.0,0.0,0.0,0.0,0.0,0.0,0.0,0.0,0.0,0.0,0.0,0.0,0.0,0.0,0.0,0.0,0.0,0.0,0.0,0.0,0.0,0.0,0.0,0.0,0.0,0.0,0.0,0.0,0.0,0.0,0.0,0.0,0.0,0.0,0.0,0.0,0.0,0.0,0.0,0.0,0.0,0.0,0.0,0.0,0.0,0.0,0.0,0.0,0.0,0.0,0.0,0.0,0.0,0.0,0.0,0.0,0.0,0.0,0.0,0.0,0.0,0.0,0.0,0.0,0.0,0.0,0.0,0.0,0.0,0.0,0.0,0.0,0.0,0.0,0.0,0.0,0.0,0.0,0.0,0.0,0.0,0.0,0.0,0.0,0.0,0.0,0.0,0.0,0.0,0.0,0.0,0.0,0.0,0.0,0.0,0.0,0.0,0.0,0.0,0.0,0.0,0.0,0.0,0.0,0.0,0.0,0.0,0.0,0.0,0.0,0.0,0.0,0.0,0.0,0.0,0.0,0.0,0.0,0.0,0.0,0.0,0.0,0.0,0.0,0.0,0.0,0.0,0.0,0.0,0.0,0.0,0.0,0.0,0.0,0.0,0.0,0.0,0.0,0.0,0.0,0.0,0.0,0.0,0.0,0.0,0.0,0.0,0.0,0.0,0.0,0.0,0.0,0.0,0.0,0.0,0.0,0.0,0.0,0.0,0.0,0.0,0.0,0.0,0.0,0.0,0.0,0.0,0.0,0.0,0.0,0.0,0.0,0.0,0.0,0.0,0.0,0.0,0.0,0.0,0.0,0.0,0.0,0.0,0.0,0.0,0.0,0.0,0.0,0.0,0.0,0.0,0.0,0.0,0.0,0.0,0.0,0.0,0.0,0.0,0.0,0.0,0.0,0.0,0.0,0.0,0.0,0.0,0.0,0.0,0.0,0.0,0.0,0.0,0.0,0.0,0.0,0.0,0.0,0.0,0.0,0.0,0.0,0.0,0.0,0.0,0.0,0.0,0.0,0.0,0.0,0.0,0.0,0.0,0.0,0.0,0.0,0.0,0.0,0.0,0.0,0.0,0.0,0.0,0.0,0.0,0.0,0.0,0.0,0.0,0.0,0.0,0.0,0.0,0.0,0.0,0.0,0.0,-2.369,0.0,0.0,0.0,0.0,0.0,0.0,0.0,0.0,0.0,0.0,0.0,0.0,0.0,0.0,0.0,0.0,0.0,0.0,0.0,0.0,0.0,0.0,0.0,0.0,0.0,0.0,0.0,0.0,0.0,0.0,0.0,0.0,0.0,0.0,0.0,0.0,0.0,0.0,0.0,0.0,0.0,0.0,0.0,0.0,0.0,0.0,0.0,0.0,0.0,0.0,0.0,0.0,0.0,0.0,0.0,0.0,0.0,0.0,0.0,0.0,0.0,0.0,0.0,0.0,0.0,0.0,0.0,0.0,0.0,0.0,0.0,0.0,0.0,0.0,0.0,0.0,0.0,0.0,0.0,0.0,0.0,0.0,0.0,0.0,0.0,0.0,0.0,0.0,0.0,0.0,0.0,0.0,0.0,0.0,0.0,0.0,0.0,0.0,0.0,0.0,0.0,0.0,0.0,0.0,0.0,0.0,0.0,0.0,0.0,0.0,0.0,0.0,0.0,0.0,0.0,0.0,-2.3876,0.0,0.0,0.0,0.0,0.0,0.0,0.0,0.0,0.0,0.0,0.0,0.0,0.0,0.0,0.0,0.0,0.0,0.0,0.0,0.0,0.0,0.0,0.0,0.0,0.0,0.0,0.0,0.0,0.0,0.0,0.0,0.0,0.0,0.0,0.0,0.0,0.0,0.0,0.0,0.0,0.0,0.0,0.0,0.0,0.0,0.0,0.0,0.0,0.0,0.0,0.0,0.0,0.0,0.0,0.0,0.0,0.0,0.0,0.0,0.0,0.0,0.0,0.0,0.0,0.0,0.0,0.0,0.0,0.0,0.0,0.0,0.0,0.0,0.0,0.0,0.0,0.0,0.0,0.0,0.0,0.0,0.0,0.0,0.0,0.0,0.0,0.0,0.0,0.0,0.0,0.0,0.0,0.0,0.0,0.0,0.0,0.0,0.0,0.0,0.0,0.0,0.0,0.0,0.0,0.0,0.0,0.0,0.0,-2.8006,-2.8115,-2.7992,-2.7949,-2.7849,-2.76,-2.5425,-2.4171,-2.3596,-2.375,0.0,0.0,0.0,0.0,0.0,0.0,0.0,0.0,0.0,0.0,0.0,0.0,0.0,0.0,0.0,0.0,0.0,0.0,0.0,0.0,0.0,0.0,0.0,0.0,0.0,0.0,0.0,0.0,0.0,0.0,0.0,0.0,0.0,0.0,0.0,0.0,0.0,0.0,-0.9422,-1.1336,-1.2132,-1.1969,0.0,0.0,0.0,0.0,0.0,0.0,0.0,0.0,0.0,0.0,0.0,0.0,0.0,0.0,0.0,0.0,0.0,0.0,0.0,0.0,0.0,0.0,0.0,0.0,0.0,0.0,0.0,0.0,0.0,0.0,0.0,0.0,0.0,0.0,0.0,0.0,0.0,0.0,0.0,0.0,0.0,0.0,0.0,0.0,-2.3361,-2.331,0.0,0.0,0.0,0.0,0.0,0.0,0.0,0.0,0.0,0.0,0.0,0.0,0.0,-2.7621,-2.8335,-2.9722,-3.0131,-2.9523,-3.0002,-2.9851,-2.9161,-2.892,-2.8439,-2.7777,-2.7715,0.0,-2.5155,-2.4474,0.0,0.0,0.0,0.0,0.0,0.0,0.0,0.0,0.0,0.0,0.0,0.0,0.0,0.0,0.0,0.0,0.0,0.0,0.0,0.0,0.0,0.0,0.0,0.0,0.0,0.0,0.0,0.0,0.0,0.0,0.0,0.0,0.0,0.0,0.0,0.0,-0.9878,-1.0709,-1.1586,-1.2821,-1.3705,-1.4312,-1.3012,-1.2228,-1.2012,-1.2831,0.0,0.0,0.0,0.0,0.0,0.0,0.0,0.0,0.0,0.0,0.0,0.0,0.0,0.0,0.0,0.0,0.0,0.0,0.0,0.0,0.0,0.0,0.0,0.0,0.0,0.0,0.0,0.0,0.0,0.0,0.0,0.0,0.0,0.0,0.0,0.0,0.0,0.0,0.0,-2.3684,-2.3653,-2.3239,-2.4162,-2.4725,0.0,0.0,0.0,0.0,0.0,0.0,0.0,0.0,0.0,-2.8735,-2.9273,-2.9916,-3.072,-3.1586,-3.2105,-3.2227,-3.3002,-3.3031,-3.2258,-3.2133,-3.1664,-3.0937,-3.0649,-2.9605,-2.7956,-2.608,-2.4434,-2.3106,0.0,0.0,0.0,0.0,-2.3173,-2.3528,0.0,0.0,0.0,0.0,0.0,0.0,0.0,0.0,0.0,0.0,0.0,0.0,0.0,0.0,0.0,0.0,0.0,0.0,0.0,0.0,0.0,0.0,0.0,0.0,0.0,0.0,0.0,0.0,-1.2741,-1.3747,-1.487,-1.5404,-1.6066,-1.6899,-1.6222,-1.5106,-1.3733,-1.4118,-1.3929,0.0,0.0,0.0,0.0,0.0,0.0,0.0,0.0,0.0,0.0,0.0,0.0,0.0,0.0,0.0,0.0,0.0,0.0,0.0,0.0,0.0,0.0,0.0,0.0,0.0,0.0,0.0,0.0,0.0,0.0,0.0,0.0,0.0,0.0,0.0,0.0,0.0,0.0,-2.4039,-2.4163,-2.3432,-2.5065,-2.5945,0.0,0.0,0.0,0.0,0.0,0.0,-2.8754,-2.9977,-3.0993,-3.1708,-3.2001,-3.2555,-3.3373,-3.3859,-3.4384,-3.5008,-3.5603,-3.5622,-3.5064,-3.4878,-3.4387,-3.3643,-3.3085,-3.1918,-3.0192,-2.7827,-2.5709,-2.3985,-2.4171,-2.4002,-2.3697,-2.3883,-2.4188,-2.4506,0.0,0.0,0.0,0.0,0.0,0.0,0.0,0.0,0.0,0.0,0.0,0.0,0.0,0.0,0.0,0.0,0.0,0.0,0.0,0.0,0.0,0.0,0.0,0.0,0.0,0.0,0.0,-1.5924,-1.8034,-1.9558,-2.0497,-2.0475,-2.0477,-2.0479,-1.9865,-1.8138,-1.5588,-1.4746,-1.4619,-1.4978,0.0,0.0,0.0,0.0,0.0,0.0,0.0,0.0,0.0,0.0,0.0,0.0,0.0,0.0,0.0,0.0,0.0,0.0,0.0,0.0,0.0,0.0,0.0,0.0,0.0,0.0,0.0,0.0,0.0,0.0,0.0,0.0,0.0,0.0,0.0,0.0,0.0,0.0,0.0,-2.3786,-2.551,0.0,0.0,0.0,0.0,-2.8614,-2.9948,-3.1075,-3.183,-3.2379,-3.3003,-3.3739,-3.4789,-3.5735,-3.6576,-3.7293,-3.7635,-3.7716,-3.7026,-3.6705,-3.6637,-3.5893,-3.5148,-3.4438,-3.4404,-3.3152,-3.1021,-2.9502,-2.7538,-2.5558,-2.6251,-2.5676,-2.454,-2.5236,-2.5067,-2.4506,0.0,0.0,0.0,0.0,0.0,0.0,0.0,0.0,0.0,0.0,0.0,0.0,0.0,0.0,0.0,0.0,0.0,0.0,0.0,0.0,0.0,0.0,0.0,0.0,0.0,0.0,-1.714,-1.8328,-1.9701,-2.1088,-2.2332,-2.1517,-2.1513,-2.2092,-2.1141,-2.0033,-1.8797,-1.7035,-1.6075,-1.5609,-1.4241,-1.3793,0.0,0.0,0.0,0.0,0.0,0.0,0.0,0.0,0.0,0.0,0.0,0.0,0.0,0.0,0.0,0.0,0.0,0.0,0.0,0.0,0.0,0.0,0.0,0.0,0.0,0.0,0.0,0.0,0.0,0.0,0.0,0.0,0.0,0.0,0.0,0.0,0.0,-2.6666,-2.8812,0.0,-2.8988,-2.9819,-3.0578,-3.1002,-3.2192,-3.3317,-3.4292,-3.5445,-3.6395,-3.7143,-3.7564,-3.7922,-3.8193,-3.8481,-3.8616,-3.8616,-3.8802,-3.8167,-3.6803,-3.6989,-3.6152,-3.4605,-3.5004,-3.4218,-3.2577,-3.2053,-2.9939,-2.7063,-2.7317,-2.7097,-2.6674,-2.6928,-2.7182,-2.73,0.0,0.0,0.0,0.0,0.0,0.0,0.0,0.0,0.0,0.0,0.0,0.0,0.0,0.0,0.0,0.0,0.0,0.0,0.0,0.0,0.0,0.0,0.0,0.0,0.0,-1.7996,-1.9717,-2.1293,-2.2325,-2.3467,-2.4767,-2.3661,-2.35,-2.4117,-2.3061,-2.2206,-2.1497,-1.9897,-1.8395,-1.6816,-1.5046,-1.4438,-1.4428,0.0,0.0,0.0,0.0,0.0,0.0,0.0,0.0,0.0,0.0,0.0,0.0,0.0,0.0,0.0,0.0,0.0,0.0,0.0,0.0,0.0,0.0,0.0,0.0,0.0,0.0,0.0,0.0,0.0,0.0,0.0,0.0,0.0,0.0,0.0,-2.813,-2.8953,-3.1165,-3.2222,-3.1223,-3.1981,-3.2681,-3.2999,-3.4137,-3.5295,-3.6273,-3.7336,-3.8202,-3.8941,-3.8958,-3.9076,-3.936,-3.936,-3.936,-3.936,-3.9597,-3.8841,-3.7164,-3.7386,-3.6439,-3.4644,-3.5324,-3.4755,-3.3426,-3.3423,-3.1799,-2.9279,-2.8789,-2.8245,-2.7823,-2.8112,-2.8383,-2.8482,0.0,0.0,0.0,0.0,0.0,0.0,0.0,0.0,0.0,0.0,0.0,0.0,0.0,0.0,0.0,0.0,0.0,0.0,0.0,0.0,0.0,0.0,0.0,0.0,-1.8226,-2.0989,-2.3238,-2.4895,-2.5988,-2.7067,-2.8134,-2.71,-2.6614,-2.6625,-2.5581,-2.4568,-2.3492,-2.3061,-2.1251,-1.8643,-1.7259,-1.6272,-1.546,0.0,0.0,0.0,0.0,0.0,0.0,0.0,0.0,0.0,0.0,0.0,0.0,0.0,0.0,0.0,0.0,0.0,0.0,0.0,0.0,0.0,0.0,0.0,0.0,0.0,0.0,0.0,0.0,0.0,0.0,0.0,0.0,0.0,-2.6677,-2.8936,-3.0478,-3.0409,-3.2189,-3.2826,-3.1341,-3.3208,-3.4489,-3.4489,-3.5887,-3.7029,-3.7774,-3.7822,-3.8149,-3.8854,-3.8854,-3.9262,-4.007,-4.007,-4.0087,-4.007,-3.936,-3.8606,-3.7785,-3.7061,-3.5978,-3.467,-3.5344,-3.4824,-3.3505,-3.3453,-3.2983,-3.2178,-3.07,-2.9228,-2.7992,-2.8755,-2.8518,-2.7754,0.0,0.0,0.0,0.0,0.0,0.0,0.0,0.0,0.0,0.0,-1.1312,0.0,0.0,0.0,0.0,0.0,0.0,0.0,0.0,0.0,0.0,0.0,0.0,0.0,-2.1671,-2.3642,-2.5322,-2.6603,-2.7306,-2.8009,-2.8625,-2.7581,-2.7174,-2.7198,-2.5647,-2.4562,-2.3937,-2.3335,-2.2399,-2.117,-1.8417,-1.6747,-1.5655,0.0,0.0,0.0,0.0,0.0,0.0,0.0,0.0,0.0,0.0,0.0,0.0,0.0,0.0,0.0,0.0,0.0,0.0,0.0,0.0,0.0,0.0,0.0,0.0,0.0,0.0,0.0,0.0,0.0,0.0,0.0,0.0,-2.9004,-3.0666,-3.047,-3.0918,-3.2767,-3.3489,-3.3671,-3.324,-3.4912,-3.5985,-3.5985,-3.6949,-3.7614,-3.7806,-3.7822,-3.7863,-3.8092,-3.8092,-3.8486,-3.9193,-3.9262,-3.9542,-4.007,-3.9868,-3.916,-3.7939,-3.822,-3.7281,-3.5428,-3.5591,-3.5103,-3.4199,-3.3677,-3.3021,-3.2188,-3.1258,-3.0632,-3.0226,-2.9905,-2.8958,-2.7666,0.0,0.0,0.0,0.0,0.0,0.0,0.0,0.0,0.0,0.0,-1.1696,-1.2571,0.0,0.0,0.0,0.0,0.0,0.0,0.0,0.0,0.0,0.0,0.0,-2.2342,-2.413,-2.5573,-2.6854,-2.7971,-2.8298,-2.8737,-2.9289,-2.8639,-2.8395,-2.8419,-2.7393,-2.6222,-2.5168,-2.4693,-2.3831,-2.2541,-2.0531,-1.8935,-1.7737,-1.5904,-1.4684,-1.3793,-1.3103,-1.2848,-1.2861,-1.234,0.0,0.0,0.0,0.0,0.0,0.0,0.0,0.0,0.0,0.0,0.0,0.0,0.0,0.0,0.0,0.0,0.0,0.0,0.0,0.0,0.0,0.0,0.0,0.0,-2.9329,-3.1392,-3.369,-3.2496,-3.2143,-3.3903,-3.3931,-3.3875,-3.4072,-3.4777,-3.5274,-3.5274,-3.6073,-3.6474,-3.6245,-3.6615,-3.6995,-3.7279,-3.7279,-3.7674,-3.8414,-3.8745,-3.8978,-3.9156,-3.9799,-3.9168,-3.7424,-3.8154,-3.7313,0.0,-3.5211,-3.4933,-3.4511,-3.3807,-3.3195,0.0,0.0,0.0,0.0,0.0,-2.8191,-2.7069,0.0,0.0,0.0,0.0,0.0,0.0,0.0,0.0,0.0,0.0,0.0,0.0,0.0,0.0,0.0,0.0,0.0,0.0,0.0,0.0,0.0,-1.8908,-2.2457,-2.4845,-2.585,-2.7119,-2.818,-2.9151,-2.9151,-2.9429,-2.9934,-2.9869,-2.9792,-2.9792,-2.9702,-2.8462,-2.6483,-2.6389,-2.5062,-2.3105,-2.2783,-2.1845,-2.0454,-1.8503,-1.7138,-1.6034,-1.4894,-1.3846,-1.2929,-1.2231,0.0,0.0,0.0,0.0,0.0,0.0,0.0,0.0,0.0,0.0,0.0,0.0,0.0,0.0,0.0,0.0,0.0,0.0,0.0,0.0,0.0,0.0,0.0,0.0,-3.1802,-3.3157,-3.5586,-3.4485,-3.3587,-3.4197,-3.369,-3.3526,-3.4087,-3.3655,-3.3459,-3.3528,-3.4242,-3.4495,-3.4257,0.0,0.0,0.0,0.0,-3.6859,-3.7632,-3.8414,-3.8469,-3.7822,-3.9332,-3.8924,-3.6783,-3.7557,-3.677,-3.4721,-3.4649,-3.4617,-3.4532,-3.3876,-3.3504,-3.317,-3.1685,-3.0329,-2.9042,-2.7814,-2.6869,-2.6198,0.0,0.0,0.0,0.0,0.0,0.0,0.0,0.0,0.0,0.0,0.0,0.0,0.0,0.0,0.0,0.0,0.0,-1.3559,0.0,0.0,-1.9274,-2.0967,-2.4664,-2.6954,-2.7607,-2.946,-3.0577,-3.0725,-3.0725,-3.0777,-3.0895,-3.0139,-2.9792,-2.9792,-2.8858,-2.7695,-2.6472,-2.5546,-2.4382,-2.3164,-2.3437,-2.2273,-2.0409,-1.9625,-1.7802,-1.5579,-1.5038,-1.456,-1.4055,-1.3227,-1.346,-1.4084,-1.3849,0.0,0.0,0.0,0.0,0.0,0.0,0.0,0.0,0.0,0.0,0.0,0.0,0.0,0.0,0.0,0.0,0.0,0.0,0.0,0.0,-3.0471,-3.2332,-3.3887,-3.4868,-3.4318,-3.3837,-3.386,-3.3316,-3.2932,-3.3052,-3.3268,-3.3638,-3.4087,-3.3412,-3.3747,-3.5453,-3.4741,-3.4978,-3.6501,-3.6004,-3.6054,-3.6843,-3.7616,-3.7921,-3.7822,0.0,0.0,-3.7573,-3.8358,-3.7751,-3.6138,-3.5625,-3.5062,-3.4519,-3.4399,-3.3697,-3.2542,-3.104,-2.9931,-2.905,-2.787,-2.6918,-2.6068,0.0,0.0,0.0,0.0,0.0,0.0,0.0,0.0,0.0,0.0,0.0,0.0,0.0,0.0,0.0,0.0,-1.4379,0.0,0.0,-1.7662,-2.0228,-2.2662,-2.5636,-2.7816,-2.8938,-2.9985,-3.0771,-3.118,-3.0771,-3.0758,-3.118,-3.0203,-2.9792,-2.9792,-2.9197,-2.8503,-2.766,-2.6484,-2.5443,-2.4652,-2.4275,-2.3432,-2.2259,-2.1236,-2.0051,-1.8631,-1.758,-1.7087,-1.6593,-1.5437,-1.5599,-1.6062,-1.4522,-1.3993,-1.3863,0.0,0.0,0.0,0.0,0.0,0.0,0.0,0.0,0.0,0.0,0.0,0.0,0.0,0.0,-2.5168,0.0,0.0,-3.0337,-3.1758,-3.3529,-3.4813,-3.509,-3.4663,-3.4161,-3.3874,-3.3014,-3.2603,-3.2898,-3.2867,-3.2949,-3.3265,-3.3192,-3.3738,-3.5085,-3.4739,-3.5103,-3.6477,-3.5848,-3.5668,-3.607,-3.6798,-3.6995,-3.6662,-3.8206,-3.8149,-3.6662,-3.7424,-3.7144,-3.6024,-3.5338,-3.4804,-3.4446,-3.4158,-3.3421,-3.2414,-3.1326,-2.9851,-2.8231,-2.7365,-2.6566,-2.5839,0.0,0.0,0.0,0.0,0.0,0.0,0.0,0.0,0.0,0.0,0.0,0.0,0.0,0.0,0.0,0.0,0.0,0.0,0.0,-1.8206,-2.0975,-2.4011,-2.6288,-2.8161,-2.9779,-3.0011,-3.0609,-3.171,-3.0761,-3.0836,-3.1636,-3.0649,-3.0163,-2.9955,-3.0055,-2.9751,-2.9023,-2.8012,-2.7139,-2.6172,-2.5209,-2.4588,-2.4273,-2.2823,-2.2208,-2.176,-2.0198,-1.9179,-1.8518,-1.7344,-1.7342,-1.7433,-1.5209,-1.4838,-1.4834,-1.3487,-1.3219,0.0,0.0,0.0,0.0,0.0,0.0,0.0,0.0,0.0,-2.2594,-2.3885,-2.5104,-2.6356,-2.7697,-2.9579,-3.1483,-3.3195,-3.4506,-3.5413,-3.5612,-3.514,-3.4512,-3.396,-3.3006,-3.2566,-3.3031,-3.2554,-3.2252,-3.2365,-3.2898,-3.3595,-3.4394,-3.4688,-3.5264,-3.6372,-3.5962,-3.5639,-3.5504,-3.6228,-3.6228,-3.5504,-3.7071,-3.7011,-3.5504,-3.6275,-3.6228,-3.5474,-3.4771,-3.4485,-3.4415,-3.3642,-3.2898,-3.226,-3.1557,-2.989,-2.7825,-2.7353,-2.6677,-2.5989,0.0,0.0,0.0,0.0,0.0,0.0,0.0,0.0,0.0,0.0,0.0,0.0,0.0,0.0,0.0,0.0,0.0,0.0,-1.7246,-1.9154,-2.1675,-2.4901,-2.6948,-2.8536,-2.9792,-3.062,-3.179,-3.3321,-3.2654,-3.2667,-3.3321,-3.2235,-3.1306,-3.0545,-3.1009,-3.0639,-2.9678,-2.9594,-2.823,-2.6262,-2.6172,-2.5381,-2.4375,-2.3764,-2.2947,-2.1789,-2.0479,-1.8751,-1.7203,-1.7427,-1.7072,-1.6661,-1.7616,-1.6844,-1.5583,-1.5219,0.0,-1.3275,-1.3704,-1.5341,-1.7514,-2.0246,-2.018,-2.0641,0.0,0.0,-2.572,-2.8401,-2.9327,-2.991,-3.0504,-3.0985,-3.1841,-3.377,-3.4388,-3.4993,-3.6163,-3.5378,-3.4512,-3.396,-3.3357,-3.3006,-3.3068,-3.2554,-3.2428,-3.2943,-3.2135,-3.2508,-3.4576,-3.4558,-3.4913,-3.5927,-3.6265,-3.6088,-3.5504,-3.6228,-3.6228,-3.5504,-3.7071,-3.7011,-3.5504,-3.6275,-3.6228,-3.5474,-3.4771,-3.4485,-3.4376,-3.3145,-3.2237,-3.1616,-3.0897,-3.0126,-2.9342,-2.9289,-2.8442,-2.74,0.0,0.0,0.0,0.0,0.0,0.0,0.0,0.0,0.0,0.0,0.0,0.0,0.0,0.0,0.0,0.0,0.0,0.0,-1.7512,-1.9017,-2.145,-2.5058,-2.6428,-2.7947,-2.9792,-3.0216,-3.112,-3.2691,-3.1813,-3.1985,-3.3127,-3.2098,-3.1423,-3.1072,-3.1298,-3.1302,-3.1171,-3.047,-2.9589,-2.8618,-2.7205,-2.6163,-2.5239,-2.394,-2.2843,-2.1835,-2.0721,-1.9641,0.0,0.0,-1.7558,-1.7975,-1.7332,-1.7031,-1.6669,-1.5562,-1.5194,0.0,-1.7179,-1.824,0.0,0.0,-2.2705,-2.3595,-2.5864,-2.635,-2.6865,-2.8512,-2.9445,-2.999,-3.0185,-3.0927,-3.193,0.0,-3.396,-3.4776,-3.5744,-3.4939,-3.4035,-3.3483,-3.2629,-3.2215,-3.2541,-3.2353,-3.2453,-3.3031,-3.2641,-3.3046,-3.465,-3.4801,-3.5409,-3.6388,-3.6832,-3.6896,-3.6611,-3.6899,-3.6703,-3.6073,-3.6728,-3.6529,-3.5504,-3.5846,-3.5782,-3.5474,-3.4771,-3.448,-3.444,-3.3891,-3.3069,-3.2118,-3.2242,-3.1622,-3.0627,-2.9864,-2.8981,-2.8173,0.0,0.0,0.0,0.0,0.0,0.0,0.0,0.0,0.0,0.0,0.0,0.0,0.0,0.0,0.0,0.0,0.0,0.0,0.0,-1.8516,-2.0677,-2.3871,-2.5408,-2.7115,-2.9142,-2.9549,-3.056,-3.2051,-3.1177,-3.1473,-3.2843,-3.2156,-3.1693,-3.1625,-3.1788,-3.2077,-3.2356,-3.1308,-3.0536,-2.9805,-2.7854,-2.6325,-2.5091,-2.3196,-2.1914,-2.1074,-2.0303,-1.9521,0.0,0.0,-1.7445,-1.8062,-1.7103,-1.7067,-1.7246,-1.6229,-1.653,-1.7568,-1.9317,0.0,0.0,-2.3279,-2.4902,-2.6152,-2.6387,-2.71,-2.793,-2.8662,-2.9316,-2.9707,-2.959,-3.0218,-3.0995,-3.211,-3.3081,-3.3932,-3.4809,-3.4304,-3.3633,-3.293,-3.1851,-3.1336,-3.1738,-3.1901,-3.2164,-3.2579,-3.2754,-3.3314,-3.4413,-3.5178,-3.5955,-3.6776,-3.7393,-3.7599,-3.7404,-3.7404,-3.7105,-3.6492,-3.6492,-3.6148,-3.5504,-3.5504,-3.5504,-3.5474,-3.4981,-3.4651,-3.449,-3.4303,-3.353,-3.2541,-3.2825,-3.2346,-3.1362,-3.0462,-2.9579,-2.8876,0.0,0.0,0.0,0.0,0.0,0.0,0.0,0.0,0.0,0.0,0.0,0.0,0.0,0.0,0.0,0.0,0.0,0.0,0.0,-1.7669,-1.9145,-2.0977,-2.3718,-2.5988,-2.7502,-2.9015,-3.0573,-3.2154,-3.1497,-3.18,-3.3027,-3.2843,-3.2587,-3.2215,-3.278,-3.3031,-3.3018,-3.2453,-3.0893,-2.879,-2.7723,-2.5701,-2.3104,-2.1379,-2.0117,-1.9307,-1.8857,0.0,0.0,0.0,-1.6169,-1.582,-1.7463,-1.7413,0.0,-1.7939,-1.825,0.0,0.0,0.0,-2.2437,-2.4504,-2.6006,-2.7197,-2.8027,-2.8877,-2.9619,-3.0049,-3.0156,-3.0049,-2.9648,-2.8887,-2.8834,-3.0141,-3.116,-3.2225,-3.3374,-3.3735,-3.3483,-3.2378,-3.1286,-3.0645,0.0,-3.1122,-3.1424,-3.1436,-3.1938,-3.2702,-3.3793,-3.5314,-3.6375,-3.679,-3.7822,-3.8063,-3.7419,-3.7404,-3.7105,-3.6492,-3.6492,-3.6148,-3.5504,-3.5504,-3.5504,-3.5504,-3.5489,-3.51,-3.4427,-3.383,-3.311,-3.2452,-3.1809,-3.1554,-3.1482,-3.1437,-3.0657,-2.9549,0.0,0.0,0.0,0.0,0.0,0.0,0.0,0.0,0.0,0.0,0.0,0.0,0.0,0.0,0.0,0.0,0.0,0.0,0.0,-1.7739,-1.9047,-2.1331,-2.2874,-2.4664,-2.6828,-2.7688,-2.8973,-3.0573,-3.0999,-3.1483,-3.1928,-3.2528,-3.2393,-3.1675,-3.1863,-3.1951,-3.1926,-3.1386,-3.0728,-2.9723,-2.6701,-2.5103,-2.4148,-2.0632,-1.876,-1.7891,0.0,0.0,0.0,0.0,-1.4239,-1.4242,-1.6327,0.0,0.0,-1.9944,-2.0938,-2.1404,0.0,0.0,-2.5565,-2.6869,-2.7969,-2.8935,-2.9814,-3.0244,-3.0322,-2.9873,-2.9326,-2.8633,-2.7646,-2.6992,-2.6973,-2.8373,-3.0024,-3.1586,-3.2404,-3.3678,-3.3759,-3.1888,-3.1348,0.0,0.0,0.0,0.0,-3.1361,-3.1901,-3.2676,-3.3753,-3.5328,-3.6598,-3.7437,-3.8516,-3.8975,-3.8751,-3.8751,-3.8197,-3.709,-3.6237,-3.5714,-3.5504,-3.5504,-3.5504,-3.5504,-3.5504,-3.537,-3.51,-3.4427,-3.3754,-3.3095,-3.2437,-3.1913,-3.1482,-3.1482,-3.0971,-3.0193,0.0,0.0,0.0,0.0,0.0,0.0,0.0,0.0,0.0,0.0,0.0,0.0,0.0,0.0,0.0,0.0,0.0,0.0,0.0,0.0,-1.8261,-1.9807,-2.1204,-2.2725,-2.4476,-2.5564,-2.6587,-2.7678,-2.852,-2.9153,-2.9661,-3.0283,-3.0372,-2.9986,-2.9986,-2.9846,-2.9578,-2.885,-2.8301,-2.7655,-2.4671,-2.3307,-2.2645,-1.9184,-1.7372,0.0,0.0,0.0,0.0,0.0,0.0,0.0,0.0,-1.7376,-1.8978,-2.1408,-2.2889,-2.4159,-2.6129,-2.7024,-2.7631,-2.8721,-2.9512,-3.0185,-3.0762,-3.0762,-3.0351,-2.9326,-2.831,-2.7168,-2.5723,-2.4853,-2.4851,-2.6647,-2.8346,-3.0125,-3.1754,-3.3011,-3.337,-3.2139,-3.1637,0.0,0.0,0.0,0.0,-3.0821,-3.1687,-3.2676,-3.3753,-3.5022,-3.6498,-3.84,-3.8706,-3.9135,-3.9768,-3.9544,-3.8751,-3.7389,-3.6118,-3.5504,-3.5504,-3.5504,-3.5504,-3.5504,-3.5504,-3.5504,-3.5429,-3.4502,-3.3873,-3.341,-3.2512,-3.1898,-3.1482,-3.1482,-3.1255,-3.0836,0.0,0.0,0.0,0.0,0.0,0.0,0.0,0.0,0.0,0.0,0.0,0.0,0.0,0.0,0.0,0.0,0.0,0.0,0.0,0.0,0.0,-1.6572,-1.8823,-2.0357,-2.0878,-2.2766,-2.3813,-2.3923,-2.4473,-2.5293,-2.6412,-2.6472,-2.6783,-2.7235,-2.7235,-2.6928,-2.6282,-2.5212,-2.4075,-2.3022,-2.1799,-2.0478,-1.9033,-1.708,0.0,0.0,0.0,0.0,0.0,0.0,0.0,0.0,0.0,0.0,-2.2423,-2.2651,-2.4423,-2.6546,-2.7484,-2.8077,-2.876,-2.9922,-3.0566,-3.0879,-3.083,-3.0449,-2.9726,-2.8398,-2.709,-2.5664,0.0,0.0,-2.2655,-2.4927,-2.622,-2.8103,-3.147,-3.2215,-3.2604,0.0,0.0,0.0,0.0,0.0,0.0,-3.003,0.0,-3.2714,-3.3753,-3.4386,-3.6212,-3.9376,-3.838,-3.8597,-4.0308,-3.9636,-3.8706,-3.7404,-3.6148,-3.5534,-3.5504,-3.5504,-3.5504,-3.5504,-3.5504,-3.5504,-3.54,-3.4053,-3.3499,-3.3365,-3.2048,-3.1482,-3.1482,-3.1482,-3.1482,-3.1377,0.0,0.0,0.0,0.0,0.0,0.0,0.0,0.0,0.0,0.0,0.0,0.0,0.0,0.0,0.0,0.0,0.0,0.0,0.0,0.0,0.0,0.0,0.0,0.0,0.0,0.0,0.0,0.0,0.0,-2.5175,-2.5185,-2.5952,-2.5949,-2.5362,-2.5362,-2.5077,-2.4506,-2.3798,-2.339,-2.2862,0.0,-1.9608,-1.9621,0.0,0.0,0.0,0.0,0.0,0.0,0.0,0.0,0.0,0.0,-2.251,-2.5554,-2.6066,-2.7577,-2.9116,-2.9722,-3.0209,-3.0638,-3.0679,-3.0801,-3.0723,-3.0059,-2.9326,-2.8232,-2.6289,-2.4619,-2.2969,0.0,0.0,0.0,-2.3853,-2.6863,0.0,-3.1786,-3.3937,0.0,0.0,0.0,-3.3106,-3.2692,-3.2252,0.0,0.0,-3.2616,-3.3135,-3.3779,-3.5152,-3.6458,-3.771,-3.785,-3.8263,-3.9102,-3.8839,-3.8227,-3.7404,-3.6611,-3.5983,-3.5504,-3.5504,-3.5504,-3.5504,-3.5504,-3.5504,-3.54,-3.4053,-3.3499,-3.3365,-3.2048,-3.1482,-3.1482,-3.1482,-3.1482,-3.1452,0.0,0.0,0.0,0.0,0.0,0.0,0.0,0.0,0.0,0.0,0.0,0.0,0.0,0.0,0.0,0.0,0.0,0.0,0.0,0.0,0.0,0.0,0.0,0.0,0.0,0.0,0.0,0.0,0.0,0.0,0.0,-2.3144,-2.3028,-2.2255,-2.2255,-2.1917,-2.1335,0.0,0.0,0.0,0.0,0.0,0.0,0.0,0.0,0.0,0.0,0.0,0.0,0.0,0.0,-2.1597,-2.3656,-2.6519,-2.9073,-2.9332,0.0,-3.142,-3.1253,-3.1359,-3.1415,-3.1259,-3.0869,-3.0264,-2.9014,-2.8066,-2.668,-2.3945,-2.2314,0.0,0.0,0.0,0.0,0.0,0.0,0.0,-3.1731,-3.3792,-3.4751,0.0,-3.4261,0.0,-3.3483,-3.3357,-3.3345,0.0,-3.3432,-3.3642,-3.4198,-3.5115,-3.6223,-3.7493,-3.7317,-3.7676,-3.8701,-3.8516,-3.8063,-3.7404,-3.6791,-3.6148,-3.5504,-3.5504,-3.5504,-3.5504,0.0,-3.5504,-3.54,-3.4053,-3.3499,-3.3365,-3.2048,-3.1482,-3.1482,-3.1482,-3.1482,-3.1467,0.0,0.0,0.0,0.0,0.0,0.0,0.0,0.0,0.0,0.0,0.0,0.0,0.0,0.0,0.0,0.0,0.0,0.0,0.0,0.0,0.0,0.0,0.0,0.0,0.0,0.0,0.0,0.0,0.0,0.0,0.0,0.0,0.0,0.0,0.0,0.0,0.0,0.0,0.0,0.0,0.0,0.0,0.0,0.0,0.0,0.0,0.0,0.0,0.0,0.0,-2.1037,-2.3642,-2.6858,-2.9898,-3.2142,-3.1713,-3.2307,-3.3062,-3.2309,-3.1822,-3.1592,-3.1533,-3.081,-2.9658,-2.7891,-2.666,-2.4941,-2.165,0.0,-1.9092,-1.75,0.0,-1.871,-2.2601,0.0,-2.6628,-3.1601,-3.2817,-3.3571,-3.46,-3.4663,-3.4449,-3.4048,-3.4374,-3.4474,-3.4148,-3.4123,-3.4299,-3.47,-3.4864,-3.5773,-3.7717,-3.6704,-3.6942,-3.8453,-3.8282,-3.7908,-3.7404,-3.6791,-3.6148,-3.5504,-3.5504,-3.5504,-3.5504,-3.5504,0.0,-3.528,-3.4098,-3.3529,-3.3245,-3.2108,-3.1556,-3.1482,-3.1482,-3.1482,-3.1409,0.0,0.0,0.0,0.0,0.0,0.0,0.0,0.0,0.0,0.0,0.0,0.0,0.0,0.0,0.0,0.0,0.0,0.0,0.0,0.0,0.0,0.0,0.0,0.0,0.0,0.0,0.0,0.0,0.0,0.0,0.0,0.0,0.0,0.0,0.0,0.0,0.0,0.0,0.0,0.0,0.0,0.0,0.0,0.0,0.0,0.0,0.0,0.0,0.0,0.0,-2.2551,-2.5766,-2.6614,-2.948,-3.2277,-3.1164,-3.1474,-3.234,-3.2205,-3.2175,-3.1973,-3.1611,-3.0586,-2.9141,-2.708,-2.4834,0.0,0.0,0.0,-1.751,-1.6484,-1.7178,0.0,-2.2739,0.0,0.0,0.0,0.0,-3.3997,0.0,0.0,0.0,0.0,0.0,0.0,0.0,0.0,-3.5102,-3.4738,-3.5579,-3.6037,-3.5945,-3.5778,-3.6203,-3.7393,-3.7168,-3.7212,-3.7404,-3.6791,-3.6148,-3.5504,-3.5504,-3.5504,-3.5504,-3.5504,0.0,-3.4637,-3.4397,-3.3664,-3.2662,-3.2437,-3.2018,-3.1482,-3.1482,-3.1482,-3.1409,0.0,0.0,0.0,0.0,0.0,0.0,0.0,0.0,0.0,0.0,0.0,0.0,0.0,0.0,0.0,0.0,0.0,0.0,0.0,0.0,0.0,0.0,0.0,0.0,0.0,0.0,0.0,0.0,0.0,0.0,0.0,0.0,0.0,0.0,0.0,0.0,0.0,0.0,0.0,0.0,0.0,0.0,0.0,0.0,0.0,0.0,0.0,0.0,0.0,0.0,-2.1583,-2.5024,-2.7464,-3.0145,-3.2366,-3.1455,-3.1986,-3.2871,-3.2275,-3.2324,-3.2393,-3.1963,-3.0537,-2.8555,-2.5947,0.0,0.0,0.0,0.0,-1.6494,-1.584,0.0,0.0,0.0,0.0,0.0,0.0,0.0,0.0,0.0,0.0,0.0,0.0,0.0,0.0,0.0,0.0,-3.5554,-3.5579,-3.5805,-3.568,-3.514,-3.5897,-3.6579,-3.707,-3.7829,-3.7881,-3.7404,-3.7105,-3.6447,-3.5504,-3.5504,-3.5504,-3.5504,-3.5504,0.0,-3.4981,-3.4622,-3.3903,-3.2991,-3.2647,-3.2108,-3.1482,-3.1482,-3.1482,-3.1351,0.0,0.0,0.0,0.0,0.0,0.0,0.0,0.0,0.0,0.0,0.0,0.0,0.0,0.0,0.0,0.0,0.0,0.0,0.0,0.0,0.0,0.0,0.0,0.0,0.0,0.0,0.0,0.0,0.0,0.0,0.0,0.0,0.0,0.0,0.0,0.0,0.0,0.0,0.0,0.0,0.0,0.0,0.0,0.0,0.0,0.0,0.0,0.0,0.0,0.0,-1.9646,-2.2698,-2.6354,-2.9338,-3.1406,-3.0948,-3.1723,-3.267,-3.2206,-3.2334,-3.2539,-3.2021,-3.0185,-2.7773,-2.4932,-2.2412,0.0,0.0,0.0,-1.582,-1.5478,0.0,0.0,0.0,0.0,0.0,0.0,0.0,0.0,0.0,0.0,0.0,0.0,0.0,0.0,0.0,0.0,0.0,-3.6332,-3.573,-3.5165,-3.4738,-3.596,-3.6715,-3.6943,-3.8055,-3.8225,-3.7404,-3.7135,-3.6477,-3.5504,-3.5504,-3.5504,-3.5504,-3.5504,0.0,0.0,-3.4861,-3.4143,-3.3245,-3.2871,-3.2317,-3.1676,-3.1526,-3.1556,-3.1485,0.0,0.0,0.0,0.0,0.0,0.0,0.0,0.0,0.0,0.0,0.0,0.0,0.0,0.0,0.0,0.0,0.0,0.0,0.0,0.0,0.0,0.0,0.0,0.0,0.0,0.0,0.0,0.0,0.0,0.0,0.0,0.0,0.0,0.0,0.0,0.0,0.0,0.0,0.0,0.0,0.0,0.0,0.0,0.0,0.0,0.0,0.0,0.0,0.0,0.0,0.0,-1.8755,-2.0282,-2.4206,-2.8073,-2.7572,0.0,0.0,-3.124,-3.1894,-3.2031,-3.1211,-2.9082,-2.6602,-2.4355,0.0,0.0,0.0,-1.6064,-1.5459,-1.542,-1.5478,0.0,0.0,0.0,0.0,0.0,0.0,0.0,0.0,0.0,0.0,0.0,0.0,0.0,0.0,0.0,0.0,-3.6358,-3.5366,-3.4776,-3.4726,-3.4829,-3.5372,-3.6281,-3.6248,-3.6587,-3.7404,-3.6237,-3.5624,-3.5504,-3.5504,-3.5504,-3.5504,-3.5504,0.0,0.0,-3.5175,-3.4307,-3.2662,-3.32,-3.3006,-3.2347,-3.1691,-3.1913,-3.2154,0.0,0.0,0.0,0.0,0.0,0.0,0.0,0.0,0.0,0.0,0.0,0.0,0.0,0.0,0.0,0.0,0.0,0.0,0.0,0.0,0.0,0.0,0.0,0.0,0.0,0.0,0.0,0.0,0.0,0.0,0.0,0.0,0.0,0.0,0.0,0.0,0.0,0.0,0.0,0.0,0.0,0.0,0.0,0.0,0.0,0.0,0.0,0.0,0.0,0.0,0.0,0.0,-1.7129,-1.9501,0.0,0.0,-2.6299,-2.8047,-2.9853,-3.1045,-3.1631,-3.1045,-2.8935,-2.6377,-2.3965,0.0,0.0,-1.665,-1.584,-1.541,-1.541,-1.541,-1.5694,0.0,0.0,0.0,0.0,0.0,0.0,0.0,0.0,0.0,0.0,0.0,0.0,0.0,0.0,0.0,-3.5391,-3.4964,-3.4412,-3.3759,-3.4341,-3.5197,-3.6198,-3.6372,-3.6749,-3.7404,-3.6522,-3.5893,-3.5504,-3.5504,-3.5504,-3.5504,-3.5504,0.0,0.0,-3.5385,-3.4786,-3.3724,-3.3978,-3.344,-3.2482,-3.2213,-3.1723,-3.1023,0.0,0.0,0.0,0.0,0.0,0.0,0.0,0.0,0.0,0.0,0.0,0.0,0.0,0.0,0.0,0.0,0.0,0.0,0.0,0.0,0.0,0.0,0.0,0.0,0.0,0.0,0.0,0.0,0.0,0.0,0.0,0.0,0.0,0.0,0.0,0.0,0.0,0.0,0.0,0.0,0.0,0.0,0.0,0.0,0.0,0.0,0.0,0.0,0.0,0.0,0.0,0.0,0.0,0.0,0.0,0.0,-2.3769,-2.585,-2.7725,-2.9287,-3.0273,-2.9853,-2.7891,-2.5449,0.0,0.0,-1.7852,-1.6429,-1.5713,-1.541,-1.541,-1.5312,-1.5282,0.0,0.0,0.0,0.0,0.0,0.0,0.0,0.0,0.0,0.0,0.0,0.0,0.0,0.0,0.0,-3.4274,-3.4399,-3.4123,-3.3345,-3.4507,-3.5439,-3.5949,-3.6656,-3.7019,-3.7135,-3.6492,-3.5953,-3.5504,-3.5504,-3.5359,-3.5067,-3.5359,0.0,0.0,-3.5359,-3.51,-3.4472,-3.4472,-3.3784,-3.2781,-3.2587,-3.1692,-3.0467,0.0,0.0,0.0,0.0,0.0,0.0,0.0,0.0,0.0,0.0,0.0,0.0,0.0,0.0,0.0,0.0,0.0,0.0,0.0,0.0,0.0,0.0,0.0,0.0,0.0,0.0,0.0,0.0,0.0,0.0,0.0,0.0,0.0,0.0,0.0,0.0,0.0,0.0,0.0,0.0,0.0,0.0,0.0,0.0,0.0,0.0,0.0,0.0,0.0,0.0,0.0,0.0,0.0,0.0,0.0,0.0,-2.083,-2.3477,-2.4766,-2.6387,-2.7598,-2.7168,-2.543,-2.3369,0.0,0.0,-1.7139,-1.6311,-1.5713,-1.541,-1.541,-1.5068,-1.5008,-1.5594,0.0,0.0,0.0,0.0,0.0,0.0,0.0,0.0,0.0,0.0,0.0,0.0,0.0,0.0,-3.3156,-3.3608,-3.3897,-3.3884,-3.541,-3.5935,-3.5292,-3.6705,-3.7105,-3.6492,-3.5833,-3.5519,-3.5504,-3.5504,-3.4986,0.0,0.0,0.0,0.0,-3.5067,-3.51,-3.4472,-3.4472,-3.4068,-3.341,-3.2751,-3.1957,-3.1085,0.0,0.0,0.0,0.0,0.0,0.0,0.0,0.0,0.0,0.0,0.0,0.0,0.0,0.0,0.0,0.0,0.0,0.0,0.0,0.0,0.0,0.0,0.0,0.0,0.0,0.0,0.0,0.0,0.0,0.0,0.0,0.0,0.0,0.0,0.0,0.0,0.0,0.0,0.0,0.0,0.0,0.0,0.0,0.0,0.0,0.0,0.0,0.0,0.0,0.0,0.0,0.0,0.0,0.0,0.0,0.0,0.0,0.0,-2.1562,-2.3047,-2.4043,-2.3613,-2.2539,-2.1143,-1.9424,0.0,-1.6611,-1.543,-1.5078,-1.5005,-1.5192,-1.5083,-1.5444,-1.6754,-1.7804,0.0,0.0,0.0,0.0,0.0,0.0,0.0,0.0,0.0,0.0,0.0,0.0,0.0,-3.3119,-3.3244,-3.3332,-3.3332,-3.3405,-3.4032,-3.5278,-3.4913,-3.5249,-3.6477,-3.5148,-3.4839,-3.5504,-3.4758,-3.4312,0.0,0.0,0.0,0.0,-3.4839,-3.4934,-3.4222,-3.4887,-3.4487,-3.3469,-3.326,-3.1693,-2.9659,0.0,0.0,0.0,0.0,0.0,0.0,0.0,0.0,0.0,0.0,0.0,0.0,0.0,0.0,0.0,0.0,0.0,0.0,0.0,0.0,0.0,0.0,0.0,0.0,0.0,0.0,0.0,0.0,0.0,0.0,0.0,0.0,0.0,0.0,0.0,0.0,0.0,0.0,0.0,0.0,0.0,0.0,-1.2881,0.0,0.0,0.0,0.0,0.0,0.0,0.0,0.0,0.0,0.0,0.0,0.0,0.0,-1.4475,0.0,0.0,-2.0068,-2.0986,-2.0723,-2.001,-1.8994,-1.7598,0.0,-1.5723,-1.4746,-1.476,-1.4942,-1.5091,-1.5141,-1.5658,-1.716,-1.8026,0.0,0.0,0.0,0.0,0.0,0.0,0.0,0.0,0.0,0.0,0.0,0.0,0.0,-3.3093,-3.3081,-3.3081,-3.3081,-3.2911,-3.3271,-3.438,-3.3779,-3.42,-3.551,-3.4146,-3.3973,-3.4905,-3.3891,-3.331,0.0,0.0,0.0,0.0,-3.3754,-3.4041,-3.3602,-3.4543,-3.4271,-3.3343,-3.3343,-3.1789,-2.9614,0.0,0.0,0.0,0.0,0.0,0.0,0.0,0.0,0.0,0.0,0.0,0.0,0.0,0.0,0.0,0.0,0.0,0.0,0.0,0.0,0.0,0.0,0.0,0.0,0.0,0.0,0.0,0.0,-1.405,-1.3779,-1.3732,0.0,0.0,0.0,0.0,0.0,0.0,0.0,0.0,0.0,0.0,0.0,0.0,0.0,0.0,0.0,0.0,0.0,0.0,0.0,0.0,0.0,0.0,0.0,0.0,0.0,0.0,0.0,0.0,0.0,0.0,0.0,-1.7705,-1.6934,-1.6135,0.0,0.0,-1.418,-1.4611,-1.5091,-1.5174,-1.5278,-1.5811,-1.7166,0.0,0.0,0.0,0.0,0.0,0.0,0.0,0.0,0.0,0.0,0.0,0.0,0.0,0.0,-3.3018,-3.3056,-3.3056,-3.3018,-3.339,-3.3357,-3.283,-3.3247,-3.3591,-3.3876,-3.2961,-3.2961,-3.3876,-3.2961,-3.2033,0.0,0.0,0.0,0.0,-3.2177,-3.2522,-3.2593,-3.3518,-3.3518,-3.2987,-3.2987,-3.2027,-3.0596,0.0,0.0,0.0,0.0,0.0,0.0,0.0,0.0,0.0,0.0,0.0,0.0,0.0,0.0,0.0,0.0,0.0,0.0,0.0,0.0,0.0,0.0,0.0,0.0,0.0,0.0,0.0,-1.4003,-1.3862,-1.3552,-1.3104,-1.2978,0.0,0.0,0.0,0.0,0.0,0.0,0.0,0.0,0.0,0.0,0.0,0.0,0.0,0.0,-1.2881,-1.2559,0.0,0.0,0.0,0.0,0.0,0.0,0.0,0.0,-1.1586,-1.2319,-1.2798,0.0,-1.506,-1.4795,-1.4805,-1.4756,0.0,0.0,0.0,0.0,0.0,-1.4885,-1.5919,-1.6115,-1.7074,0.0,0.0,0.0,0.0,0.0,0.0,0.0,0.0,0.0,0.0,0.0,0.0,0.0,0.0,-3.288,-3.2441,-3.283,-3.2867,-3.2428,-3.2098,-3.2204,-3.283,-3.2106,-3.2169,-3.289,-3.196,-3.2033,-3.289,-3.196,-3.1389,0.0,0.0,0.0,-3.0292,-3.1901,-3.2177,-3.1609,-3.2522,-3.2514,-3.1916,-3.1916,-3.0979,-2.9731,0.0,0.0,0.0,0.0,0.0,0.0,0.0,0.0,0.0,0.0,0.0,0.0,0.0,0.0,0.0,0.0,0.0,0.0,0.0,0.0,0.0,0.0,0.0,0.0,0.0,0.0,0.0,0.0,0.0,-1.3035,0.0,0.0,0.0,0.0,0.0,0.0,0.0,0.0,0.0,0.0,-1.2881,0.0,0.0,0.0,0.0,0.0,-1.2393,-1.1931,0.0,-1.1366,-1.0914,-1.0364,0.0,0.0,0.0,0.0,-1.1015,-1.1814,-1.1783,-1.2945,-1.4029,-1.3848,-1.3965,-1.4019,-1.3795,0.0,0.0,0.0,0.0,0.0,-1.58,0.0,0.0,0.0,0.0,0.0,0.0,0.0,0.0,0.0,0.0,0.0,0.0,0.0,0.0,0.0,0.0,-3.2717,-3.1876,-3.2629,-3.2692,-3.1863,-3.1549,-3.1618,-3.2143,-3.1113,-3.1044,-3.196,-3.0983,-3.1044,-3.196,-3.0983,-3.0558,0.0,0.0,0.0,-2.9869,-3.0921,-3.0983,-3.062,-3.1609,-3.1757,-3.1415,-3.1415,-3.0927,-3.0171,0.0,0.0,0.0,0.0,0.0,0.0,0.0,0.0,0.0,0.0,0.0,0.0,0.0,0.0,0.0,0.0,0.0,0.0,0.0,0.0,0.0,0.0,0.0,0.0,0.0,0.0,0.0,0.0,0.0,0.0,0.0,0.0,0.0,0.0,0.0,0.0,0.0,0.0,0.0,0.0,-1.2881,0.0,0.0,0.0,0.0,0.0,0.0,0.0,0.0,-1.0669,-1.0218,-0.9666,-0.9666,0.0,0.0,0.0,0.0,0.0,-1.1642,-1.2837,-1.4019,-1.3941,-1.398,-1.4058,-1.4,0.0,0.0,0.0,0.0,0.0,0.0,0.0,0.0,0.0,0.0,0.0,0.0,0.0,0.0,0.0,0.0,0.0,0.0,0.0,0.0,0.0,0.0,-3.2365,-3.1323,-3.2252,-3.234,-3.1298,-3.1273,-3.1273,-3.1273,-3.0294,-3.0216,-3.097,-3.0216,-3.0203,-3.097,-3.0139,-2.9792,-2.9792,0.0,0.0,-2.9792,-2.9792,-2.9792,-2.9869,-3.0696,-3.097,-3.097,-3.097,-3.097,-3.0908,0.0,0.0,0.0,0.0,0.0,0.0,0.0,0.0,0.0,0.0,0.0,0.0,0.0,0.0,0.0,0.0,0.0,0.0,0.0,0.0,0.0,0.0,0.0,0.0,0.0,0.0,0.0,0.0,0.0,0.0,-1.2725,-1.2187,-1.1616,0.0,0.0,0.0,0.0,-1.2618,-1.2881,-1.2881,-1.2881,0.0,0.0,0.0,0.0,0.0,0.0,0.0,0.0,-0.9961,-0.9517,-0.8956,-0.8956,0.0,0.0,0.0,0.0,0.0,-1.0821,-1.2396,-1.3691,-1.3188,-1.3613,-1.399,-1.3682,0.0,0.0,0.0,0.0,0.0,0.0,0.0,0.0,0.0,0.0,0.0,0.0,0.0,0.0,0.0,0.0,0.0,0.0,0.0,0.0,0.0,0.0,0.0,-3.0771,-3.1323,-3.1373,-3.0758,-3.0733,-3.0733,-3.0733,-3.0105,-2.9856,-2.9998,-2.9869,-2.9869,-2.9998,-2.9869,-2.9792,-2.9792,0.0,-2.9792,-2.9792,-2.9792,-2.9792,-2.9792,-2.9934,-2.9998,-2.9998,-2.9998,-2.9998,-2.9998,0.0,0.0,0.0,0.0,0.0,0.0,0.0,0.0,0.0,0.0,0.0,0.0,0.0,0.0,0.0,0.0,0.0,0.0,0.0,0.0,0.0,0.0,0.0,0.0,0.0,0.0,0.0,0.0,0.0,-1.252,-1.1742,-1.1074,-1.0771,-1.0813,0.0,0.0,0.0,-1.1633,-1.1792,-1.1792,0.0,0.0,0.0,0.0,0.0,0.0,0.0,0.0,0.0,0.0,-0.9061,-0.8804,-0.8804,0.0,0.0,0.0,0.0,0.0,-1.0712,-1.2183,-1.3575,-1.3309,-1.4023,-1.4717,-1.4297,0.0,0.0,0.0,0.0,0.0,0.0,0.0,0.0,0.0,0.0,0.0,0.0,0.0,0.0,0.0,0.0,0.0,0.0,0.0,0.0,0.0,0.0,0.0,-3.0218,-3.0947,-3.1022,-3.0193,-3.0457,-3.047,-3.0168,-2.9917,-2.9792,-2.9792,-2.9792,-2.9792,-2.9792,-2.9792,-2.9792,-2.9792,0.0,-2.9792,-2.9792,-2.9792,-2.9792,-2.9792,-2.9792,-2.9792,-2.9792,-2.9792,-2.9792,-2.9792,0.0,0.0,0.0,0.0,0.0,0.0,0.0,0.0,0.0,0.0,0.0,0.0,0.0,0.0,0.0,0.0,0.0,0.0,0.0,0.0,0.0,0.0,0.0,0.0,0.0,0.0,0.0,-1.2657,-1.2657,-1.194,-1.0559,-1.0064,-1.0012,0.0,0.0,0.0,0.0,-1.0712,-1.0813,-1.0813,0.0,0.0,0.0,0.0,0.0,0.0,0.0,0.0,0.0,0.0,0.0,0.0,0.0,0.0,0.0,-0.8804,-0.9666,-1.0618,-1.0762,-1.2028,-1.3272,-1.3338,0.0,-1.5107,-1.5088,0.0,0.0,0.0,0.0,0.0,0.0,0.0,0.0,0.0,0.0,0.0,0.0,0.0,0.0,0.0,0.0,0.0,0.0,0.0,0.0,0.0,0.0,0.0,-2.9829,-3.057,-3.0645,-2.9817,-3.0206,-3.0218,-2.9792,-2.9792,-2.9792,-2.9792,-2.9792,-2.9792,-2.9792,-2.9792,-2.9792,-2.9792,-2.9792,-2.9792,-2.9792,-2.9792,-2.9792,-2.9792,-2.9792,-2.9792,-2.9792,-2.9792,-2.9792,-2.9792,0.0,0.0,0.0,0.0,0.0,0.0,0.0,0.0,0.0,0.0,0.0,0.0,0.0,0.0,0.0,0.0,0.0,0.0,0.0,0.0,0.0,0.0,0.0,0.0,0.0,-1.2559,-1.2559,-1.1864,-1.1864,-1.1166,-0.9865,-0.9814,-0.951,-0.8956,0.0,0.0,0.0,-1.0517,-1.0813,-1.0813,-1.0813,0.0,0.0,0.0,0.0,0.0,0.0,0.0,0.0,0.0,0.0,0.0,0.0,0.0,-0.8804,-0.8804,-0.9316,-1.002,-1.061,-1.1661,-1.2632,-1.287,-1.3584,0.0,-1.5703,0.0,0.0,0.0,0.0,0.0,0.0,0.0,0.0,0.0,0.0,0.0,0.0,0.0,0.0,0.0,0.0,0.0,0.0,0.0,0.0,0.0,0.0,0.0,-2.9792,-2.9867,-2.9867,-2.9792,-2.9829,-2.9829,-2.9792,-2.9792,-2.9792,-2.9792,-2.9792,-2.9792,-2.9792,-2.9792,-2.9792,-2.9792,-2.9792,-2.9792,-2.9792,-2.9792,-2.9792,-2.9792,-2.9792,-2.9792,-2.9792,-2.9792,-2.9792,-2.9792,0.0,0.0,0.0,0.0,0.0,0.0,0.0,0.0,0.0,0.0,0.0,0.0,0.0,0.0,0.0,0.0,0.0,0.0,0.0,0.0,0.0,0.0,0.0,-1.2559,-1.1814,-1.208,-1.1882,-1.1166,-1.0762,-1.0312,-0.9762,-0.8928,0.0,0.0,0.0,0.0,0.0,-0.9249,-0.9562,-0.9562,-0.9562,-0.9562,0.0,0.0,0.0,0.0,0.0,0.0,0.0,0.0,-0.8804,-0.8804,0.0,0.0,-0.8804,-0.8804,-0.9256,-0.9969,-1.0618,-1.161,-1.2626,-1.315,0.0,0.0,0.0,0.0,0.0,0.0,0.0,0.0,0.0,0.0,0.0,0.0,0.0,0.0,0.0,0.0,0.0,0.0,0.0,0.0,0.0,0.0,0.0,0.0,0.0,0.0,0.0,-2.9792,-2.9792,-2.9792,-2.9792,-2.9792,-2.9792,-2.9792,-2.9792,-2.9792,-2.9792,-2.9792,-2.9792,-2.9792,-2.9792,-2.9792,-2.9792,-2.9792,-2.9792,-2.9792,-2.9792,-2.9792,-2.9792,-2.9792,-2.9792,-2.9792,-2.9792,-2.9792,0.0,0.0,0.0,0.0,0.0,0.0,0.0,0.0,0.0,0.0,0.0,0.0,0.0,0.0,0.0,0.0,0.0,0.0,0.0,0.0,0.0,0.0,0.0,-1.2559,-1.1814,-1.1616,-1.1266,-1.0813,-1.0115,-0.971,-0.9465,0.0,0.0,0.0,0.0,0.0,0.0,0.0,-0.8262,-0.848,-0.848,-0.8593,0.0,0.0,0.0,0.0,0.0,0.0,0.0,0.0,0.0,0.0,0.0,0.0,0.0,0.0,-0.9256,-0.9917,-1.0364,-1.1217,-1.2093,0.0,0.0,0.0,0.0,0.0,0.0,0.0,0.0,0.0,0.0,0.0,0.0,0.0,0.0,0.0,0.0,0.0,0.0,0.0,0.0,0.0,0.0,0.0,0.0,0.0,0.0,0.0,0.0,-2.9515,-2.9515,-2.9515,-2.9352,-2.9428,-2.9792,-2.9616,-2.9616,-2.9792,-2.9792,-2.9792,-2.9792,-2.9792,-2.9792,-2.9792,-2.9792,-2.9792,-2.9792,-2.9792,-2.9792,-2.9792,-2.9792,-2.9792,-2.9792,-2.9792,-2.9792,-2.9792,0.0,0.0,0.0,0.0,0.0,0.0,0.0,0.0,0.0,0.0,0.0,0.0,0.0,0.0,0.0,0.0,0.0,0.0,0.0,0.0,0.0,0.0,0.0,-1.2559,-1.1814,-1.1166,-1.0762,-1.0762,-1.0115,-0.9458,-0.8804,0.0,0.0,0.0,0.0,0.0,0.0,0.0,-0.702,-0.767,-0.7723,-0.8156,-0.8804,0.0,0.0,0.0,0.0,0.0,0.0,0.0,-0.8804,0.0,0.0,0.0,0.0,0.0,-0.9256,-0.9814,-0.9814,-1.0269,0.0,0.0,0.0,0.0,0.0,0.0,0.0,0.0,0.0,0.0,0.0,0.0,0.0,0.0,0.0,0.0,0.0,0.0,0.0,0.0,0.0,0.0,0.0,0.0,0.0,0.0,0.0,0.0,0.0,-2.8925,-2.8925,-2.8925,-2.8398,-2.8649,-2.9767,-2.9202,-2.9202,-2.9779,-2.9779,-2.9779,-2.9792,-2.9792,-2.9792,-2.9792,-2.9792,-2.9792,-2.9792,-2.9792,-2.9792,-2.9792,-2.9792,-2.9792,-2.9792,-2.9792,-2.9792,-2.9792,0.0,0.0,0.0,0.0,0.0,0.0,0.0,0.0,0.0,0.0,0.0,0.0,0.0,0.0,0.0,0.0,0.0,0.0,0.0,0.0,0.0,0.0,0.0,0.0,0.0,0.0,-0.9865,-0.9413,-0.9211,-0.9008,0.0,0.0,0.0,-0.7996,0.0,0.0,0.0,0.0,0.0,-0.6966,-0.7509,-0.783,-0.8103,0.0,0.0,0.0,0.0,0.0,0.0,0.0,0.0,0.0,0.0,0.0,0.0,-0.8804,-0.8962,-0.9211,-0.9658,-1.0188,0.0,0.0,0.0,0.0,0.0,0.0,0.0,0.0,0.0,0.0,0.0,0.0,0.0,0.0,0.0,0.0,0.0,0.0,0.0,0.0,0.0,0.0,0.0,0.0,0.0,0.0,0.0,0.0,0.0,-2.8348,-2.8348,-2.8348,-2.8185,-2.826,-2.8599,-2.8436,-2.8436,-2.8612,-2.9001,-2.9402,-2.9792,-2.9792,-2.9792,-2.9792,-2.9792,-2.9792,-2.9792,-2.9792,-2.9792,-2.9792,-2.9792,-2.9792,-2.9792,-2.9792,-2.9792,-2.9792,0.0,0.0,0.0,0.0,0.0,0.0,0.0,0.0,0.0,0.0,0.0,0.0,0.0,0.0,0.0,0.0,0.0,0.0,0.0,0.0,0.0,0.0,0.0,0.0,0.0,-1.021,-0.9458,0.0,0.0,0.0,0.0,0.0,0.0,-0.8103,0.0,0.0,0.0,0.0,-0.6145,-0.6199,-0.6961,-0.745,-0.7723,0.0,0.0,0.0,0.0,0.0,0.0,0.0,0.0,0.0,0.0,0.0,0.0,-0.8804,-0.8804,-0.891,-0.9309,0.0,0.0,0.0,0.0,0.0,0.0,0.0,0.0,0.0,0.0,0.0,0.0,0.0,0.0,0.0,0.0,0.0,0.0,0.0,0.0,0.0,0.0,0.0,0.0,0.0,0.0,0.0,0.0,0.0,0.0,-2.777,-2.777,-2.777,-2.757,-2.7657,-2.8097,-2.7896,-2.7896,-2.8109,-2.8448,-2.8787,-2.9139,-2.9591,-2.9792,-2.9792,-2.9792,-2.9792,-2.9792,-2.9792,-2.9792,-2.9792,-2.9792,-2.9792,-2.9792,-2.9792,-2.9641,-2.9453,0.0,0.0,0.0,0.0,0.0,0.0,0.0,0.0,0.0,0.0,0.0,0.0,0.0,0.0,0.0,0.0,0.0,0.0,0.0,0.0,0.0,0.0,0.0,0.0,0.0,0.0,0.0,0.0,0.0,0.0,0.0,0.0,-0.8804,-0.8752,0.0,-0.7235,0.0,0.0,-0.5433,-0.5487,-0.6199,-0.6912,-0.7503,-0.7557,0.0,0.0,0.0,0.0,0.0,0.0,0.0,0.0,0.0,0.0,-0.8804,-0.8804,-0.8804,-0.8804,0.0,0.0,0.0,0.0,0.0,0.0,0.0,0.0,0.0,0.0,0.0,0.0,0.0,0.0,0.0,0.0,0.0,0.0,0.0,0.0,0.0,0.0,0.0,0.0,0.0,0.0,0.0,0.0,0.0,0.0,0.0,-2.7022,-2.6951,-2.6831,-2.6445,-2.6694,-2.764,-2.7204,-2.7229,-2.7801,-2.7851,-2.7949,-2.8072,-2.9202,-2.9741,-2.9792,-2.9792,-2.9792,-2.9792,-2.9792,-2.9792,-2.9792,-2.9792,-2.9767,-2.9716,-2.9779,-2.9402,-2.8875,0.0,0.0,0.0,0.0,0.0,0.0,0.0,0.0,0.0,0.0,0.0,0.0,0.0,0.0,0.0,0.0,0.0,0.0,0.0,0.0,0.0,0.0,0.0,0.0,0.0,0.0,0.0,0.0,0.0,0.0,0.0,0.0,0.0,-0.8752,0.0,-0.675,0.0,0.0,-0.4736,-0.4787,-0.5437,-0.5814,-0.6032,-0.6637,-0.6912,0.0,0.0,0.0,0.0,0.0,0.0,0.0,-0.8804,-0.8804,-0.8804,-0.8804,-0.8804,-0.8804,0.0,0.0,0.0,0.0,0.0,0.0,0.0,0.0,0.0,0.0,0.0,0.0,0.0,0.0,0.0,0.0,0.0,0.0,0.0,0.0,0.0,0.0,0.0,0.0,0.0,0.0,0.0,0.0,0.0,0.0,-2.4353,-2.4695,-2.4374,-2.3317,-2.3824,-2.41,-2.3999,-2.4204,-2.4774,0.0,-2.6106,-2.6675,-2.7494,-2.8612,-2.9365,-2.9792,-2.9792,-2.9792,-2.9792,-2.9792,-2.9792,-2.9792,-2.9792,-2.9515,-2.9164,-2.9628,-2.9151,-2.8411,0.0,0.0,0.0,0.0,0.0,0.0,0.0,0.0,0.0,0.0,0.0,0.0,0.0,0.0,0.0,0.0,0.0,0.0,0.0,0.0,0.0,0.0,0.0,0.0,0.0,0.0,0.0,0.0,0.0,0.0,0.0,0.0,0.0,-0.8209,0.0,-0.6421,0.0,0.0,-0.4787,-0.457,-0.5218,-0.5487,-0.5542,-0.5923,-0.6312,-0.6534,-0.6199,0.0,0.0,0.0,0.0,0.0,0.0,0.0,-0.8804,-0.8804,-0.8804,-0.8804,0.0,0.0,0.0,0.0,0.0,0.0,0.0,0.0,0.0,0.0,0.0,0.0,0.0,0.0,0.0,0.0,0.0,0.0,0.0,0.0,0.0,0.0,0.0,0.0,0.0,0.0,0.0,0.0,0.0,-2.3568,-2.3501,-2.3346,-2.2949,-2.2195,-2.2621,-2.2767,-2.259,-2.2756,-2.3228,-2.3989,-2.4304,-2.4905,-2.5947,-2.7953,-2.9089,-2.9402,-2.9666,-2.9641,-2.9402,-2.9679,-2.9792,-2.9767,-2.949,-2.9202,-2.8963,-2.9264,-2.8837,-2.8235,0.0,0.0,0.0,0.0,0.0,0.0,0.0,0.0,0.0,0.0,0.0,0.0,0.0,0.0,0.0,0.0,0.0,0.0,0.0,0.0,0.0,0.0,0.0,0.0,0.0,0.0,0.0,0.0,0.0,0.0,0.0,0.0,0.0,-0.745,0.0,0.0,0.0,0.0,0.0,0.0,0.0,-0.5324,-0.5324,-0.5324,-0.571,-0.615,-0.5546,-0.6195,-0.7337,-0.745,0.0,0.0,0.0,0.0,-0.8804,-0.8804,-0.8804,-0.8804,0.0,0.0,0.0,0.0,0.0,0.0,0.0,0.0,0.0,0.0,0.0,0.0,0.0,0.0,0.0,0.0,0.0,0.0,0.0,0.0,0.0,0.0,0.0,0.0,0.0,0.0,0.0,0.0,0.0,-2.208,-2.2624,-2.2105,-2.1685,-2.147,-2.1625,-2.1669,-2.1592,-2.1669,-2.1981,-2.2533,-2.2764,-2.334,-2.4314,-2.7085,-2.845,-2.8562,-2.9213,-2.9227,-2.8825,-2.9302,-2.9503,-2.9453,-2.8976,-2.8737,-2.8662,-2.875,-2.8373,-2.7908,0.0,0.0,0.0,0.0,0.0,0.0,0.0,0.0,0.0,0.0,0.0,0.0,0.0,0.0,0.0,0.0,0.0,0.0,-1.163,0.0,0.0,-0.9953,0.0,0.0,0.0,0.0,0.0,0.0,0.0,0.0,0.0,0.0,0.0,0.0,0.0,0.0,0.0,0.0,0.0,0.0,0.0,0.0,-0.4625,-0.4625,-0.468,-0.4791,-0.468,-0.5113,-0.5869,-0.6529,-0.7235,0.0,0.0,0.0,-0.8804,-0.8804,-0.8804,0.0,0.0,0.0,0.0,0.0,0.0,0.0,0.0,0.0,0.0,0.0,0.0,0.0,0.0,0.0,0.0,0.0,0.0,0.0,0.0,0.0,0.0,0.0,0.0,0.0,0.0,0.0,0.0,0.0,-2.0093,-1.9954,-1.9318,-1.9825,-1.9692,-1.8584,-1.9313,-1.9523,-1.9063,-1.9513,-2.0155,-2.1133,-2.2313,-2.3232,-2.3869,-2.5462,-2.6502,-2.6947,-2.7891,-2.8285,-2.8222,-2.8298,-2.8335,-2.8323,-2.8247,-2.7921,-2.7557,-2.8047,-2.7557,-2.6829,0.0,0.0,0.0,0.0,0.0,0.0,0.0,0.0,0.0,0.0,0.0,0.0,0.0,0.0,0.0,-1.0317,-1.0718,-1.0819,-1.0582,-1.0262,-0.9926,-0.9595,-0.9372,0.0,0.0,0.0,0.0,0.0,0.0,0.0,0.0,-0.6686,-0.6308,0.0,0.0,0.0,0.0,0.0,0.0,0.0,0.0,0.0,0.0,0.0,-0.4412,-0.4355,-0.4433,-0.4948,-0.5542,-0.5869,-0.674,-0.7777,-0.8103,0.0,0.0,0.0,0.0,0.0,0.0,0.0,0.0,0.0,0.0,0.0,0.0,0.0,0.0,0.0,0.0,0.0,0.0,0.0,0.0,0.0,0.0,0.0,0.0,0.0,0.0,0.0,0.0,0.0,0.0,0.0,0.0,0.0,-1.8299,-1.8166,-1.8291,-1.8178,-1.7865,-1.7305,-1.79,-1.8135,-1.7939,-1.8359,-1.8893,-1.9545,-2.0659,-2.1324,-2.1607,-2.3012,-2.4608,-2.6246,-2.7495,-2.7934,-2.767,-2.7984,-2.8109,-2.8072,-2.777,-2.7494,-2.7318,-2.7557,-2.7344,-2.6959,0.0,0.0,0.0,0.0,0.0,0.0,0.0,0.0,0.0,0.0,0.0,0.0,0.0,0.0,0.0,0.0,-1.009,-1.0169,-0.9758,-0.9566,-0.9373,-0.927,-0.8944,-0.8804,0.0,0.0,0.0,0.0,0.0,0.0,-0.6588,-0.5655,-0.5273,0.0,-0.4732,0.0,0.0,0.0,0.0,0.0,0.0,0.0,0.0,0.0,0.0,0.0,-0.4409,-0.4842,-0.5273,-0.5433,-0.6249,-0.723,-0.7563,-0.8103,0.0,0.0,0.0,0.0,0.0,0.0,0.0,0.0,0.0,0.0,0.0,0.0,0.0,0.0,0.0,0.0,0.0,0.0,0.0,0.0,0.0,0.0,0.0,0.0,0.0,0.0,0.0,0.0,0.0,0.0,0.0,0.0,-1.6527,-1.6576,-1.7276,-1.6857,-1.6611,-1.6728,-1.7051,-1.7275,-1.7383,-1.7803,-1.8164,-1.8486,-1.9238,-1.959,-1.96,-2.126,-2.3032,-2.4967,-2.6614,-2.7229,-2.7105,-2.7519,-2.7682,-2.7645,-2.7231,-2.708,-2.708,-2.708,-2.6926,-2.668,0.0,0.0,0.0,0.0,0.0,0.0,0.0,0.0,0.0,0.0,0.0,0.0,-0.7842,-0.8508,-0.9137,-0.976,-1.0032,-0.9947,-0.9264,-0.8763,-0.8561,-0.8823,-0.8798,0.0,-0.8804,0.0,0.0,0.0,0.0,0.0,-0.6588,-0.5171,-0.457,-0.457,-0.4519,-0.4519,-0.4519,0.0,0.0,0.0,0.0,0.0,0.0,0.0,0.0,0.0,0.0,0.0,-0.4625,-0.5269,-0.5542,-0.5869,-0.7283,-0.7723,-0.7883,0.0,0.0,0.0,0.0,0.0,0.0,0.0,0.0,0.0,0.0,0.0,0.0,0.0,0.0,0.0,0.0,0.0,0.0,0.0,0.0,0.0,0.0,0.0,0.0,0.0,0.0,0.0,0.0,0.0,0.0,0.0,-1.4648,-1.5115,-1.5517,-1.5929,-1.6289,-1.6719,-1.6694,-1.6963,-1.7383,-1.7803,-1.8018,-1.8047,-1.8486,-1.8701,-1.8711,-2.0995,-2.2056,-2.2342,-2.4272,-2.5654,-2.6571,-2.6596,-2.6609,-2.6609,-2.6584,-2.6571,-2.6571,-2.6571,-2.5923,-2.5123,0.0,0.0,0.0,0.0,0.0,0.0,0.0,0.0,0.0,0.0,0.0,0.0,0.0,-0.8448,-0.8679,-0.8903,-0.8548,-0.8144,-0.7711,-0.7388,-0.7233,-0.7149,-0.7735,-0.8103,-0.8103,-0.854,0.0,0.0,0.0,-0.6588,-0.6588,-0.5171,-0.4519,-0.4519,-0.4519,-0.4519,-0.4519,-0.4525,0.0,0.0,0.0,0.0,0.0,0.0,0.0,0.0,0.0,0.0,0.0,-0.4787,-0.5164,-0.5597,-0.614,-0.6956,-0.783,0.0,0.0,0.0,0.0,0.0,0.0,0.0,0.0,0.0,0.0,0.0,0.0,0.0,0.0,0.0,0.0,0.0,0.0,0.0,0.0,0.0,0.0,0.0,0.0,0.0,0.0,0.0,0.0,0.0,0.0,0.0,0.0,-1.4434,-1.458,-1.501,-1.5312,-1.5478,-1.6016,-1.665,-1.7373,-1.7529,-1.7744,-1.8018,-1.8437,-1.8562,-1.8652,-2.0323,-2.1424,-2.2058,-2.3327,-2.4481,-2.546,-2.6163,-2.6239,-2.5937,-2.6382,-2.6533,-2.6533,-2.6533,-2.5873,-2.4933,0.0,0.0,0.0,0.0,0.0,0.0,0.0,0.0,0.0,0.0,0.0,0.0,0.0,0.0,-0.7682,-0.7774,-0.7367,-0.6978,-0.6751,-0.6634,-0.6518,-0.6363,-0.6982,-0.7343,-0.7343,-0.8049,0.0,0.0,0.0,0.0,0.0,0.0,-0.4519,-0.4519,-0.4519,-0.4519,0.0,0.0,0.0,-0.4515,0.0,0.0,-0.4066,0.0,0.0,0.0,0.0,0.0,0.0,0.0,0.0,0.0,0.0,0.0,0.0,0.0,0.0,0.0,0.0,0.0,0.0,0.0,0.0,0.0,0.0,0.0,0.0,0.0,0.0,0.0,0.0,0.0,0.0,0.0,0.0,0.0,0.0,0.0,0.0,0.0,0.0,0.0,0.0,0.0,0.0,0.0,0.0,0.0,-1.4068,-1.4404,-1.4697,-1.498,-1.5693,-1.6409,-1.6934,-1.709,-1.7305,-1.7588,-1.7861,-1.793,-1.8008,-1.9305,-2.0243,-2.0918,-2.2124,-2.3478,-2.4883,-2.5611,-2.5787,-2.5636,-2.6013,-2.6289,-2.6452,-2.6094,-2.5358,-2.4337,0.0,0.0,0.0,0.0,0.0,0.0,0.0,0.0,0.0,0.0,0.0,0.0,0.0,0.0,0.0,-0.6568,-0.6588,-0.6588,-0.6588,-0.6534,-0.6534,-0.6534,-0.6534,-0.6588,-0.6588,-0.7289,0.0,0.0,0.0,0.0,0.0,0.0,-0.4519,0.0,-0.4519,-0.4519,-0.4519,0.0,-0.4519,-0.4505,0.0,-0.42,-0.4197,0.0,0.0,0.0,-0.4409,-0.4519,0.0,0.0,0.0,0.0,0.0,0.0,0.0,0.0,0.0,0.0,0.0,0.0,0.0,0.0,0.0,0.0,0.0,0.0,0.0,0.0,0.0,0.0,0.0,0.0,0.0,0.0,0.0,0.0,0.0,0.0,0.0,0.0,0.0,0.0,0.0,0.0,0.0,0.0,-1.2881,-1.3232,-1.4,-1.4068,-1.4467,-1.5371,-1.582,-1.6115,-1.6125,-1.6494,-1.6719,-1.6665,-1.6665,-1.6665,-1.6738,-1.8017,-1.8575,-1.8691,-2.0599,-2.2627,-2.468,-2.473,-2.5043,-2.5548,-2.5519,-2.587,-2.6289,-2.5288,-2.4337,-2.3294,0.0,0.0,0.0,0.0,0.0,0.0,0.0,0.0,0.0,0.0,0.0,0.0,0.0,-0.6493,-0.6518,-0.6583,-0.6091,-0.5814,-0.5814,-0.5332,-0.5062,-0.5062,-0.5546,-0.5814,-0.5814,-0.6529,0.0,0.0,0.0,0.0,0.0,0.0,0.0,0.0,-0.4519,-0.4519,-0.4519,-0.4525,0.0,0.0,-0.4429,-0.4348,0.0,0.0,0.0,0.0,0.0,-0.4519,0.0,0.0,-0.4519,-0.4625,0.0,0.0,0.0,0.0,0.0,0.0,-0.7563,0.0,0.0,0.0,0.0,0.0,0.0,0.0,0.0,0.0,0.0,0.0,0.0,0.0,0.0,0.0,0.0,0.0,0.0,0.0,0.0,0.0,0.0,0.0,0.0,0.0,0.0,0.0,-1.2881,-1.2988,-1.3213,-1.3799,-1.4385,-1.4941,-1.5371,-1.5742,-1.6115,-1.6182,-1.6406,-1.6665,-1.6665,-1.6665,-1.6728,-1.8296,-1.8657,-1.8268,-2.0222,-2.1148,-2.1369,-2.3167,-2.3712,-2.3567,-2.4273,-2.4303,-2.3909,-2.391,-2.3294,-2.2403,0.0,0.0,0.0,0.0,0.0,0.0,0.0,0.0,0.0,0.0,0.0,0.0,0.0,0.0,-0.5719,-0.5719,-0.5332,-0.5058,-0.5058,-0.4732,-0.4519,-0.4519,-0.4897,-0.5058,-0.5058,-0.5764,0.0,0.0,0.0,0.0,0.0,0.0,0.0,0.0,0.0,0.0,0.0,0.0,0.0,0.0,-0.4525,0.0,0.0,-0.4429,-0.4409,0.0,0.0,0.0,-0.4519,-0.4519,-0.4519,0.0,0.0,0.0,0.0,0.0,0.0,0.0,0.0,0.0,0.0,0.0,0.0,0.0,-0.8023,-0.7882,0.0,0.0,0.0,0.0,0.0,0.0,0.0,0.0,0.0,0.0,0.0,0.0,0.0,0.0,0.0,0.0,0.0,-1.2304,-1.2353,-1.2049,-1.2569,-1.2959,-1.3135,-1.3769,-1.4248,-1.4502,-1.4756,-1.5,-1.5254,-1.5254,-1.5478,-1.5918,-1.5918,-1.6016,-1.6191,-1.7305,-1.7811,-1.7733,-1.879,-1.9465,-1.9907,-2.0963,-2.1743,-2.2255,-2.2782,-2.2868,-2.2621,-2.26,-2.2262,-2.1711,0.0,0.0,0.0,0.0,0.0,0.0,0.0,0.0,0.0,0.0,0.0,0.0,0.0,0.0,0.0,-0.4519,-0.4519,-0.4519,-0.4519,-0.4519,-0.4519,-0.4519,-0.4522,-0.4522,-0.4522,-0.5058,0.0,0.0,0.0,0.0,0.0,0.0,0.0,0.0,0.0,0.0,0.0,0.0,0.0,-0.4519,-0.4519,-0.4519,0.0,0.0,-0.4519,0.0,-0.4519,-0.4519,-0.4519,-0.4519,-0.4519,0.0,0.0,0.0,0.0,0.0,-0.5391,0.0,0.0,0.0,0.0,0.0,0.0,0.0,-0.811,-0.7955,-0.7809,0.0,0.0,0.0,0.0,0.0,0.0,0.0,0.0,0.0,0.0,0.0,0.0,0.0,0.0,0.0,-1.0755,-1.134,-1.1466,-1.0864,-1.195,-1.2879,-1.3307,-1.3723,-1.3956,-1.4009,-1.4058,-1.4077,-1.4077,-1.4077,-1.4326,-1.4717,-1.4717,-1.4932,-1.5352,-1.5861,-1.6417,-1.7023,-1.6827,-1.7708,-1.9241,-1.8617,-1.9458,-2.1185,-2.1241,-2.1453,-2.176,-2.1331,-2.1147,-2.1136,-0.424,0.0,0.0,0.0,0.0,0.0,0.0,0.0,0.0,0.0,0.0,0.0,0.0,0.0,0.0,0.0,-0.4519,-0.4519,-0.4519,-0.4525,-0.4477,-0.4477,-0.4484,-0.449,-0.449,-0.4643,0.0,0.0,0.0,0.0,0.0,0.0,0.0,0.0,0.0,0.0,0.0,0.0,0.0,-0.4519,-0.4519,0.0,-0.4519,-0.4519,-0.4519,-0.4519,-0.4519,-0.4519,-0.4519,0.0,-0.4519,-0.4519,0.0,0.0,0.0,0.0,0.0,0.0,0.0,0.0,0.0,0.0,0.0,0.0,-0.837,-0.847,-0.847,0.0,0.0,0.0,0.0,0.0,0.0,0.0,0.0,0.0,0.0,0.0,0.0,0.0,0.0,0.0,-1.0441,-1.0797,-1.0965,-1.0813,-1.1074,-1.146,-1.2081,-1.2544,-1.3044,-1.3572,-1.3902,-1.4077,-1.4077,-1.4077,-1.418,-1.4258,-1.4258,-1.4492,-1.4959,-1.5634,-1.5869,-1.5791,-1.6716,-1.7011,-1.6809,-1.7004,-1.8104,-1.9732,-2.0105,-1.9827,-1.9354,-1.9601,-1.9697,-1.9756,-0.4197,0.0,0.0,0.0,0.0,0.0,0.0,0.0,0.0,0.0,0.0,0.0,0.0,0.0,0.0,0.0,0.0,-0.448,0.0,-0.4484,-0.4144,-0.3408,-0.3355,-0.3357,-0.3357,-0.3352,-0.3747,0.0,0.0,0.0,0.0,0.0,0.0,0.0,0.0,0.0,0.0,0.0,-0.4519,-0.4519,-0.4519,0.0,-0.4519,-0.4519,-0.4519,-0.4519,-0.4519,-0.4519,-0.4519,-0.4519,-0.4519,0.0,0.0,-0.4519,-0.4519,0.0,-0.4732,-0.5058,0.0,0.0,0.0,-0.7074,0.0,0.0,0.0,-0.7961,-0.805,-0.7927,0.0,0.0,0.0,0.0,0.0,0.0,0.0,0.0,0.0,0.0,0.0,0.0,0.0,0.0,-0.9137,-0.9717,-1.0282,-1.0746,-1.0517,-1.061,-1.1266,-1.1861,-1.2282,-1.2645,-1.3176,-1.3506,-1.3506,-1.3506,-1.3613,-1.3818,-1.3818,-1.4043,-1.4463,-1.5099,-1.5477,-1.5664,-1.612,-1.6445,-1.6618,-1.6483,-1.7149,-1.836,-1.8572,-1.8534,-1.8379,-1.8809,-1.8965,-1.9053,-0.3883,0.0,0.0,0.0,0.0,0.0,0.0,0.0,0.0,0.0,0.0,0.0,0.0,0.0,0.0,0.0,0.0,0.0,0.0,0.0,-0.3928,-0.2683,-0.2065,-0.1786,-0.1786,-0.1785,-0.24,0.0,0.0,0.0,0.0,0.0,0.0,0.0,0.0,0.0,0.0,0.0,0.0,-0.4519,0.0,-0.4519,-0.4519,-0.4519,-0.4519,-0.4519,-0.4519,-0.4519,-0.4519,-0.4519,0.0,-0.4519,-0.4519,-0.4519,0.0,0.0,0.0,0.0,0.0,0.0,0.0,0.0,0.0,-0.6704,0.0,0.0,0.0,-0.7751,0.0,0.0,0.0,0.0,0.0,0.0,0.0,0.0,0.0,0.0,0.0,0.0,0.0,0.0,0.0,-0.8678,-0.9539,-1.0295,-0.9879,-0.9917,-1.0559,-1.1266,-1.1665,-1.1814,-1.251,-1.2881,-1.2881,-1.2881,-1.3047,-1.3389,-1.3389,-1.3652,-1.4087,-1.4414,-1.4979,-1.5763,-1.5452,-1.5878,-1.6822,-1.6228,-1.6406,-1.7148,-1.7314,-1.7637,-1.8047,-1.8389,-1.8494,-1.8679,-0.2722,-0.3574,0.0,0.0,0.0,0.0,0.0,0.0,0.0,0.0,0.0,0.0,0.0,0.0,0.0,0.0,0.0,0.0,-0.2456,0.0,0.0,-0.4225,-0.1681,-0.0224,-0.0224,-0.0224,-0.0335,-0.0502,0.0,0.0,0.0,0.0,0.0,0.0,-0.412,0.0,0.0,0.0,-0.4345,0.0,-0.4519,-0.4519,0.0,-0.4519,-0.4519,-0.4519,-0.4519,-0.4519,-0.4519,0.0,-0.4519,-0.4519,0.0,-0.4519,0.0,0.0,0.0,0.0,0.0,0.0,0.0,0.0,-0.6091,0.0,0.0,0.0,-0.6865,-0.7588,0.0,0.0,0.0,0.0,0.0,0.0,0.0,0.0,0.0,0.0,0.0,0.0,0.0,0.0,0.0,-0.8132,-0.8534,-0.8662,-0.8813,-0.9211,-0.9865,-1.0568,-1.1166,-1.1765,-1.251,-1.2881,-1.2881,-1.2881,-1.29,-1.2949,-1.2949,-1.3369,-1.4068,-1.3799,-1.4321,-1.5428,-1.5057,-1.5155,-1.5595,-1.5478,-1.5771,-1.6289,-1.708,-1.7637,-1.8018,-1.8057,-1.832,-1.856,-0.2514,-0.3418,0.0,0.0,0.0,0.0,0.0,0.0,0.0,0.0,0.0,0.0,0.0,0.0,0.0,0.0,0.0,-0.0951,0.0,0.0,0.0,0.0,0.0,0.0,-0.0,-0.0,-0.0,-0.0,-0.0615,0.0,0.0,0.0,0.0,0.0,-0.3938,0.0,-0.4338,0.0,0.0,0.0,0.0,0.0,0.0,-0.4519,-0.4519,-0.4519,-0.4519,-0.4519,-0.4519,0.0,-0.4519,0.0,0.0,0.0,0.0,0.0,0.0,0.0,0.0,0.0,0.0,0.0,0.0,0.0,-0.5873,0.0,-0.6804,0.0,0.0,0.0,0.0,0.0,0.0,0.0,-0.8337,0.0,0.0,0.0,0.0,0.0,0.0,0.0,0.0,0.0,0.0,0.0,-0.8644,-0.891,-0.9211,-1.0218,-1.0914,-1.1216,-1.2304,-1.2881,-1.2881,-1.2881,-1.2881,-1.2881,-1.2881,-1.3066,-1.3408,-1.3477,-1.3936,-1.4678,-1.4756,-1.5029,-1.541,-1.541,-1.5664,-1.6184,-1.6758,-1.7266,-1.7676,-1.792,-1.8125,-1.8191,-0.1843,0.0,0.0,0.0,0.0,0.0,0.0,0.0,0.0,0.0,0.0,0.0,-0.3147,-0.3261,0.0,0.0,0.0,-0.0,0.0,0.0,-0.0,0.0,0.0,0.0,0.0,0.0,-0.0,-0.0,0.0,0.0,0.0,0.0,0.0,0.0,0.0,-0.444,-0.4261,0.0,0.0,-0.4519,-0.4519,-0.4519,-0.4522,-0.4522,-0.4522,-0.4522,-0.4525,-0.4525,-0.4525,-0.4525,-0.4525,0.0,-0.4525,0.0,0.0,0.0,0.0,0.0,-0.4519,0.0,0.0,0.0,0.0,0.0,0.0,0.0,0.0,0.0,0.0,0.0,0.0,0.0,0.0,0.0,0.0,0.0,0.0,0.0,0.0,0.0,0.0,0.0,0.0,0.0,0.0,-0.8643,-0.894,-0.9159,-0.9361,-1.0466,-1.1065,-1.1065,-1.2255,-1.2881,-1.2881,-1.2881,-1.2881,-1.2881,-1.2881,-1.2939,-1.3057,-1.3252,-1.3633,-1.4087,-1.4346,-1.4736,-1.5244,-1.5244,-1.5488,-1.5937,-1.6514,-1.6722,-1.6919,-1.7735,-1.7939,-1.766,-0.0056,-0.2469,0.0,0.0,0.0,0.0,0.0,0.0,0.0,0.0,0.0,0.0,0.0,0.0,0.0,0.0,0.0,-0.0,-0.0,0.0,-0.0,0.0,0.0,-0.0,0.0,0.0,-0.0,-0.0,0.0,0.0,0.0,0.0,0.0,0.0,0.0,-0.4469,-0.446,-0.4264,-0.4334,-0.4519,-0.4519,-0.4525,-0.448,0.0,-0.448,-0.448,-0.449,0.0,0.0,-0.4494,-0.4494,0.0,0.0,0.0,0.0,0.0,0.0,0.0,0.0,0.0,0.0,-0.4519,0.0,0.0,0.0,0.0,-0.4736,0.0,0.0,0.0,0.0,0.0,0.0,-0.8437,0.0,0.0,0.0,0.0,0.0,0.0,0.0,0.0,0.0,0.0,0.0,-0.9305,-0.9634,-1.0064,-1.0712,-1.1416,-1.1765,-1.1765,-1.251,-1.2881,-1.2881,-1.2881,-1.2881,-1.2881,-1.2881,-1.3096,-1.3477,-1.3076,-1.335,-1.4058,-1.3721,-1.4023,-1.4805,-1.4805,-1.5049,-1.5518,-1.6396,-1.6138,-1.5568,-1.7341,-1.7697,-1.709,0.0,0.0,0.0,0.0,0.0,0.0,0.0,-0.2809,0.0,0.0,0.0,0.0,0.0,0.0,-0.0,0.0,0.0,-0.0,-0.0,-0.0,0.0,0.0,0.0,-0.0,0.0,0.0,0.0,-0.0,0.0,0.0,0.0,0.0,0.0,0.0,0.0,-0.3542,0.0,0.0,0.0,0.0,0.0,-0.4477,-0.448,0.0,0.0,-0.2959,-0.2961,-0.2961,0.0,-0.2961,-0.2961,-0.2961,-0.2961,-0.2959,-0.3183,-0.4196,-0.4477,0.0,0.0,0.0,-0.4519,-0.4519,0.0,0.0,0.0,0.0,0.0,0.0,0.0,0.0,0.0,0.0,0.0,-0.8677,0.0,0.0,0.0,0.0,0.0,0.0,0.0,0.0,0.0,0.0,0.0,-0.8735,-0.9829,-1.0364,-1.0167,-1.1216,-1.1814,-1.1814,-1.251,-1.2881,-1.2881,-1.2881,-1.2881,-1.2881,-1.2881,-1.2959,-1.3086,-1.2939,-1.3184,-1.3711,-1.3574,-1.3994,-1.4785,-1.4785,-1.5029,-1.541,-1.5496,-1.5423,-1.542,-1.6628,-1.6587,-1.5745,0.1956,0.0,0.0,0.0,0.0,0.0,0.0,0.0,0.0,0.0,-0.0,0.0,-0.0,0.0,-0.0,0.0,-0.0,-0.0,-0.0,-0.0,0.0,-0.0,-0.0,0.0,0.0,0.0,0.0,0.0,-0.0,-0.0,0.0,0.0,0.0,0.0,0.0,0.0,0.0,0.0,-0.4525,0.0,0.0,-0.4487,0.0,0.0,-0.3869,-0.2854,0.0,-0.1396,-0.1396,-0.1396,-0.1396,-0.1396,-0.1396,-0.1395,-0.1618,-0.2621,-0.3633,-0.4477,-0.4525,-0.4522,0.0,-0.4519,-0.4519,0.0,-0.4519,0.0,0.0,0.0,0.0,0.0,0.0,0.0,0.0,-0.799,-0.8036,0.0,0.0,-0.8084,0.0,0.0,0.0,0.0,0.0,0.0,-0.8866,-0.9235,-1.0187,-1.0821,0.0,0.0,-1.2187,-1.2187,-1.2666,-1.2881,-1.2881,-1.2881,-1.2881,-1.2881,-1.2881,-1.2881,-1.2881,-1.2881,-1.3027,-1.3291,-1.3447,-1.3739,-1.4164,-1.4316,-1.4448,-1.4565,-1.4613,-1.453,-1.4486,-1.5565,-1.5399,-1.4561,0.0,0.0,0.0,0.0,0.3304,0.0,0.0,0.0,0.0176,0.0,0.0177,0.0177,0.0118,0.0057,-0.0,-0.0,-0.0,0.0,-0.0,-0.0,0.0,0.0,-0.0,-0.0,-0.0,0.0,0.0,0.0,-0.0,-0.0,0.0,0.0,0.0,0.0,-0.1619,0.0,-0.4497,-0.4484,-0.4477,-0.4366,-0.449,-0.4504,-0.4514,-0.4514,-0.4399,-0.3884,-0.1009,-0.0,-0.0,-0.0,-0.0,-0.0,-0.0,-0.0,-0.0,-0.0112,-0.2119,-0.4421,-0.448,-0.4525,-0.4519,-0.4519,0.0,0.0,0.0,0.0,-0.4519,0.0,0.0,0.0,0.0,0.0,0.0,0.0,-0.6996,-0.7568,-0.829,0.0,0.0,0.0,0.0,0.0,0.0,-0.8259,-0.9077,-1.0637,-1.0762,0.0,0.0,0.0,-1.2871,-1.2881,-1.2881,-1.2881,-1.2881,-1.2881,-1.2881,-1.2881,-1.2881,-1.2881,-1.2881,-1.2881,-1.2881,-1.29,-1.325,-1.3242,-1.2949,-1.3334,-1.331,-1.3075,-1.372,-1.3427,-1.2848,-1.4102,-1.4167,-1.3528,0.4484,0.4196,0.4027,0.0,0.4144,0.3925,0.0,0.0,0.0,0.0,0.2804,0.293,0.1762,0.065,-0.0,-0.0,-0.0,0.0,0.0,0.0,0.0,-0.0,-0.0,-0.0,-0.0,-0.0,0.0,-0.0,-0.0,0.0,-0.0,0.0,0.0,0.0,0.0,0.0,-0.4507,-0.4497,-0.3863,-0.2903,-0.4045,-0.4511,0.0,0.0,-0.3095,-0.1065,-0.028,-0.0,-0.0,-0.0,-0.0,-0.0,-0.0,-0.0,-0.0224,-0.1339,-0.2174,-0.3067,-0.4187,-0.4519,-0.4519,-0.4519,-0.4519,-0.4519,0.0,0.0,0.0,0.0,0.0,0.0,0.0,0.0,0.0,0.0,0.0,0.0,0.0,0.0,0.0,-0.8427,0.0,0.0,-0.825,-0.8806,-0.942,-0.999,-1.0517,0.0,0.0,0.0,0.0,-1.2881,-1.2881,-1.2881,-1.2881,-1.2881,-1.2881,-1.2881,-1.2881,-1.2881,-1.2881,-1.2881,-1.2881,-1.2881,-1.2457,-1.2486,-1.2877,-1.2513,-1.2597,-1.2989,-1.2797,-1.2423,-1.2136,-1.2713,-1.2809,-1.2592,0.4473,0.0,0.0,0.4529,0.0,0.0,0.4592,0.0,0.0,0.2999,0.3903,0.0,0.332,0.2463,0.1427,0.0112,-0.0,0.0,0.0,0.0,0.0,-0.0,-0.0,-0.0,-0.0,-0.0,0.0,-0.0,0.0,0.0,-0.0,0.0,0.0,0.0,0.0,-0.3256,0.0,-0.4507,-0.3251,-0.1341,-0.2186,0.0,0.0,-0.202,-0.1458,-0.0,-0.0,-0.0,-0.0,-0.0,-0.0,-0.0,-0.0,-0.0,-0.0168,-0.1006,-0.2179,-0.3411,-0.4252,-0.4525,-0.4519,-0.4519,-0.4519,-0.4519,-0.4519,-0.4519,-0.4519,0.0,0.0,0.0,0.0,0.0,0.0,0.0,0.0,0.0,0.0,0.0,0.0,0.0,-0.8564,0.0,-0.8564,-0.9199,-0.9764,-1.0202,0.0,0.0,0.0,0.0,0.0,-1.2881,-1.3057,-1.3066,-1.2881,-1.3066,-1.2899,-1.2403,-1.2403,-1.2246,-1.1999,-1.1999,-1.1999,-1.1959,-1.1751,-1.1746,-1.1919,-1.1736,-1.1776,-1.1956,-1.1906,-1.1937,-1.2078,-1.2238,-1.2305,-1.2305,0.0,0.0,0.0,0.0,0.0,0.0,0.0,0.4621,0.0,0.3362,0.0,0.4783,0.4539,0.4535,0.3368,0.0558,0.0,-0.0,-0.0,-0.0,-0.0,-0.0,-0.0,-0.0,-0.0,-0.0,0.0,0.0,0.0,0.0,0.0,0.0,0.0,0.0,0.0,0.0,0.0,-0.3884,-0.2186,0.0,0.0617,0.2018,0.394,0.1513,0.0448,0.0279,0.0056,-0.0,-0.0,-0.0,-0.0,-0.0,-0.0,-0.0,-0.0,-0.0,-0.1846,-0.3984,-0.4383,-0.448,-0.4522,-0.4522,-0.4522,-0.4522,-0.4522,-0.4519,-0.4519,-0.4519,-0.4519,-0.4519,0.0,0.0,0.0,0.0,0.0,0.0,0.0,0.0,0.0,0.0,0.0,0.0,-0.8804,-0.9309,-0.9961,0.0,0.0,0.0,0.0,0.0,0.0,-1.2881,-1.3232,-1.3271,-1.2969,0.0,-1.283,-1.1895,-1.1742,-1.1366,-1.0813,-1.0813,-1.0813,-1.0838,-1.1151,-1.1043,-1.0701,-1.0982,-1.0927,-1.0675,-1.1209,-1.1764,-1.2251,-1.2285,-1.2305,-1.2305,0.0,0.0,0.0,0.0,0.0,0.4948,0.504,0.4839,0.4716,0.4607,0.4555,0.4588,0.4639,0.4579,0.3758,0.1953,0.0727,0.0,0.0,0.0,0.0,-0.0,-0.0,-0.0,-0.0,-0.0,-0.0,0.0,-0.0,-0.0,-0.0,0.0,0.0,0.0,0.0,0.0,-0.0784,-0.0784,0.0,0.3713,0.3713,0.3254,0.2683,0.3418,0.291,0.1673,0.0447,-0.0,-0.0,-0.0,-0.0,-0.0,-0.0,-0.0,-0.0,-0.0,-0.0391,-0.134,-0.3814,-0.4494,-0.449,-0.449,-0.449,-0.4487,-0.448,-0.4477,-0.4473,-0.4519,-0.4519,-0.4519,-0.4519,0.0,0.0,0.0,0.0,0.0,0.0,0.0,0.0,0.0,0.0,0.0,0.0,0.0,0.0,0.0,0.0,0.0,0.0,0.0,0.0,0.0,-1.2959,0.0,0.0,0.0,-1.2168,-1.2389,-1.143,-1.0914,-1.0813,-1.0813,-1.0813,-1.0771,-1.028,-1.0348,-1.0686,-1.0184,-1.0336,-1.0949,-1.1289,-1.1637,-1.1977,-1.2218,-1.2305,-1.2305,0.0,0.0,0.0,0.0,0.0,0.0,0.0,0.4982,0.0,0.4921,0.4663,0.4519,0.4572,0.4528,0.3869,0.2343,0.0838,-0.0,-0.0,-0.0,-0.0,-0.0,-0.0,0.0,-0.0,-0.0,-0.0,-0.0,-0.0,-0.0,-0.0,0.0,0.0,0.0,0.0,0.0897,0.0,0.0,0.0,0.3365,0.4163,0.4042,0.3463,0.4209,0.4036,0.3294,0.2573,0.1343,-0.0,-0.0,-0.0,-0.0,-0.0,-0.0,-0.0,-0.0,-0.0,-0.0335,-0.1788,-0.274,-0.3302,-0.3302,-0.3302,-0.3299,-0.3297,-0.3916,-0.4487,-0.448,-0.448,-0.4477,-0.4473,-0.4522,0.0,0.0,0.0,0.0,0.0,0.0,0.0,0.0,0.0,0.0,0.0,0.0,0.0,0.0,0.0,0.0,0.0,0.0,0.0,0.0,0.0,0.0,0.0,0.0,0.0,-1.1094,-1.0553,-1.0115,-0.9762,-0.9762,-0.9762,-0.9777,-0.9585,-0.9756,-1.0156,-1.0186,-1.0561,-1.1229,-1.1369,-1.1703,-1.2111,-1.2251,-1.2305,-1.2305,0.0,0.504,0.0,0.0,0.5174,0.0,0.4513,0.4525,0.4674,0.488,0.4636,0.4522,0.4522,0.4487,0.3987,0.2794,0.1063,-0.0,-0.0,-0.0,-0.0,-0.0,0.0617,0.0953,0.0953,0.0654,0.049,0.0,0.049,0.0327,-0.0,0.0,0.0,0.0,0.0,0.0,0.0,0.0,0.3816,0.279,0.4036,0.4487,0.4477,0.4487,0.4484,0.4477,0.4497,0.2745,0.0447,0.0112,-0.0,-0.0,-0.0,-0.0,-0.0,-0.0,-0.0,-0.0,-0.0,-0.0837,-0.173,-0.173,-0.173,-0.173,-0.1729,-0.2907,-0.3987,-0.4039,-0.4039,-0.4092,-0.4425,-0.4473,0.0,0.0,0.0,0.0,0.0,0.0,0.0,0.0,0.0,0.0,0.0,0.0,0.0,0.0,0.0,0.0,0.0,0.0,0.0,0.0,0.0,-1.2295,-1.098,0.0,-1.1264,-0.9971,-0.9695,-0.9309,-0.8811,-0.8871,-0.8898,-0.8918,-0.9212,-0.9499,-0.982,-1.0341,-1.0868,-1.1336,-1.1403,-1.1744,-1.2218,-1.2278,-1.2305,-1.2305,0.0,0.0,0.0,0.0,0.0,0.0,0.0,0.2939,0.335,0.4627,0.4639,0.4477,0.4477,0.4497,0.4455,0.4284,0.1682,-0.0,-0.0,-0.0,-0.0,-0.0,0.2639,0.4058,0.4058,0.2732,0.2003,0.0,0.0,0.1335,-0.0,-0.0,0.0,0.0,0.0,0.0,0.0,0.4504,0.4435,0.4307,0.4425,0.4473,0.4519,0.4522,0.4519,0.4522,0.4477,0.3408,0.1785,0.0447,-0.0,-0.0,-0.0,-0.0,-0.0,-0.0,-0.0,-0.0,-0.0,-0.0112,-0.0224,-0.0224,-0.0224,-0.0224,-0.0223,-0.1341,-0.2406,-0.24,-0.2399,-0.2847,-0.4252,-0.4477,-0.4473,0.0,0.0,0.0,0.0,0.0,0.0,0.0,0.0,0.0,0.0,-0.8804,0.0,0.0,0.0,0.0,0.0,0.0,0.0,-1.0813,0.0,-1.1165,-1.1414,-1.0509,-1.0203,-1.0417,-0.9397,-0.8857,-0.8818,-0.9024,-0.9143,-0.9157,-0.9512,-0.9806,-1.01,-1.0428,-1.0748,-1.1056,-1.1323,-1.1623,-1.1944,-1.2204,-1.2305,-1.2305,0.0,0.0,0.0,0.0,0.0,0.0,0.0,0.2692,0.3202,0.4673,0.4647,0.4147,0.3239,0.3931,0.4514,0.4514,0.1738,0.0784,0.2581,0.1009,0.0392,0.1284,0.3368,0.4511,0.4504,0.3869,0.3583,0.0,0.0,0.3302,0.2685,0.173,0.0,0.0,0.0,0.3644,0.4494,0.4487,0.448,0.4525,0.4525,0.4522,0.4519,0.4519,0.4519,0.4519,0.4477,0.4082,0.3239,0.0837,-0.0,-0.0,-0.0,-0.0,-0.0,-0.0,-0.0,-0.0,-0.0,-0.0,-0.0,-0.0,-0.0,-0.0,-0.0,-0.0448,-0.0896,-0.0895,-0.0894,-0.1338,-0.2845,-0.3858,-0.4477,0.0,0.0,0.0,0.0,0.0,0.0,0.0,0.0,0.0,0.0,0.0,0.0,0.0,0.0,0.0,0.0,0.0,0.0,-0.9614,0.0,-1.0478,-0.991,-0.9829,-0.968,-0.95,-0.9017,-0.8804,-0.8818,-0.905,-0.9376,-0.9773,-0.9893,-1.0114,-1.0408,-1.0701,-1.0989,-1.1283,-1.1577,-1.187,-1.2144,-1.2258,-1.2305,-1.2305,0.524,0.0,0.5185,0.0,0.5333,0.459,0.2254,0.1913,0.2271,0.3332,0.4054,0.4104,0.3021,0.303,0.3203,0.3203,0.2018,0.2244,0.4343,0.2525,0.1566,0.2174,0.3702,0.0,0.449,0.4487,0.4487,0.4487,0.4487,0.0,0.449,0.3413,0.0,0.0,0.2903,0.3463,0.448,0.4477,0.4525,0.4519,0.4519,0.4519,0.4519,0.4519,0.4519,0.4519,0.4525,0.4477,0.4193,0.2063,0.0726,-0.0,-0.0,-0.0,-0.0,-0.0,-0.0,-0.0,-0.0,-0.0,-0.0,-0.0,-0.0,-0.0,-0.0,-0.0,-0.0,-0.0,-0.0,-0.0447,-0.1952,-0.3466,-0.448,-0.4519,0.0,0.0,0.0,0.0,0.0,0.0,-0.7396,-0.7563,-0.8103,0.0,0.0,0.0,0.0,0.0,0.0,0.0,0.0,0.0,0.0,0.0,0.0,-0.9263,-0.9263,-0.8804,-0.8804,-0.8851,-0.8945,-0.9325,-0.9773,-1.0247,-1.0247,-1.0414,-1.0701,-1.0909,-1.1216,-1.1577,-1.179,-1.2044,-1.2305,-1.2305,-1.2305,-1.2305,0.4952,0.5175,0.5301,0.4982,0.5156,0.4172,0.0592,0.0059,0.0058,0.0056,0.2645,0.4468,0.4458,0.185,0.0056,0.0056,0.2751,0.4455,0.4514,0.4445,0.3755,0.0,0.0,0.448,0.448,0.4525,0.4519,0.4519,0.0,0.0,0.448,0.0,0.4497,0.4497,0.4484,0.448,0.448,0.4522,0.4519,0.4519,0.4519,0.4519,0.4519,0.4519,0.4519,0.4519,0.4519,0.4525,0.448,0.4477,0.2454,-0.0,-0.0,-0.0,-0.0,-0.0,-0.0,-0.0,-0.0,-0.0,-0.0,-0.0,-0.0,-0.0,-0.0,-0.0,-0.0,-0.0,-0.0,-0.0448,-0.1952,-0.3471,-0.449,-0.4522,0.0,0.0,0.0,0.0,0.0,0.0,-0.6588,-0.6642,-0.6642,0.0,0.0,0.0,0.0,0.0,0.0,0.0,0.0,-0.8804,-0.8804,0.0,-0.8804,-0.8811,-0.8811,-0.8804,-0.8804,-0.8958,-0.9196,-0.984,-1.0274,-1.0618,-1.0618,-1.0722,-1.0989,-1.0995,-1.1336,-1.1864,-1.187,-1.2044,-1.2305,-1.2305,-1.2305,-1.2305,0.4928,0.4944,0.4683,0.3567,0.418,0.3732,0.047,-0.0,-0.0,-0.0,0.2641,0.4518,0.4514,0.3658,0.3091,0.0,0.297,0.336,0.0,0.4494,0.4262,0.379,0.4249,0.4477,0.4522,0.4519,0.4519,0.4519,0.0,0.0,0.0,0.4525,0.4473,0.4473,0.4525,0.4522,0.4522,0.4519,0.4519,0.4519,0.4519,0.4519,0.4519,0.4519,0.4519,0.4519,0.4519,0.4519,0.4525,0.4477,0.386,0.2685,0.0671,-0.0,-0.0,-0.0,-0.0,-0.0,-0.0,-0.0,-0.0,-0.0,-0.0,-0.0,-0.0,-0.0,-0.0,-0.0,-0.0,-0.0448,-0.1952,-0.3471,-0.449,-0.4522,-0.4519,0.0,0.0,0.0,0.0,0.0,-0.5873,-0.6253,0.0,-0.7128,0.0,0.0,0.0,0.0,0.0,0.0,0.0,0.0,-0.8804,0.0,-0.8804,-0.8804,-0.8911,-0.905,-0.905,-0.9303,-0.984,-1.0033,-1.0281,-1.0631,-1.0768,-1.0909,-1.1022,-1.1423,-1.1703,-1.1891,-1.2084,-1.2218,-1.2305,-1.2305,-1.2305,-1.2305,0.4833,0.4828,0.4302,0.2785,0.2703,0.2201,0.0288,0.0966,0.1682,0.1682,0.2805,0.3875,0.4448,0.4504,0.0,0.4507,0.3641,0.3463,0.4421,0.4484,0.4477,0.4519,0.4525,0.4525,0.4519,0.4519,0.0,0.4519,0.4732,0.4897,0.4897,0.5171,0.5117,0.4897,0.4897,0.4732,0.4519,0.4519,0.4519,0.4519,0.4519,0.4519,0.4519,0.4519,0.4519,0.4519,0.4519,0.4519,0.4519,0.4525,0.4484,0.4098,0.1619,0.0447,-0.0,-0.0,-0.0,-0.0,-0.0,-0.0,-0.0,-0.0,-0.0,-0.0,-0.0,-0.0,-0.0,-0.0,-0.0897,-0.1792,-0.212,-0.3469,-0.4484,-0.4522,-0.4519,-0.4519,-0.4519,0.0,0.0,0.0,0.0,0.0,0.0,-0.6312,-0.6578,0.0,0.0,0.0,0.0,0.0,0.0,-0.8971,-0.9078,0.0,-0.9138,-0.9138,-0.9225,-0.9406,-0.9519,-0.976,-1.012,-1.0234,-1.0381,-1.0631,-1.0755,-1.0895,-1.1029,-1.151,-1.177,-1.1897,-1.2191,-1.2305,-1.2285,-1.2178,-1.2204,-1.2285,0.4691,0.4759,0.0,0.0,0.1061,0.0,0.0112,0.2639,0.4514,0.4511,0.3249,0.2905,0.4324,0.4484,0.4484,0.4494,0.0,0.0,0.0,0.4522,0.4519,0.4519,0.4519,0.4519,0.4519,0.4519,0.4519,0.4519,0.5164,0.5487,0.5542,0.6258,0.6199,0.5487,0.5487,0.5109,0.4519,0.4519,0.4519,0.4519,0.4519,0.4519,0.4519,0.4519,0.4519,0.4519,0.4519,0.4519,0.4519,0.4519,0.4477,0.4209,0.2681,0.1174,-0.0,-0.0,-0.0,-0.0,-0.0,-0.0,-0.0,-0.0,-0.0,-0.0,-0.0,-0.0168,-0.0336,-0.0336,-0.2469,-0.3937,-0.2625,-0.3519,-0.4477,-0.4519,-0.4519,-0.4519,-0.4519,0.0,0.0,0.0,0.0,0.0,0.0,-0.5109,-0.5487,0.0,0.0,0.0,0.0,0.0,-0.9147,-0.9183,-0.9526,-0.9686,-0.9686,-0.9686,-0.9693,-0.9719,-1.0007,-1.0147,-1.016,-1.0454,-1.0645,-1.0624,-1.0692,-1.0795,-1.1049,-1.1356,-1.165,-1.1924,-1.2198,-1.2305,-1.2271,-1.1997,-1.2071,-1.2265,0.0,0.0,0.4458,0.4013,0.1758,0.0391,0.1506,0.3309,0.4511,0.4501,0.4206,0.4082,0.448,0.4473,0.4522,0.4525,0.4522,0.4522,0.4522,0.4519,0.4519,0.4519,0.4519,0.4519,0.4519,0.4519,0.4519,0.4519,0.5164,0.5487,0.5542,0.6258,0.6199,0.5487,0.5487,0.5109,0.4519,0.4519,0.4519,0.4519,0.4519,0.4519,0.4519,0.4519,0.4519,0.4519,0.4519,0.4519,0.4519,0.4519,0.4477,0.4209,0.2681,0.1174,-0.0,-0.0,-0.0,-0.0,-0.0,-0.0,-0.0,-0.0,-0.0,-0.0,-0.0,-0.1794,-0.3429,-0.3429,-0.3084,-0.3019,-0.3802,-0.4252,-0.4477,-0.4519,-0.4519,-0.4519,-0.4519,-0.4519,0.0,0.0,-0.4519,-0.468,-0.5218,-0.4948,-0.5167,0.0,0.0,0.0,0.0,-0.8143,-0.889,-0.919,-0.9526,-0.9686,-0.9686,-0.9686,-0.9793,-1.002,-1.0314,-1.0454,-1.0461,-1.0755,-1.0768,-1.0658,-1.1269,-1.147,-1.1363,-1.1884,-1.2131,-1.2204,-1.2278,-1.2305,-1.2291,-1.2225,-1.2245,-1.2291,0.4782,0.4626,0.4482,0.4485,0.3163,0.2063,0.2174,0.3527,0.4497,0.449,0.448,0.4525,0.4525,0.4522,0.4519,0.4519,0.4519,0.4519,0.4519,0.4519,0.4519,0.4519,0.4519,0.4519,0.4519,0.4519,0.4519,0.4519,0.5496,0.5982,0.6036,0.6745,0.6691,0.5982,0.5651,0.5109,0.4519,0.4519,0.4519,0.4519,0.4519,0.4519,0.4519,0.4519,0.4519,0.4519,0.4519,0.4519,0.4519,0.4525,0.448,0.4327,0.3532,0.1736,-0.0,-0.0,-0.0,-0.0,-0.0,-0.101,-0.2079,-0.2076,-0.1512,-0.1006,-0.1006,-0.2294,-0.3646,-0.4333,-0.3811,-0.3519,-0.4366,-0.4473,-0.4525,-0.4519,-0.4522,-0.4525,-0.4519,-0.4522,0.0,-0.4519,-0.4519,-0.4625,-0.5003,-0.4736,-0.4846,-0.5609,-0.5373,0.0,-0.6335,-0.7245,-0.7923,-0.8405,-0.9137,-0.9528,-0.9528,-0.9899,-1.0167,-1.0321,-1.0481,-1.0624,-1.0624,-1.0722,-1.0708,-1.0658,-1.1202,-1.1376,-1.1276,-1.1864,-1.2104,-1.2118,-1.2251,-1.2225,-1.2104,-1.2104,-1.2017,-1.1924,0.4897,0.4694,0.4556,0.4567,0.4494,0.4082,0.2732,0.3685,0.448,0.4477,0.4525,0.4519,0.4519,0.4519,0.4519,0.4519,0.4519,0.4519,0.4519,0.4519,0.4519,0.4519,0.4519,0.4519,0.4519,0.4519,0.4519,0.4519,0.5823,0.6421,0.6421,0.7182,0.7128,0.6421,0.576,0.5109,0.4519,0.4519,0.4519,0.4519,0.4519,0.4519,0.4519,0.4519,0.4519,0.4519,0.4519,0.4519,0.4522,0.4477,0.4487,0.4501,0.4511,0.2413,-0.0,-0.0,-0.0,-0.0112,-0.0561,-0.2531,-0.4524,-0.4514,-0.3532,-0.2567,-0.2567,-0.2567,-0.2903,-0.4206,-0.4484,-0.4477,-0.4477,-0.4525,-0.4519,-0.4519,-0.4525,-0.4473,-0.4519,0.0,-0.4473,-0.4519,-0.4519,-0.4519,-0.4519,-0.4539,-0.4553,-0.4553,-0.4758,-0.5108,-0.5685,-0.6295,-0.681,-0.7182,-0.8446,-0.9075,-0.9075,-0.9849,-1.0231,-1.0231,-1.0231,-1.0231,-1.0231,-1.0276,-1.027,-1.0251,-1.0509,-1.0691,-1.0837,-1.1484,-1.1799,-1.1897,-1.2191,-1.2151,-1.1931,-1.1884,-1.171,-1.1523,0.5053,0.4845,0.466,0.4731,0.4622,0.4418,0.4184,0.4359,0.4477,0.4522,0.4519,0.4519,0.4519,0.4519,0.4519,0.4519,0.4519,0.4519,0.4519,0.4519,0.4519,0.4519,0.4519,0.4519,0.4519,0.4519,0.4519,0.4519,0.5273,0.5651,0.5706,0.6421,0.6367,0.5651,0.5542,0.5109,0.4519,0.4519,0.4519,0.4519,0.4519,0.4519,0.4519,0.4519,0.4519,0.4519,0.4519,0.4525,0.4477,0.448,0.4494,0.4511,0.4514,0.2413,-0.0,-0.0,-0.0,-0.0561,-0.3098,-0.4123,-0.4514,-0.4501,-0.4327,-0.4154,-0.4154,-0.4147,-0.4196,-0.4425,-0.4473,-0.4522,-0.4522,-0.4519,-0.4519,-0.4519,-0.4519,-0.4519,-0.4519,0.0,-0.4519,-0.4519,-0.4519,-0.4519,-0.4519,-0.4579,-0.4657,-0.4657,-0.4819,-0.502,-0.5178,-0.6006,-0.6233,-0.5712,-0.7363,-0.8221,-0.8221,-0.835,-0.8415,-0.8415,-0.8415,-0.8415,-0.842,-0.8618,-0.8596,-0.8436,-0.8937,-0.9428,-0.9959,-1.056,-1.1215,-1.1897,-1.2191,-1.2271,-1.2204,-1.1957,-1.1837,-1.177,0.4865,0.4735,0.4625,0.4632,0.4573,0.4525,0.4519,0.4522,0.4525,0.4519,0.4519,0.4519,0.4519,0.4519,0.4519,0.4519,0.4519,0.4519,0.4519,0.4519,0.4519,0.4519,0.4519,0.4519,0.4519,0.4519,0.4519,0.4519,0.5164,0.5487,0.5487,0.5873,0.5814,0.5483,0.5109,0.4787,0.4519,0.4519,0.4519,0.4519,0.4519,0.4519,0.4519,0.4519,0.4519,0.4519,0.4525,0.4473,0.448,0.4494,0.4504,0.4228,0.2581,0.1121,-0.0,-0.0,-0.0,-0.0673,-0.3663,-0.4514,-0.4501,-0.449,-0.4484,-0.4477,-0.4477,-0.4473,-0.4525,-0.4525,-0.4522,-0.4519,-0.4519,-0.4519,-0.4519,-0.4519,-0.4522,0.0,0.0,-0.4522,-0.4525,-0.4519,-0.4519,-0.4519,-0.4519,-0.4602,-0.4691,-0.4691,-0.4904,-0.506,-0.5128,-0.5592,-0.5741,-0.5425,-0.6662,-0.7307,-0.7307,-0.7762,-0.8027,-0.8027,-0.8027,-0.8027,-0.8027,-0.8128,-0.8123,-0.8047,-0.8435,-0.8722,-0.9063,-0.9486,-1.0131,-1.0949,-1.1297,-1.1238,-1.1028,-1.1131,-1.0667,-0.9933,0.4694,0.4625,0.4519,0.4522,0.4519,0.4519,0.4519,0.4519,0.4519,0.4519,0.4519,0.4519,0.4519,0.4519,0.4519,0.4519,0.4519,0.4519,0.4519,0.4625,0.468,0.4519,0.4519,0.4519,0.4519,0.4519,0.4519,0.4519,0.5003,0.5273,0.5273,0.5273,0.5273,0.5218,0.4732,0.4519,0.4519,0.4519,0.4519,0.4519,0.4519,0.4519,0.4519,0.4522,0.4522,0.4522,0.448,0.4484,0.449,0.4507,0.4054,0.3035,0.0728,-0.0,-0.0,-0.0,-0.0,-0.056,-0.3256,-0.4216,-0.4494,-0.448,-0.4525,-0.4519,-0.4519,-0.4519,-0.4519,-0.4519,-0.4519,-0.4519,-0.4519,-0.4519,-0.4519,-0.4519,0.0,0.0,0.0,-0.4524,-0.4538,-0.4565,-0.4538,-0.4584,-0.4565,-0.4674,-0.4758,-0.4792,-0.5036,-0.5182,-0.5182,-0.5298,-0.5428,-0.5428,-0.6075,-0.6396,-0.6396,-0.7051,-0.7377,-0.7377,-0.7377,-0.7377,-0.7377,-0.7377,-0.7377,-0.7386,-0.7612,-0.7808,-0.8023,-0.8314,-0.8927,-0.977,-1.0036,-1.0024,-0.9774,-1.0059,-0.9335,-0.8253,0.4766,0.4632,0.4522,0.4477,0.4525,0.4519,0.4519,0.4519,0.4519,0.4519,0.4519,0.4519,0.4519,0.4519,0.4519,0.4519,0.4519,0.4519,0.4519,0.5058,0.5164,0.4515,0.4519,0.4519,0.4519,0.4519,0.4519,0.4519,0.4574,0.457,0.457,0.457,0.457,0.457,0.4515,0.4519,0.4519,0.4519,0.4519,0.4519,0.4519,0.4519,0.4519,0.4473,0.4477,0.448,0.449,0.4501,0.4511,0.4514,0.2639,0.028,0.0056,-0.0,-0.0,-0.0,-0.0,-0.0336,-0.1953,-0.3413,-0.449,-0.4525,-0.4519,-0.4519,-0.4519,-0.4519,-0.4519,-0.4519,-0.4519,-0.4519,-0.4519,-0.4519,-0.4519,-0.4519,0.0,0.0,-0.4653,-0.4674,-0.4728,-0.4867,-0.4762,-0.4728,-0.487,-0.4897,-0.4955,-0.5087,-0.525,-0.5411,-0.5411,-0.5422,-0.5428,-0.5428,-0.5491,-0.5491,-0.5491,-0.5557,-0.5624,-0.5624,-0.5624,-0.5624,-0.5624,-0.5624,-0.5624,-0.5624,-0.5634,-0.6094,-0.6819,-0.7085,-0.7826,-0.8699,-0.885,-0.9045,-0.913,-0.8862,-0.8567,-0.8358,0.4611,0.456,0.4519,0.4522,0.4522,0.4519,0.4519,0.4519,0.4519,0.4519,0.4519,0.4519,0.4519,0.4519,0.4519,0.4519,0.4519,0.4519,0.4519,0.4732,0.4948,0.5113,0.4732,0.4519,0.4519,0.4519,0.4519,0.4519,0.4519,0.4519,0.4519,0.4519,0.4519,0.4519,0.4519,0.4519,0.4519,0.4519,0.4519,0.4519,0.4519,0.4519,0.4519,0.4473,0.448,0.448,0.4501,0.4511,0.4228,0.2357,0.0953,-0.0,-0.0,-0.0,-0.0,-0.0,-0.0,-0.0112,-0.067,-0.2631,-0.4504,-0.4487,-0.4484,-0.4484,-0.4484,-0.4477,-0.4473,-0.4473,-0.4522,-0.4519,-0.4519,-0.4519,-0.4519,-0.4519,0.0,-0.457,-0.467,-0.4691,-0.4748,-0.4901,-0.4867,-0.4857,-0.4914,-0.4999,-0.5074,-0.5128,-0.5274,-0.5428,-0.5428,-0.5428,-0.5428,-0.5428,-0.5428,-0.5428,-0.5428,-0.5428,-0.5428,-0.5428,-0.5428,-0.5428,-0.5428,-0.5428,-0.5428,-0.5428,-0.5428,-0.5557,-0.5885,-0.6018,-0.6611,-0.7536,-0.7794,-0.7897,-0.7979,-0.7851,-0.7377,-0.6732,0.4519,0.4519,0.4519,0.4519,0.4519,0.4519,0.4519,0.4519,0.4519,0.4519,0.4519,0.4519,0.4519,0.4519,0.4519,0.4519,0.4519,0.4519,0.4519,0.4519,0.468,0.5164,0.4732,0.4519,0.4519,0.4519,0.4519,0.4519,0.4519,0.4519,0.4519,0.4519,0.4519,0.4519,0.4519,0.4519,0.4519,0.4519,0.4519,0.4522,0.4522,0.4525,0.4473,0.4487,0.449,0.4379,0.3426,0.3091,0.2751,0.0672,-0.0,-0.0,-0.0,-0.0,-0.0,-0.0,-0.0,-0.0,-0.0,-0.1512,-0.32,-0.3644,-0.3755,-0.3755,-0.3755,-0.3916,-0.4135,-0.4421,-0.4525,-0.4519,-0.4519,-0.4556,-0.4591,-0.4591,-0.4591,-0.4602,-0.4802,-0.4792,-0.4836,-0.5033,-0.5013,-0.5003,-0.5053,-0.5101,-0.5148,-0.5199,-0.5301,-0.5428,-0.5428,-0.5428,-0.5428,-0.5428,-0.5428,-0.5428,-0.5428,-0.5428,-0.5473,-0.5498,-0.5473,-0.5452,-0.5433,-0.5449,-0.5456,-0.543,-0.5449,-0.5456,-0.543,-0.5449,-0.5847,-0.6539,-0.6672,-0.6734,-0.6801,-0.6754,-0.6327,-0.564,0.4519,0.4519,0.4519,0.4519,0.4519,0.4519,0.4519,0.4519,0.4519,0.4519,0.4519,0.4519,0.4519,0.4519,0.4519,0.4519,0.4519,0.4519,0.4519,0.4519,0.4519,0.4519,0.4519,0.4519,0.4519,0.4519,0.4519,0.4519,0.4519,0.4519,0.4519,0.4519,0.4519,0.4519,0.4519,0.4519,0.4519,0.4519,0.4525,0.448,0.448,0.4487,0.4497,0.4507,0.4514,0.4113,0.1065,-0.0,-0.0,-0.0,-0.0,-0.0,-0.0,-0.0,-0.0,-0.0,-0.0,-0.0,-0.0,-0.0,-0.0336,-0.184,-0.2174,-0.2174,-0.2174,-0.2619,-0.3287,-0.4307,-0.4525,-0.4519,-0.4519,-0.4589,-0.4691,-0.4694,-0.4691,-0.4796,-0.5087,-0.5006,-0.5026,-0.5391,-0.5223,-0.5189,-0.5348,-0.5223,-0.5196,-0.5415,-0.5428,-0.5428,-0.5428,-0.5428,-0.5428,-0.5428,-0.5428,-0.5428,-0.5428,-0.5428,-0.5508,-0.5793,-0.5501,-0.544,-0.5583,-0.543,-0.5443,-0.5579,-0.543,-0.5447,-0.5576,-0.5423,-0.545,-0.5576,-0.5423,-0.5457,-0.5593,-0.5589,-0.5494,-0.5452,0.4519,0.4519,0.4519,0.4519,0.4519,0.4519,0.4519,0.4519,0.4519,0.4519,0.4519,0.4519,0.4519,0.4519,0.4519,0.4519,0.4519,0.4519,0.4519,0.4519,0.4519,0.4519,0.4519,0.4519,0.4519,0.4519,0.4519,0.4519,0.4519,0.4519,0.4519,0.4519,0.4519,0.4519,0.4519,0.4519,0.4519,0.4525,0.4477,0.4421,0.3294,0.2903,0.3019,0.4107,0.4514,0.4113,0.1065,-0.0,-0.0,-0.0,-0.0,-0.0,-0.0,-0.0,-0.0,-0.0,-0.0,-0.0,-0.0,-0.0,-0.0112,-0.056,-0.0671,-0.0671,-0.0671,-0.1563,-0.2845,-0.4206,-0.4477,-0.4553,-0.4602,-0.466,-0.4724,-0.4833,-0.4762,-0.4796,-0.5087,-0.4914,-0.4908,-0.538,-0.5223,-0.5189,-0.5348,-0.5318,-0.5311,-0.5425,-0.5428,-0.5428,-0.5428,-0.5428,-0.5428,-0.5428,-0.5428,-0.5413,-0.5521,-0.5416,-0.5473,-0.5491,-0.547,-0.5452,-0.543,-0.5449,-0.5452,-0.5426,-0.5449,-0.5456,-0.5426,-0.5449,-0.545,-0.5586,-0.5538,-0.561,-0.5725,-0.5627,-0.5562,-0.5511,0.4519,0.4519,0.4519,0.4519,0.4732,0.4893,0.4893,0.5117,0.5336,0.5336,0.5336,0.5226,0.4952,0.4893,0.4787,0.4515,0.4519,0.4519,0.4519,0.4519,0.4519,0.4519,0.4519,0.4519,0.4519,0.4519,0.4519,0.4519,0.4519,0.4519,0.4519,0.4519,0.4519,0.4519,0.4519,0.4519,0.4519,0.4473,0.4141,0.3577,0.3246,0.2404,0.1453,0.2354,0.2695,0.2469,0.0673,-0.0,-0.0,-0.0,-0.0,-0.0,-0.0,-0.0,-0.0,-0.0,-0.0,-0.0,-0.0,-0.0,-0.0,-0.0,-0.0,-0.0,-0.0,-0.1118,-0.2625,-0.4209,-0.4477,-0.4567,-0.4663,-0.4741,-0.483,-0.4979,-0.4925,-0.4948,-0.5189,-0.5016,-0.4989,-0.5387,-0.5277,-0.5257,-0.5418,-0.5428,-0.5428,-0.5428,-0.5428,-0.5428,-0.5428,-0.5428,-0.5428,-0.5428,-0.5428,-0.5473,-0.5498,-0.5406,-0.542,-0.5535,-0.5416,-0.5423,-0.5532,-0.548,-0.5426,-0.5528,-0.5413,-0.5396,-0.5447,-0.5452,-0.5416,-0.5501,-0.5501,-0.5552,-0.5616,-0.5532,-0.5501,-0.5488,0.457,0.457,0.4625,0.468,0.5218,0.5597,0.5597,0.6145,0.6588,0.6588,0.6588,0.6312,0.5597,0.5487,0.5218,0.457,0.4519,0.4519,0.4519,0.4519,0.4519,0.4519,0.4519,0.4519,0.4519,0.4519,0.4519,0.4519,0.4519,0.4519,0.4519,0.4519,0.4519,0.4519,0.4519,0.4519,0.4519,0.4473,0.3633,0.2399,0.3593,0.2469,-0.0,-0.0,-0.0,-0.0,-0.0,-0.0,-0.0,-0.0,-0.0,-0.0,-0.0,-0.0,-0.0,-0.0,-0.0,-0.0,-0.0,-0.0,-0.0,-0.0,-0.0,-0.0,-0.0,-0.1118,-0.2627,-0.4225,-0.4501,-0.4587,-0.4701,-0.4843,-0.4986,-0.5128,-0.5138,-0.5182,-0.5342,-0.5216,-0.5172,-0.5342,-0.5415,-0.5411,-0.5425,-0.5428,-0.5428,-0.5428,-0.5428,-0.5428,-0.5428,-0.5428,-0.5428,-0.5428,-0.5428,-0.5428,-0.5428,-0.5428,-0.5498,-0.5759,-0.5491,-0.5501,-0.5752,-0.5484,-0.5508,-0.5745,-0.5477,-0.544,-0.5559,-0.542,-0.5428,-0.5428,-0.5428,-0.5428,-0.5428,-0.5428,-0.5428,-0.5428,0.5164,0.5273,0.5492,0.6041,0.6258,0.6367,0.6367,0.648,0.6588,0.6588,0.6588,0.6312,0.5597,0.5487,0.5218,0.457,0.4519,0.4519,0.4519,0.4519,0.4519,0.4519,0.4519,0.4519,0.4519,0.4519,0.4519,0.4519,0.4519,0.4519,0.4519,0.4519,0.4519,0.4519,0.4519,0.4519,0.4519,0.4473,0.3855,0.2728,0.1451,0.0559,-0.0,-0.0,-0.0,-0.0,-0.0,-0.0,-0.0,-0.0,-0.0,-0.0,-0.0,-0.0,-0.0,-0.0,-0.0,-0.0,-0.0,-0.0,-0.0,-0.0,-0.0,-0.0,-0.0,-0.1118,-0.2701,-0.4474,-0.4718,-0.4721,-0.4986,-0.506,-0.5135,-0.5287,-0.5209,-0.5182,-0.5342,-0.5131,-0.5064,-0.5394,-0.5254,-0.5226,-0.5415,-0.5428,-0.5432,-0.5372,-0.5432,-0.5428,-0.5428,-0.5428,-0.5428,-0.5428,-0.5428,-0.5428,-0.5428,-0.5428,-0.5459,-0.5457,-0.5459,-0.5463,-0.5454,-0.5459,-0.5463,-0.5454,-0.5456,-0.5449,-0.541,-0.5442,-0.5428,-0.5428,-0.5428,-0.5428,-0.5428,-0.5428,-0.5428,-0.5428,0.5873,0.6036,0.6145,0.6534,0.6912,0.7128,0.7128,0.7402,0.767,0.767,0.7343,0.6853,0.6091,0.5706,0.5218,0.457,0.4519,0.4519,0.4519,0.4519,0.4519,0.4519,0.4519,0.4519,0.4519,0.4519,0.4519,0.4519,0.4519,0.4519,0.4519,0.4519,0.4519,0.4519,0.4519,0.4519,0.4519,0.4473,0.4193,0.3627,0.2573,0.1285,-0.0,-0.0,-0.0,-0.0,-0.0,-0.0,-0.0,-0.0,-0.0,-0.0,-0.0,-0.0,-0.0,-0.0,-0.0,-0.0,-0.0,-0.0,-0.0,-0.0,-0.0,-0.0,-0.0,-0.0622,-0.1838,-0.441,-0.489,-0.4937,-0.5091,-0.5131,-0.5182,-0.5335,-0.5294,-0.527,-0.5418,-0.523,-0.5189,-0.5411,-0.5291,-0.5274,-0.5362,-0.4622,-0.4489,-0.5309,-0.5372,-0.5432,-0.5428,-0.5428,-0.5463,-0.5467,-0.5399,-0.543,-0.5569,-0.5433,-0.5433,-0.5572,-0.5501,-0.5504,-0.5569,-0.5501,-0.5471,-0.5467,-0.5459,-0.5428,-0.5428,-0.5428,-0.5428,-0.5428,-0.5428,-0.5428,-0.5428,-0.5428,-0.5428,-0.5408,0.6642,0.6804,0.6804,0.6966,0.7509,0.7883,0.7883,0.8427,0.8752,0.8646,0.8103,0.7343,0.6529,0.5764,0.5109,0.4574,0.4519,0.4519,0.4519,0.4519,0.4519,0.4519,0.4519,0.4519,0.4519,0.4519,0.4519,0.4519,0.4519,0.4519,0.4519,0.4519,0.4519,0.4519,0.4519,0.4519,0.4519,0.4473,0.4477,0.4477,0.4501,0.2856,0.0335,0.0112,-0.0,-0.0,-0.0,-0.0,-0.0,-0.0,-0.0,-0.0,-0.0,-0.0,-0.0,-0.0,-0.0,-0.0,-0.0,-0.0,-0.0,-0.0,-0.0,-0.0,-0.0,-0.0,-0.0764,-0.3497,-0.4629,-0.514,-0.5148,-0.5172,-0.5213,-0.5342,-0.5428,-0.5428,-0.5428,-0.5428,-0.5432,-0.5432,-0.5432,-0.5372,-0.5382,-0.3887,-0.3416,-0.4834,-0.5239,-0.5382,-0.5399,-0.5442,-0.5443,-0.562,-0.5454,-0.5491,-0.5762,-0.5498,-0.5498,-0.5766,-0.5671,-0.5688,-0.5796,-0.5654,-0.5589,-0.5583,-0.543,-0.5428,-0.5428,-0.5428,-0.5428,-0.5428,-0.5428,-0.5428,-0.5425,-0.5332,-0.5321,-0.5284,0.7396,0.7563,0.7777,0.8374,0.8593,0.8646,0.8646,0.8752,0.8586,0.7943,0.7777,0.7176,0.5814,0.5058,0.4625,0.4519,0.4519,0.4519,0.4519,0.4519,0.4519,0.4519,0.4519,0.4519,0.4519,0.4519,0.4519,0.4519,0.4519,0.4519,0.4519,0.4519,0.4519,0.4519,0.4519,0.4519,0.4519,0.4519,0.4519,0.4522,0.448,0.3466,0.1785,0.0502,-0.0,-0.0,-0.0,-0.0,-0.0,-0.0,-0.0,-0.0,-0.0,-0.0,-0.0,-0.0,-0.0,-0.0,-0.0,-0.0,-0.0,-0.0,-0.0,-0.0,-0.0,-0.0,-0.0118,-0.0547,-0.3001,-0.5165,-0.5318,-0.5335,-0.5338,-0.5425,-0.5428,-0.5428,-0.5428,-0.5369,-0.5376,-0.5376,-0.5386,-0.5396,-0.5406,-0.4231,-0.3345,-0.308,-0.4489,-0.542,-0.5552,-0.5433,-0.5488,-0.5766,-0.5504,-0.5443,-0.5616,-0.5447,-0.5447,-0.562,-0.5725,-0.5783,-0.5796,-0.5654,-0.5589,-0.5583,-0.543,-0.5428,-0.5428,-0.5428,-0.5428,-0.5428,-0.5428,-0.5428,-0.5411,-0.5209,-0.5162,-0.5138,0.8156,0.8315,0.8427,0.8752,0.8804,0.8804,0.8804,0.8804,0.8533,0.7777,0.7343,0.6691,0.5597,0.4893,0.4519,0.4519,0.4519,0.4519,0.4519,0.4519,0.4519,0.4519,0.4519,0.4519,0.4519,0.4519,0.4519,0.4519,0.4519,0.4519,0.4519,0.4519,0.4519,0.4519,0.4519,0.4519,0.4519,0.4519,0.4519,0.4519,0.4473,0.4082,0.3239,0.0892,-0.0,-0.0,-0.0,-0.0,-0.0,-0.0,-0.0,-0.0,-0.0,-0.0,-0.0,-0.0,-0.0,-0.0,-0.0,-0.0,-0.0,-0.0,-0.0,-0.0,-0.0,-0.0,-0.0,-0.0,-0.1195,-0.2916,-0.5011,-0.5379,-0.5379,-0.5372,-0.5376,-0.5379,-0.5379,-0.5386,-0.5046,-0.4023,-0.4776,-0.5399,-0.541,-0.3086,-0.2342,-0.4102,-0.4916,-0.5416,-0.5477,-0.555,-0.5542,-0.5544,-0.5477,-0.5471,-0.5705,-0.5477,-0.5521,-0.5833,-0.5742,-0.5732,-0.58,-0.5827,-0.5745,-0.5586,-0.5518,-0.544,-0.5428,-0.5428,-0.5428,-0.5418,-0.5267,-0.5233,-0.5213,-0.5067,-0.5118,-0.5203]},{"header":{"parameterUnit":"m.s-1","parameterCategory":1,"la1":30.6,"la2":28.766,"lo1":-90.7593,"lo2":-88.6598,"dy":0.0162,"dx":0.0183,"nx":116,"ny":114,"refTime":"2023-06-28T12:00:00:Z","depth":0,"parameterNumber":3,"parameterNumberName":"V-component_of_WINDS"},"data":[0.0,0.0,0.0,0.0,0.0,0.0,0.0,0.0,0.0,0.0,0.0,0.0,0.0,0.0,0.0,0.0,0.0,0.0,0.0,0.0,0.0,0.0,0.0,0.0,0.0,0.0,0.0,0.0,0.0,0.0,0.0,0.0,0.0,0.0,0.0,0.0,0.0,0.0,0.0,0.0,0.0,0.0,0.0,0.0,0.0,0.0,0.0,0.0,0.0,0.0,0.0,0.0,0.0,0.0,0.0,0.0,0.0,0.0,0.0,0.0,0.0,0.0,0.0,0.0,0.0,0.0,0.0,0.0,0.0,0.0,0.0,0.0,0.0,0.0,0.0,0.0,0.0,0.0,0.0,0.0,0.0,0.0,0.0,0.0,0.0,0.0,0.0,0.0,0.0,0.0,0.0,0.0,0.0,0.0,0.0,0.0,0.0,0.0,0.0,0.0,0.0,0.0,0.0,0.0,0.0,0.0,0.0,0.0,0.0,0.0,0.0,0.0,0.0,0.0,0.0,0.0,0.0,0.0,0.0,0.0,0.0,0.0,0.0,0.0,0.0,0.0,0.0,0.0,0.0,0.0,0.0,0.0,0.0,0.0,0.0,0.0,0.0,0.0,0.0,0.0,0.0,0.0,0.0,0.0,0.0,0.0,0.0,0.0,0.0,0.0,0.0,0.0,0.0,0.0,0.0,0.0,0.0,0.0,0.0,0.0,0.0,0.0,0.0,0.0,0.0,0.0,0.0,0.0,0.0,0.0,0.0,0.0,0.0,0.0,0.0,0.0,0.0,0.0,0.0,0.0,0.0,0.0,0.0,0.0,0.0,0.0,0.0,0.0,0.0,0.0,0.0,0.0,0.0,0.0,0.0,0.0,0.0,0.0,0.0,0.0,0.0,0.0,0.0,0.0,0.0,0.0,0.0,0.0,0.0,0.0,0.0,0.0,0.0,0.0,0.0,0.0,0.0,0.0,0.0,0.0,0.0,0.0,0.0,0.0,0.0,0.0,0.0,0.0,0.0,0.0,0.0,0.0,0.0,0.0,0.0,0.0,0.0,0.0,0.0,0.0,0.0,0.0,0.0,0.0,0.0,0.0,0.0,0.0,0.0,0.0,0.0,0.0,0.0,0.0,0.0,0.0,0.0,0.0,0.0,0.0,0.0,0.0,0.0,0.0,0.0,0.0,0.0,0.0,0.0,0.0,0.0,0.0,0.0,0.0,0.0,0.0,0.0,0.0,0.0,0.0,0.0,0.0,0.0,0.0,0.0,0.0,0.0,0.0,0.0,0.0,0.0,0.0,0.0,0.0,0.0,0.0,0.0,0.0,0.0,0.0,0.0,0.0,0.0,0.0,0.0,0.0,0.0,0.0,0.0,0.0,0.0,0.0,0.0,0.0,0.0,0.0,0.0,0.0,0.0,0.0,0.0,0.0,0.0,0.0,0.0,0.0,0.0,0.0,0.0,0.0,0.0,0.0,0.0,0.0,0.0,0.0,0.0,0.0,0.0,0.0,0.0,0.0,0.0,0.0,0.0,0.0,0.0,0.0,0.0,0.0,0.0,0.0,0.0,0.0,0.0,0.0,0.0,0.0,0.0,0.0,0.0,0.0,0.0,0.0,0.0,0.0,0.0,0.0,0.0,0.0,0.0,0.0,0.0,0.0,0.0,0.0,0.0,0.0,0.0,0.0,0.0,0.0,0.0,0.0,0.0,0.0,0.0,0.0,0.0,0.0,0.0,0.0,0.0,0.0,0.0,0.0,0.0,0.0,0.0,0.0,0.0,0.0,0.0,0.0,0.0,0.0,0.0,0.0,0.0,0.0,0.0,0.0,0.0,0.0,0.0,0.0,0.0,0.0,0.0,0.0,0.0,0.0,0.0,0.0,0.0,0.0,0.0,0.0,0.0,0.0,0.0,0.0,0.0,0.0,0.0,0.0,0.0,0.0,0.0,0.0,0.0,0.0,0.0,0.0,0.0,0.0,0.0,0.0,0.0,0.0,0.0,0.0,0.0,0.0,0.0,0.0,0.0,0.0,0.0,0.0,0.0,0.0,0.0,0.0,0.0,0.0,0.0,0.0,0.0,0.0,0.0,0.0,0.0,0.0,0.0,0.0,0.0,0.0,0.0,0.0,0.0,0.0,0.0,0.0,0.0,0.0,0.0,0.0,0.0,0.0,0.0,0.0,0.0,0.0,0.0,0.0,0.0,0.0,0.0,0.0,0.0,0.0,0.0,0.0,0.0,0.0,0.0,0.0,0.0,0.0,0.0,0.0,0.0,0.0,0.0,0.0,0.0,0.0,0.0,0.0,0.0,0.0,0.0,0.0,0.0,0.0,0.0,0.0,0.0,0.0,0.0,0.0,0.0,0.0,0.0,0.0,0.0,0.0,0.0,0.0,0.0,0.0,0.0,0.0,0.0,0.0,0.0,0.0,0.0,0.0,0.0,0.0,0.0,0.0,0.0,0.0,0.0,0.0,0.0,0.0,0.0,0.0,0.0,0.0,0.0,0.0,0.0,0.0,0.0,0.0,0.0,0.0,0.0,0.0,0.0,0.0,0.0,0.0,0.0,0.0,0.0,0.0,0.0,0.0,0.0,0.0,0.0,0.0,0.0,0.0,0.0,0.0,0.0,0.0,0.0,0.0,0.0,0.0,0.0,0.0,0.0,0.0,0.0,0.0,0.0,0.0,0.0,0.0,0.0,0.0,0.0,0.0,0.0,0.0,0.0,0.0,0.0,0.0,0.0,0.0,0.0,0.0,0.0,0.0,0.0,0.0,0.0,0.0,0.0,0.0,0.0,0.0,0.0,0.0,0.0,0.0,0.0,0.0,0.0,0.0,0.0,0.0,0.0,0.0,0.0,0.0,0.0,0.0,0.0,0.0,0.0,0.0,0.0,0.0,0.0,0.0,0.0,0.0,0.0,0.0,0.0,0.0,0.0,0.0,0.0,0.0,0.0,0.0,0.0,0.0,0.0,0.0,0.0,0.0,0.0,0.0,0.0,0.0,0.0,0.0,0.0,0.0,0.0,0.0,0.0,0.0,0.0,0.0,0.0,0.0,0.0,0.0,0.0,0.0,0.0,0.0,0.0,0.0,0.0,0.0,0.0,0.0,0.0,0.0,0.0,0.0,0.0,0.0,0.0,0.0,0.0,0.0,0.0,0.0,0.0,0.0,0.0,0.0,0.0,0.0,0.0,0.0,0.0,0.0,0.0,0.0,0.0,0.0,0.0,0.0,0.0,0.0,0.0,0.0,0.0,0.0,0.0,0.0,0.0,0.0,0.0,0.0,0.0,0.0,0.0,0.0,0.0,0.0,0.0,0.0,0.0,0.0,0.0,0.0,0.0,0.0,0.0,0.0,0.0,0.0,0.0,0.0,0.0,0.0,0.0,0.0,0.0,0.0,0.0,0.0,0.0,0.0,0.0,0.0,0.0,0.0,0.0,0.0,0.0,0.0,0.0,0.0,0.0,0.0,0.0,0.0,0.0,0.0,0.0,0.0,0.0,0.0,0.0,0.0,0.0,0.0,0.0,0.0,0.0,0.0,0.0,0.0,0.0,0.0,0.0,0.0,0.0,0.0,0.0,0.0,0.0,0.0,0.0,0.0,0.0,0.0,0.0,0.0,0.0,0.0,0.0,0.0,0.0,0.0,0.0,0.0,0.0,0.0,0.0,0.0,0.0,0.0,0.0,0.0,0.0,0.0,0.0,0.0,0.0,0.0,0.0,0.0,0.0,0.0,0.0,0.0,0.0,0.0,0.0,0.0,0.0,0.0,0.0,0.0,0.0,0.0,0.0,0.0,0.0,0.0,0.0,0.0,0.0,0.0,0.0,0.0,0.0,0.0,0.0,0.0,0.0,0.0,0.0,0.0,0.0,0.0,0.0,0.0,0.0,0.0,0.0,0.0,0.0,0.0,0.0,0.0,0.0,0.0,0.0,0.0,0.0,0.0,0.0,0.0,0.0,0.0,0.0,0.0,0.0,0.0,0.0,0.0,0.0,0.0,0.0,0.0,0.0,0.0,0.0,0.0,0.0,0.0,0.0,0.0,0.0,0.0,0.0,0.0,0.0,0.0,0.0,0.0,0.0,0.0,0.0,0.0,0.0,0.0,0.0,0.0,0.0,0.0,0.0,0.0,0.0,0.0,0.0,0.0,0.0,0.0,0.0,0.0,0.0,0.0,0.0,0.0,0.0,0.0,0.0,0.0,0.0,0.0,0.0,0.0,0.0,0.0,0.0,0.0,0.0,0.0,0.0,0.0,0.0,0.0,0.0,0.0,0.0,0.0,0.0,0.0,0.0,0.0,0.0,0.0,0.0,0.0,0.0,0.0,0.0,0.0,0.0,0.0,0.0,0.0,0.0,0.0,0.0,0.0,0.0,0.0,0.0,0.0,0.0,0.0,0.0,0.0,0.0,0.0,0.0,0.0,0.0,0.0,0.0,0.0,0.0,0.0,0.0,0.0,0.0,0.0,0.0,0.0,0.0,0.0,0.0,0.0,0.0,0.0,0.0,0.0,0.0,0.0,0.0,0.0,0.0,0.0,0.0,0.0,0.0,0.0,0.0,0.0,0.0,0.0,0.0,0.0,0.0,0.0,0.0,0.0,0.0,0.0,0.0,0.0,0.0,0.0,0.0,0.0,0.0,0.0,0.0,0.0,0.0,0.0,0.0,0.0,0.0,0.0,0.0,0.0,0.0,0.0,0.0,0.0,0.0,0.0,0.0,0.0,0.0,0.0,0.0,0.0,0.0,0.0,0.0,0.0,0.0,0.0,0.0,0.0,0.0,0.0,0.0,0.0,0.0,0.0,0.0,0.0,0.0,0.0,0.0,0.0,0.0,0.0,0.0,0.0,0.0,0.0,0.0,0.0,0.0,0.0,0.0,0.0,0.0,0.0,0.0,0.0,0.0,0.0,0.0,0.0,0.0,0.0,0.0,0.0,0.0,0.0,0.0,0.0,0.0,0.0,0.0,0.0,0.0,0.0,0.0,0.0,0.0,0.0,0.0,0.0,0.0,0.0,0.0,0.0,0.0,0.0,0.0,0.0,0.0,0.0,0.0,0.0,0.0,0.0,0.0,0.0,0.0,0.0,0.0,0.0,0.0,0.0,0.0,0.0,0.0,0.0,0.0,0.0,0.0,0.0,0.0,0.0,0.0,0.0,0.0,0.0,0.0,0.0,0.0,0.0,0.0,0.0,0.0,0.0,0.0,0.0,0.0,0.0,0.0,0.0,0.0,0.0,0.0,0.0,0.0,0.0,0.0,0.0,0.0,0.0,0.0,0.0,0.0,0.0,0.0,0.0,0.0,0.0,0.0,0.0,0.0,0.0,0.0,0.0,0.0,0.0,0.0,0.0,0.0,0.0,0.0,0.0,0.0,0.0,0.0,0.0,0.0,0.0,0.0,0.0,0.0,0.0,0.0,0.0,0.0,0.0,0.0,0.0,0.0,0.0,0.0,0.0,0.0,0.0,0.0,0.0,0.0,0.0,0.0,0.0,0.0,0.0,0.0,0.0,0.0,0.0,0.0,0.0,0.0,0.0,0.0,0.0,0.0,0.0,0.0,0.0,0.0,0.0,0.0,0.0,0.0,0.0,0.0,0.0,0.0,0.0,0.0,0.0,0.0,0.0,0.0,0.0,0.0,0.0,0.0,0.0,0.0,0.0,0.0,0.0,0.0,0.0,0.0,0.0,0.0,0.0,0.0,0.0,0.0,0.0,0.0,0.0,0.0,0.0,0.0,0.0,0.0,0.0,0.0,0.0,0.0,0.0,0.0,0.0,0.0,0.0,0.0,0.0,0.0,0.0,0.0,0.0,0.0,0.0,0.0,0.0,0.0,0.0,0.0,0.0,0.0,0.0,0.0,0.0,0.0,0.0,0.0,0.0,0.0,0.0,0.0,0.0,0.0,0.0,0.0,0.0,0.0,0.0,0.0,0.0,0.0,0.0,0.0,0.0,0.0,0.0,0.0,0.0,0.0,0.0,0.0,0.0,0.0,0.0,0.0,0.0,0.0,0.0,0.0,0.0,0.0,0.0,0.0,0.0,0.0,0.0,0.0,0.0,0.0,0.0,0.0,0.0,0.0,0.0,0.0,0.0,0.0,0.0,-0.8916,0.0,0.0,0.0,0.0,0.0,0.0,0.0,0.0,0.0,0.0,0.0,0.0,0.0,0.0,0.0,0.0,0.0,0.0,0.0,0.0,0.0,0.0,0.0,0.0,0.0,0.0,0.0,0.0,0.0,0.0,0.0,0.0,0.0,0.0,0.0,0.0,0.0,0.0,0.0,0.0,0.0,0.0,0.0,0.0,0.0,0.0,0.0,0.0,0.0,0.0,0.0,0.0,0.0,0.0,0.0,0.0,0.0,0.0,0.0,0.0,0.0,0.0,0.0,0.0,0.0,0.0,0.0,0.0,0.0,0.0,0.0,0.0,0.0,0.0,0.0,0.0,0.0,0.0,0.0,0.0,0.0,0.0,0.0,0.0,0.0,0.0,0.0,0.0,0.0,0.0,0.0,0.0,0.0,0.0,0.0,0.0,0.0,0.0,0.0,0.0,0.0,0.0,0.0,0.0,0.0,0.0,0.0,0.0,0.0,0.0,0.0,0.0,0.0,0.0,0.0,0.0,-0.9465,0.0,0.0,0.0,0.0,0.0,0.0,0.0,0.0,0.0,0.0,0.0,0.0,0.0,0.0,0.0,0.0,0.0,0.0,0.0,0.0,0.0,0.0,0.0,0.0,0.0,0.0,0.0,0.0,0.0,0.0,0.0,0.0,0.0,0.0,0.0,0.0,0.0,0.0,0.0,0.0,0.0,0.0,0.0,0.0,0.0,0.0,0.0,0.0,0.0,0.0,0.0,0.0,0.0,0.0,0.0,0.0,0.0,0.0,0.0,0.0,0.0,0.0,0.0,0.0,0.0,0.0,0.0,0.0,0.0,0.0,0.0,0.0,0.0,0.0,0.0,0.0,0.0,0.0,0.0,0.0,0.0,0.0,0.0,0.0,0.0,0.0,0.0,0.0,0.0,0.0,0.0,0.0,0.0,0.0,0.0,0.0,0.0,0.0,0.0,0.0,0.0,0.0,0.0,0.0,0.0,0.0,0.0,0.0,-1.3283,-1.3865,-1.3804,-1.3935,-1.3961,-1.3761,-1.1654,-1.0825,-1.1003,-1.0327,0.0,0.0,0.0,0.0,0.0,0.0,0.0,0.0,0.0,0.0,0.0,0.0,0.0,0.0,0.0,0.0,0.0,0.0,0.0,0.0,0.0,0.0,0.0,0.0,0.0,0.0,0.0,0.0,0.0,0.0,0.0,0.0,0.0,0.0,0.0,0.0,0.0,0.0,-2.6064,-2.7881,-2.8756,-2.8719,0.0,0.0,0.0,0.0,0.0,0.0,0.0,0.0,0.0,0.0,0.0,0.0,0.0,0.0,0.0,0.0,0.0,0.0,0.0,0.0,0.0,0.0,0.0,0.0,0.0,0.0,0.0,0.0,0.0,0.0,0.0,0.0,0.0,0.0,0.0,0.0,0.0,0.0,0.0,0.0,0.0,0.0,0.0,0.0,-1.034,-1.0501,0.0,0.0,0.0,0.0,0.0,0.0,0.0,0.0,0.0,0.0,0.0,0.0,0.0,-1.2953,-1.3364,-1.4177,-1.4453,-1.432,-1.5287,-1.5622,-1.5423,-1.6031,-1.609,-1.5715,-1.4814,0.0,-1.1864,-1.1477,0.0,0.0,0.0,0.0,0.0,0.0,0.0,0.0,0.0,0.0,0.0,0.0,0.0,0.0,0.0,0.0,0.0,0.0,0.0,0.0,0.0,0.0,0.0,0.0,0.0,0.0,0.0,0.0,0.0,0.0,0.0,0.0,0.0,0.0,0.0,0.0,-2.5078,-2.6175,-2.7799,-2.8627,-2.9727,-3.0867,-2.9226,-2.8461,-2.8298,-2.7053,0.0,0.0,0.0,0.0,0.0,0.0,0.0,0.0,0.0,0.0,0.0,0.0,0.0,0.0,0.0,0.0,0.0,0.0,0.0,0.0,0.0,0.0,0.0,0.0,0.0,0.0,0.0,0.0,0.0,0.0,0.0,0.0,0.0,0.0,0.0,0.0,0.0,0.0,0.0,-1.2198,-1.251,-1.2291,-1.2378,-1.226,0.0,0.0,0.0,0.0,0.0,0.0,0.0,0.0,0.0,-1.3476,-1.4119,-1.4672,-1.4983,-1.6007,-1.6535,-1.6598,-1.8012,-1.8404,-1.8066,-1.8366,-1.8281,-1.7861,-1.7341,-1.6326,-1.4943,-1.3432,-1.2787,-1.2742,0.0,0.0,0.0,0.0,-1.3379,-1.3584,0.0,0.0,0.0,0.0,0.0,0.0,0.0,0.0,0.0,0.0,0.0,0.0,0.0,0.0,0.0,0.0,0.0,0.0,0.0,0.0,0.0,0.0,0.0,0.0,0.0,0.0,0.0,0.0,-2.5555,-2.7126,-2.9184,-2.959,-3.0698,-3.2291,-3.1498,-3.0464,-2.9283,-2.7857,-2.6901,0.0,0.0,0.0,0.0,0.0,0.0,0.0,0.0,0.0,0.0,0.0,0.0,0.0,0.0,0.0,0.0,0.0,0.0,0.0,0.0,0.0,0.0,0.0,0.0,0.0,0.0,0.0,0.0,0.0,0.0,0.0,0.0,0.0,0.0,0.0,0.0,0.0,0.0,-1.4373,-1.4734,-1.3941,-1.4398,-1.4308,0.0,0.0,0.0,0.0,0.0,0.0,-1.4024,-1.4946,-1.5622,-1.6069,-1.6482,-1.6857,-1.7188,-1.8193,-1.8864,-1.9107,-2.0246,-2.0566,-2.0244,-2.0137,-1.9853,-1.9424,-1.9102,-1.8428,-1.7432,-1.5345,-1.4251,-1.3848,-1.3955,-1.3857,-1.3682,-1.3789,-1.3965,-1.4077,0.0,0.0,0.0,0.0,0.0,0.0,0.0,0.0,0.0,0.0,0.0,0.0,0.0,0.0,0.0,0.0,0.0,0.0,0.0,0.0,0.0,0.0,0.0,0.0,0.0,0.0,0.0,-2.4405,-2.6117,-2.7673,-2.9138,-3.123,-3.2298,-3.2458,-3.3725,-3.3933,-3.3051,-2.894,-2.8083,-2.9238,0.0,0.0,0.0,0.0,0.0,0.0,0.0,0.0,0.0,0.0,0.0,0.0,0.0,0.0,0.0,0.0,0.0,0.0,0.0,0.0,0.0,0.0,0.0,0.0,0.0,0.0,0.0,0.0,0.0,0.0,0.0,0.0,0.0,0.0,0.0,0.0,0.0,0.0,0.0,-1.5299,-1.6409,0.0,0.0,0.0,0.0,-1.3956,-1.4607,-1.5325,-1.587,-1.6856,-1.7641,-1.8128,-1.9583,-2.0528,-2.0905,-2.1423,-2.1728,-2.1666,-2.1377,-2.1191,-2.1152,-2.0723,-2.0293,-1.9883,-1.9863,-1.9141,-1.791,-1.6947,-1.5819,-1.4756,-1.5156,-1.4824,-1.4097,-1.457,-1.4473,-1.4077,0.0,0.0,0.0,0.0,0.0,0.0,0.0,0.0,0.0,0.0,0.0,0.0,0.0,0.0,0.0,0.0,0.0,0.0,0.0,0.0,0.0,0.0,0.0,0.0,0.0,0.0,-2.4479,-2.6054,-2.7619,-2.9293,-3.1164,-3.2508,-3.3606,-3.4511,-3.5534,-3.5589,-3.4621,-3.0731,-2.8851,-2.8305,-2.6093,-2.4756,0.0,0.0,0.0,0.0,0.0,0.0,0.0,0.0,0.0,0.0,0.0,0.0,0.0,0.0,0.0,0.0,0.0,0.0,0.0,0.0,0.0,0.0,0.0,0.0,0.0,0.0,0.0,0.0,0.0,0.0,0.0,0.0,0.0,0.0,0.0,0.0,0.0,-1.9552,-2.0551,0.0,-1.9369,-1.8363,-1.8012,-1.8444,-1.7661,-1.7715,-1.891,-1.985,-2.0591,-2.1015,-2.1578,-2.1894,-2.2051,-2.2217,-2.2295,-2.2295,-2.2402,-2.2482,-2.2553,-2.1788,-2.1401,-2.1206,-2.0619,-1.9756,-1.8809,-1.8506,-1.7285,-1.5625,-1.5771,-1.5644,-1.54,-1.5547,-1.5693,-1.5762,0.0,0.0,0.0,0.0,0.0,0.0,0.0,0.0,0.0,0.0,0.0,0.0,0.0,0.0,0.0,0.0,0.0,0.0,0.0,0.0,0.0,0.0,0.0,0.0,0.0,-2.432,-2.5812,-2.7876,-2.9226,-3.0861,-3.2718,-3.3479,-3.4352,-3.5255,-3.6024,-3.6237,-3.5777,-3.3115,-3.0918,-2.9127,-2.7144,-2.6453,-2.6436,0.0,0.0,0.0,0.0,0.0,0.0,0.0,0.0,0.0,0.0,0.0,0.0,0.0,0.0,0.0,0.0,0.0,0.0,0.0,0.0,0.0,0.0,0.0,0.0,0.0,0.0,0.0,0.0,0.0,0.0,0.0,0.0,0.0,0.0,0.0,-2.2176,-2.2519,-2.3485,-2.3734,-2.2685,-2.1673,-2.1325,-2.2049,-2.1331,-2.1312,-2.2556,-2.3104,-2.341,-2.3283,-2.3293,-2.3133,-2.2725,-2.2725,-2.2725,-2.2725,-2.2861,-2.3108,-2.3562,-2.2798,-2.2549,-2.2713,-2.1753,-2.0883,-1.9985,-1.9492,-1.8359,-1.6904,-1.6621,-1.639,-1.6145,-1.623,-1.6387,-1.6527,0.0,0.0,0.0,0.0,0.0,0.0,0.0,0.0,0.0,0.0,0.0,0.0,0.0,0.0,0.0,0.0,0.0,0.0,0.0,0.0,0.0,0.0,0.0,0.0,-2.3434,-2.5576,-2.7694,-2.9669,-3.0971,-3.2258,-3.3529,-3.4222,-3.4527,-3.4543,-3.5371,-3.6082,-3.6699,-3.6024,-3.4509,-3.229,-3.0044,-2.9813,-3.0505,0.0,0.0,0.0,0.0,0.0,0.0,0.0,0.0,0.0,0.0,0.0,0.0,0.0,0.0,0.0,0.0,0.0,0.0,0.0,0.0,0.0,0.0,0.0,0.0,0.0,0.0,0.0,0.0,0.0,0.0,0.0,0.0,0.0,-2.2385,-2.428,-2.5236,-2.408,-2.5262,-2.5302,-2.3086,-2.3906,-2.46,-2.46,-2.5363,-2.6049,-2.6449,-2.6483,-2.5975,-2.4872,-2.4872,-2.4296,-2.3135,-2.3135,-2.3144,-2.3135,-2.2725,-2.3082,-2.4187,-2.3724,-2.3813,-2.4276,-2.3283,-2.2292,-2.1345,-1.9902,-1.9043,-1.8484,-1.7725,-1.6875,-1.6243,-1.6602,-1.6465,-1.6186,0.0,0.0,0.0,0.0,0.0,0.0,0.0,0.0,0.0,0.0,-2.5258,0.0,0.0,0.0,0.0,0.0,0.0,0.0,0.0,0.0,0.0,0.0,0.0,0.0,-2.6406,-2.8426,-3.0178,-3.1704,-3.2542,-3.338,-3.4265,-3.4986,-3.5254,-3.5285,-3.7142,-3.7822,-3.7574,-3.8454,-3.8216,-3.6852,-3.3225,-3.1332,-3.0559,0.0,0.0,0.0,0.0,0.0,0.0,0.0,0.0,0.0,0.0,0.0,0.0,0.0,0.0,0.0,0.0,0.0,0.0,0.0,0.0,0.0,0.0,0.0,0.0,0.0,0.0,0.0,0.0,0.0,0.0,0.0,0.0,-2.7404,-2.6076,-2.6721,-2.7717,-2.899,-2.9499,-2.9529,-2.8895,-2.777,-2.7117,-2.7117,-2.6599,-2.6337,-2.6472,-2.6483,-2.6389,-2.6058,-2.6058,-2.5473,-2.4372,-2.4296,-2.3877,-2.3135,-2.3018,-2.3298,-2.4054,-2.3193,-2.3523,-2.4692,-2.3335,-2.2471,-2.1892,-2.1146,-1.9939,-1.8584,-1.8047,-1.7686,-1.7451,-1.7266,-1.6719,-1.6297,0.0,0.0,0.0,0.0,0.0,0.0,0.0,0.0,0.0,0.0,-2.5083,-2.6959,0.0,0.0,0.0,0.0,0.0,0.0,0.0,0.0,0.0,0.0,0.0,-2.7346,-2.8757,-3.0477,-3.2003,-3.3335,-3.3724,-3.4247,-3.4906,-3.5366,-3.5538,-3.5568,-3.6852,-3.7623,-3.7845,-3.876,-3.9272,-3.924,-3.6474,-3.5057,-3.4254,-3.2074,-3.1491,-3.1721,-3.0317,-3.0638,-3.1436,-2.9791,0.0,0.0,0.0,0.0,0.0,0.0,0.0,0.0,0.0,0.0,0.0,0.0,0.0,0.0,0.0,0.0,0.0,0.0,0.0,0.0,0.0,0.0,0.0,0.0,-3.0107,-3.1392,-3.1143,-3.0703,-3.0905,-3.2455,-3.2341,-3.2287,-3.2617,-3.1313,-3.0394,-3.0394,-2.9473,-2.8754,-2.8445,-2.8096,-2.7626,-2.7209,-2.7209,-2.6625,-2.5546,-2.5041,-2.4713,-2.4467,-2.356,-2.4002,-2.5721,-2.466,-2.505,0.0,-2.5,-2.3896,-2.295,-2.185,-2.0442,0.0,0.0,0.0,0.0,0.0,-1.7616,-1.7162,0.0,0.0,0.0,0.0,0.0,0.0,0.0,0.0,0.0,0.0,0.0,0.0,0.0,0.0,0.0,0.0,0.0,0.0,0.0,0.0,0.0,-2.6386,-2.8107,-2.9609,-3.0806,-3.2035,-3.3287,-3.4435,-3.4435,-3.4763,-3.5359,-3.5439,-3.5504,-3.5504,-3.5554,-3.643,-3.7822,-3.7863,-3.8778,-4.002,-3.9462,-3.9409,-3.9292,-3.5925,-3.6337,-3.8472,-3.6407,-3.5606,-3.5284,-3.3605,0.0,0.0,0.0,0.0,0.0,0.0,0.0,0.0,0.0,0.0,0.0,0.0,0.0,0.0,0.0,0.0,0.0,0.0,0.0,0.0,0.0,0.0,0.0,0.0,-3.3366,-3.4637,-3.669,-3.5555,-3.4629,-3.4799,-3.4283,-3.4116,-3.4687,-3.4099,-3.3605,-3.3675,-3.2779,-3.2027,-3.1391,0.0,0.0,0.0,0.0,-2.7775,-2.6719,-2.5546,-2.5462,-2.6483,-2.4221,-2.4798,-2.7844,-2.6789,-2.7208,-2.8749,-2.7315,-2.5849,-2.4405,-2.2529,-2.0834,-1.9344,-1.8478,-1.8314,-1.868,-1.9116,-1.8902,-1.843,0.0,0.0,0.0,0.0,0.0,0.0,0.0,0.0,0.0,0.0,0.0,0.0,0.0,0.0,0.0,0.0,0.0,-2.4462,0.0,0.0,-2.6651,-2.9259,-3.0868,-3.2123,-3.2901,-3.3445,-3.381,-3.4124,-3.4124,-3.4182,-3.4312,-3.5133,-3.5504,-3.5504,-3.6117,-3.6919,-3.7806,-3.8414,-3.9209,-4.0121,-4.0595,-3.9976,-3.8587,-3.7301,-3.6907,-3.6926,-3.5861,-3.6962,-3.8615,-3.634,-3.6732,-3.7668,-3.4933,0.0,0.0,0.0,0.0,0.0,0.0,0.0,0.0,0.0,0.0,0.0,0.0,0.0,0.0,0.0,0.0,0.0,0.0,0.0,0.0,-3.5363,-3.7523,-3.9328,-4.0288,-3.9653,-3.8414,-3.663,-3.5883,-3.5626,-3.5755,-3.445,-3.3785,-3.4386,-3.3266,-3.2589,-3.263,-3.1557,-3.0675,-3.0089,-2.9679,-2.8937,-2.7763,-2.6707,-2.6307,-2.6483,0.0,0.0,-2.6801,-2.563,-2.6311,-2.8234,-2.746,-2.6783,-2.6012,-2.4423,-2.241,-2.0236,-1.9396,-1.8885,-1.8776,-2.0156,-1.9737,-1.868,0.0,0.0,0.0,0.0,0.0,0.0,0.0,0.0,0.0,0.0,0.0,0.0,0.0,0.0,0.0,0.0,-2.335,0.0,0.0,-2.7328,-2.9159,-3.1625,-3.3259,-3.4197,-3.4487,-3.4646,-3.4476,-3.4027,-3.4476,-3.4461,-3.4027,-3.5052,-3.5504,-3.5504,-3.5894,-3.6646,-3.7723,-3.8534,-3.9555,-4.0625,-4.1418,-4.1206,-4.0363,-3.9939,-3.9565,-3.9282,-3.8801,-3.9297,-4.0059,-3.8694,-3.8608,-3.8778,-3.7103,-3.5296,-3.3262,0.0,0.0,0.0,0.0,0.0,0.0,0.0,0.0,0.0,0.0,0.0,0.0,0.0,0.0,-3.3858,0.0,0.0,-3.831,-3.9925,-4.0855,-4.1489,-4.1818,-4.1309,-4.0353,-3.8797,-3.7811,-3.734,-3.7678,-3.6663,-3.6115,-3.6461,-3.5438,-3.4482,-3.3734,-3.2395,-3.133,-3.0608,-3.008,-2.9534,-2.8949,-2.7855,-2.7626,-2.8131,-2.5891,-2.5975,-2.8131,-2.6942,-2.736,-2.8912,-2.8362,-2.756,-2.6431,-2.3918,-2.2437,-2.1659,-2.0931,-2.0325,-1.9952,-2.1188,-2.0943,-2.0097,0.0,0.0,0.0,0.0,0.0,0.0,0.0,0.0,0.0,0.0,0.0,0.0,0.0,0.0,0.0,0.0,0.0,0.0,0.0,-2.9135,-3.1391,-3.3662,-3.5044,-3.5723,-3.5489,-3.5294,-3.475,-3.3856,-3.4616,-3.4549,-3.3925,-3.4949,-3.5472,-3.5699,-3.5818,-3.6576,-3.7824,-3.8555,-3.9672,-4.1082,-4.1749,-4.2162,-4.2255,-4.2036,-4.1988,-4.2025,-4.1411,-4.0665,-3.9939,-3.9888,-3.895,-3.7816,-3.7881,-3.6957,-3.5375,-3.2762,-3.2513,0.0,0.0,0.0,0.0,0.0,0.0,0.0,0.0,0.0,-3.3974,-3.5578,-3.7394,-3.9259,-4.1063,-4.1661,-4.2354,-4.3853,-4.338,-4.2769,-4.2629,-4.1878,-4.113,-4.0472,-3.9334,-3.8811,-3.9364,-3.8796,-3.8437,-3.8571,-3.7678,-3.6503,-3.5152,-3.3498,-3.2172,-3.1064,-3.031,-2.9905,-2.9792,-2.8688,-2.8688,-2.9792,-2.7557,-2.7637,-2.9792,-2.8597,-2.8688,-2.9767,-2.9176,-2.805,-2.6407,-2.3666,-2.2822,-2.3117,-2.2823,-2.232,-2.1837,-2.2548,-2.2385,-2.1807,0.0,0.0,0.0,0.0,0.0,0.0,0.0,0.0,0.0,0.0,0.0,0.0,0.0,0.0,0.0,0.0,0.0,0.0,-2.7869,-2.9922,-3.2286,-3.5234,-3.6088,-3.6198,-3.5504,-3.461,-3.3941,-3.3467,-3.3084,-3.3098,-3.3467,-3.4568,-3.5541,-3.6402,-3.6956,-3.7667,-3.8503,-3.8567,-3.9577,-4.1025,-4.1082,-4.1622,-4.2219,-4.1578,-4.1612,-4.1856,-3.9763,-3.8444,-3.7749,-3.8463,-3.768,-3.6772,-3.8655,-3.8508,-3.739,-3.6294,0.0,-3.2448,-3.3497,-3.3468,-3.3644,-3.5603,-3.4604,-3.4695,0.0,0.0,-3.9795,-4.1908,-4.3073,-4.3929,-4.48,-4.4873,-4.4846,-4.4814,-4.4613,-4.419,-4.3289,-4.2162,-4.113,-4.0472,-3.9753,-3.9334,-3.9409,-3.8796,-3.8646,-3.926,-3.8127,-3.7396,-3.7404,-3.532,-3.3715,-3.2777,-3.1248,-3.0281,-2.9792,-2.8688,-2.8688,-2.9792,-2.7557,-2.7637,-2.9792,-2.8597,-2.8688,-2.9767,-2.9176,-2.805,-2.6617,-2.6602,-2.5642,-2.4151,-2.4909,-2.4834,-2.4404,-2.4467,-2.3866,-2.289,0.0,0.0,0.0,0.0,0.0,0.0,0.0,0.0,0.0,0.0,0.0,0.0,0.0,0.0,0.0,0.0,0.0,0.0,-2.8025,-3.0286,-3.2716,-3.5457,-3.6711,-3.6753,-3.5504,-3.5067,-3.4714,-3.4299,-3.4718,-3.4905,-3.4909,-3.5962,-3.663,-3.703,-3.73,-3.7805,-3.8493,-3.9,-3.9624,-4.0307,-4.1298,-4.1666,-4.1593,-4.0845,-4.017,-3.9392,-3.7575,-3.6363,0.0,0.0,-3.5025,-3.4901,-3.6958,-3.6732,-3.5543,-3.4547,-3.4327,0.0,-3.6425,-3.6584,0.0,0.0,-3.9326,-4.0662,-4.3474,-4.4071,-4.4491,-4.63,-4.7583,-4.8463,-4.8779,-4.8312,-4.7561,0.0,-4.5477,-4.4311,-4.2977,-4.1639,-4.0561,-3.9903,-3.8886,-3.8392,-3.8781,-3.8556,-3.8676,-3.9364,-3.8901,-3.8352,-3.7814,-3.6037,-3.4494,-3.3489,-3.1877,-3.0959,-3.0721,-3.0282,-3.0121,-3.0269,-2.9346,-2.9187,-2.9792,-2.9287,-2.9365,-2.9767,-2.9176,-2.855,-2.7889,-2.7201,-2.6541,-2.6009,-2.5761,-2.5721,-2.5699,-2.5059,-2.4318,-2.364,0.0,0.0,0.0,0.0,0.0,0.0,0.0,0.0,0.0,0.0,0.0,0.0,0.0,0.0,0.0,0.0,0.0,0.0,0.0,-2.9632,-3.2147,-3.4571,-3.6286,-3.6644,-3.551,-3.5529,-3.5311,-3.4977,-3.5551,-3.5889,-3.6,-3.6667,-3.7273,-3.7689,-3.7883,-3.8227,-3.8732,-3.9184,-3.9617,-4.0096,-4.091,-4.1124,-4.0745,-3.9379,-3.7956,-3.6502,-3.5165,-3.3812,0.0,0.0,-3.1798,-3.1924,-3.4117,-3.4419,-3.3848,-3.3459,-3.5048,-3.7041,-3.7505,0.0,0.0,-4.0731,-4.3132,-4.5297,-4.5703,-4.6938,-4.8376,-4.9644,-5.0777,-5.1454,-5.1251,-5.0291,-4.9125,-4.7605,-4.5952,-4.4421,-4.2986,-4.143,-4.0083,-3.9245,-3.7958,-3.7345,-3.7823,-3.8018,-3.8332,-3.8826,-3.9035,-3.8662,-3.7555,-3.627,-3.5026,-3.3847,-3.2363,-3.1549,-3.1386,-3.1386,-3.1135,-3.062,-3.062,-3.0331,-2.9792,-2.9792,-2.9792,-2.9767,-2.9352,-2.9076,-2.8813,-2.7531,-2.7152,-2.7185,-2.6345,-2.6193,-2.6433,-2.5561,-2.482,-2.423,0.0,0.0,0.0,0.0,0.0,0.0,0.0,0.0,0.0,0.0,0.0,0.0,0.0,0.0,0.0,0.0,0.0,0.0,0.0,-2.7602,-3.0344,-3.2302,-3.451,-3.5606,-3.5519,-3.5513,-3.5326,-3.4936,-3.4373,-3.4704,-3.5885,-3.6,-3.6833,-3.8392,-3.9065,-3.9364,-3.9349,-3.8676,-3.9364,-4.0736,-3.9409,-3.9388,-3.9817,-3.6844,-3.4844,-3.344,-3.2662,0.0,0.0,0.0,-2.8147,-2.7402,-3.04,-3.2238,0.0,-3.4831,-3.7211,0.0,0.0,0.0,-4.2199,-4.309,-4.5043,-4.7107,-4.8545,-5.0016,-5.1302,-5.2046,-5.2232,-5.2046,-5.1352,-5.0033,-4.8707,-4.777,-4.6196,-4.4763,-4.3889,-4.1845,-3.9903,-3.8586,-3.7285,-3.6522,0.0,-3.709,-3.7449,-3.7464,-3.8063,-3.7952,-3.6878,-3.641,-3.5435,-3.386,-3.2733,-3.1938,-3.1399,-3.1386,-3.1135,-3.062,-3.062,-3.0331,-2.9792,-2.9792,-2.9792,-2.9792,-2.9779,-2.9453,-2.8888,-2.8262,-2.7783,-2.7231,-2.6691,-2.6477,-2.6533,-2.6496,-2.5724,-2.4795,0.0,0.0,0.0,0.0,0.0,0.0,0.0,0.0,0.0,0.0,0.0,0.0,0.0,0.0,0.0,0.0,0.0,0.0,0.0,-2.6176,-2.8239,-2.9767,-3.2217,-3.3332,-3.2836,-3.3291,-3.4074,-3.5326,-3.4428,-3.4965,-3.6891,-3.6285,-3.6614,-3.7749,-3.7973,-3.8078,-3.8048,-3.7404,-3.7443,-3.7874,-3.6416,-3.6355,-3.6832,-3.4337,-3.2493,-3.0987,0.0,0.0,0.0,0.0,-2.5425,-2.5826,-2.7308,0.0,0.0,-3.1918,-3.3346,-3.4758,0.0,0.0,-4.297,-4.6304,-4.8443,-5.0118,-5.164,-5.2384,-5.252,-5.1742,-5.0794,-4.9593,-4.7885,-4.6752,-4.5791,-4.4752,-4.4512,-4.3876,-4.2614,-4.1589,-4.0232,-3.8003,-3.736,0.0,0.0,0.0,0.0,-3.7375,-3.8018,-3.7923,-3.6835,-3.6424,-3.5653,-3.4455,-3.3334,-3.2704,-3.2516,-3.2516,-3.2051,-3.1122,-3.0407,-2.9967,-2.9792,-2.9792,-2.9792,-2.9792,-2.9792,-2.9679,-2.9453,-2.8888,-2.8323,-2.777,-2.7218,-2.6779,-2.6533,-2.6533,-2.5988,-2.5335,0.0,0.0,0.0,0.0,0.0,0.0,0.0,0.0,0.0,0.0,0.0,0.0,0.0,0.0,0.0,0.0,0.0,0.0,0.0,0.0,-2.5719,-2.7013,-2.9185,-3.0295,-3.0091,-3.0332,-3.1129,-3.2406,-3.1536,-3.2095,-3.3971,-3.3339,-3.3732,-3.4955,-3.4955,-3.51,-3.525,-3.4382,-3.4179,-3.4303,-3.2888,-3.2676,-3.2949,-3.085,-2.9345,0.0,0.0,0.0,0.0,0.0,0.0,0.0,0.0,-2.6629,-2.8403,-3.0717,-3.2994,-3.5817,-4.0623,-4.3247,-4.5534,-4.9249,-5.1116,-5.2283,-5.3281,-5.3281,-5.257,-5.0794,-4.9035,-4.7056,-4.4553,-4.3047,-4.2189,-4.203,-4.1827,-4.1654,-4.1759,-4.0948,-3.9768,-3.8302,-3.7704,0.0,0.0,0.0,0.0,-3.6731,-3.7764,-3.7923,-3.6835,-3.6745,-3.6339,-3.5341,-3.4244,-3.3573,-3.337,-3.3181,-3.2516,-3.1373,-3.0306,-2.9792,-2.9792,-2.9792,-2.9792,-2.9792,-2.9792,-2.9792,-2.9729,-2.895,-2.8423,-2.8034,-2.7281,-2.6766,-2.6533,-2.6533,-2.6226,-2.5875,0.0,0.0,0.0,0.0,0.0,0.0,0.0,0.0,0.0,0.0,0.0,0.0,0.0,0.0,0.0,0.0,0.0,0.0,0.0,0.0,0.0,-2.4112,-2.5554,-2.665,-2.7333,-2.6892,-2.668,-2.6686,-2.613,-2.6537,-2.7711,-2.7653,-2.8596,-3.038,-3.038,-3.0705,-3.1183,-2.9913,-2.9863,-3.0413,-2.906,-2.8577,-2.8484,-2.6681,0.0,0.0,0.0,0.0,0.0,0.0,0.0,0.0,0.0,0.0,-3.1436,-3.1464,-3.6039,-4.1469,-4.3141,-4.6269,-4.9565,-5.1826,-5.2942,-5.3484,-5.3399,-5.2739,-5.1488,-4.9187,-4.6921,-4.4451,0.0,0.0,-3.827,-3.9698,-3.8691,-3.8681,-4.1386,-3.996,-3.8856,0.0,0.0,0.0,0.0,0.0,0.0,-3.5789,0.0,-3.7967,-3.6835,-3.7526,-3.7498,-3.6558,-3.5478,-3.4601,-3.3972,-3.3406,-3.2478,-3.1386,-3.0331,-2.9817,-2.9792,-2.9792,-2.9792,-2.9792,-2.9792,-2.9792,-2.9704,-2.8574,-2.8109,-2.7996,-2.6892,-2.6533,-2.6533,-2.6533,-2.6533,-2.6445,0.0,0.0,0.0,0.0,0.0,0.0,0.0,0.0,0.0,0.0,0.0,0.0,0.0,0.0,0.0,0.0,0.0,0.0,0.0,0.0,0.0,0.0,0.0,0.0,0.0,0.0,0.0,0.0,0.0,-2.4957,-2.6424,-2.5727,-2.6062,-2.7197,-2.7197,-2.7487,-2.7944,-2.7137,-2.7386,-2.8232,0.0,-2.6139,-2.6882,0.0,0.0,0.0,0.0,0.0,0.0,0.0,0.0,0.0,0.0,-2.8812,-3.1982,-3.4748,-3.7783,-4.139,-4.6208,-4.858,-5.0243,-5.2606,-5.3348,-5.3213,-5.2063,-5.0794,-4.89,-4.5534,-4.2642,-3.9783,0.0,0.0,0.0,-3.7442,-3.9269,0.0,-4.1612,-4.1908,0.0,0.0,0.0,-3.9454,-3.896,-3.8437,0.0,0.0,-3.8871,-3.8455,-3.6864,-3.8361,-3.8587,-3.7058,-3.7195,-3.6628,-3.5208,-3.3318,-3.2077,-3.1386,-3.0721,-3.0193,-2.9792,-2.9792,-2.9792,-2.9792,-2.9792,-2.9792,-2.9704,-2.8574,-2.8109,-2.7996,-2.6892,-2.6533,-2.6533,-2.6533,-2.6533,-2.6508,0.0,0.0,0.0,0.0,0.0,0.0,0.0,0.0,0.0,0.0,0.0,0.0,0.0,0.0,0.0,0.0,0.0,0.0,0.0,0.0,0.0,0.0,0.0,0.0,0.0,0.0,0.0,0.0,0.0,0.0,0.0,-2.2059,-2.2433,-2.3658,-2.3658,-2.4024,-2.4543,0.0,0.0,0.0,0.0,0.0,0.0,0.0,0.0,0.0,0.0,0.0,0.0,0.0,0.0,-2.9454,-2.9873,-3.2028,-3.5112,-3.8227,0.0,-4.4665,-4.8822,-5.0923,-5.2284,-5.3602,-5.3467,-5.2418,-5.0253,-4.8612,-4.621,-4.1474,-3.865,0.0,0.0,0.0,0.0,0.0,0.0,0.0,-4.0071,-4.0992,-4.1414,0.0,-4.0831,0.0,-3.9903,-3.9753,-3.9738,0.0,-3.9843,-3.9564,-3.8824,-3.9865,-4.0054,-3.9166,-3.8982,-3.7841,-3.5619,-3.3334,-3.1938,-3.1386,-3.0871,-3.0331,-2.9792,-2.9792,-2.9792,-2.9792,0.0,-2.9792,-2.9704,-2.8574,-2.8109,-2.7996,-2.6892,-2.6533,-2.6533,-2.6533,-2.6533,-2.6521,0.0,0.0,0.0,0.0,0.0,0.0,0.0,0.0,0.0,0.0,0.0,0.0,0.0,0.0,0.0,0.0,0.0,0.0,0.0,0.0,0.0,0.0,0.0,0.0,0.0,0.0,0.0,0.0,0.0,0.0,0.0,0.0,0.0,0.0,0.0,0.0,0.0,0.0,0.0,0.0,0.0,0.0,0.0,0.0,0.0,0.0,0.0,0.0,0.0,0.0,-3.1043,-3.2096,-3.3765,-3.6431,-3.9516,-4.2084,-4.5713,-4.9248,-5.1206,-5.3224,-5.4718,-5.4617,-5.3365,-5.1369,-4.8308,-4.6177,-4.32,-3.7499,0.0,-3.3068,-3.0311,0.0,-3.0683,-3.198,0.0,-3.5498,-3.8166,-3.911,-4.0008,-4.1235,-4.1309,-4.1055,-4.0576,-4.0965,-4.1085,-4.0696,-4.0666,-4.0876,-4.1354,-4.1549,-4.17,-4.1705,-4.0408,-3.8422,-3.5858,-3.3572,-3.2092,-3.1386,-3.0871,-3.0331,-2.9792,-2.9792,-2.9792,-2.9792,-2.9792,0.0,-2.9603,-2.8612,-2.8134,-2.7896,-2.6942,-2.6596,-2.6533,-2.6533,-2.6533,-2.6589,0.0,0.0,0.0,0.0,0.0,0.0,0.0,0.0,0.0,0.0,0.0,0.0,0.0,0.0,0.0,0.0,0.0,0.0,0.0,0.0,0.0,0.0,0.0,0.0,0.0,0.0,0.0,0.0,0.0,0.0,0.0,0.0,0.0,0.0,0.0,0.0,0.0,0.0,0.0,0.0,0.0,0.0,0.0,0.0,0.0,0.0,0.0,0.0,0.0,0.0,-3.2966,-3.5792,-3.7658,-4.0022,-4.2833,-4.664,-4.9168,-5.1256,-5.4132,-5.5171,-5.5378,-5.4752,-5.2976,-5.0473,-4.6904,-4.3014,0.0,0.0,0.0,-3.0328,-2.8552,-2.9753,0.0,-3.2026,0.0,0.0,0.0,0.0,-4.0516,0.0,0.0,0.0,0.0,0.0,0.0,0.0,0.0,-4.1833,-4.1399,-4.2402,-4.2757,-4.2272,-4.0086,-3.8317,-3.6907,-3.4659,-3.2778,-3.1386,-3.0871,-3.0331,-2.9792,-2.9792,-2.9792,-2.9792,-2.9792,0.0,-2.9063,-2.8863,-2.8247,-2.7406,-2.7218,-2.6866,-2.6533,-2.6533,-2.6533,-2.6589,0.0,0.0,0.0,0.0,0.0,0.0,0.0,0.0,0.0,0.0,0.0,0.0,0.0,0.0,0.0,0.0,0.0,0.0,0.0,0.0,0.0,0.0,0.0,0.0,0.0,0.0,0.0,0.0,0.0,0.0,0.0,0.0,0.0,0.0,0.0,0.0,0.0,0.0,0.0,0.0,0.0,0.0,0.0,0.0,0.0,0.0,0.0,0.0,0.0,0.0,-3.3236,-3.641,-3.959,-4.2457,-4.5167,-4.8436,-5.0694,-5.2605,-5.5067,-5.5987,-5.6105,-5.5361,-5.2892,-4.9458,-4.4942,0.0,0.0,0.0,0.0,-2.8569,-2.7435,0.0,0.0,0.0,0.0,0.0,0.0,0.0,0.0,0.0,0.0,0.0,0.0,0.0,0.0,0.0,0.0,-4.2372,-4.2402,-4.2671,-4.2521,-4.1878,-3.9347,-3.7714,-3.7232,-3.4664,-3.2784,-3.1386,-3.1135,-3.0583,-2.9792,-2.9792,-2.9792,-2.9792,-2.9792,0.0,-2.9352,-2.9051,-2.8448,-2.7682,-2.7394,-2.6942,-2.6533,-2.6533,-2.6533,-2.6658,0.0,0.0,0.0,0.0,0.0,0.0,0.0,0.0,0.0,0.0,0.0,0.0,0.0,0.0,0.0,0.0,0.0,0.0,0.0,0.0,0.0,0.0,0.0,0.0,0.0,0.0,0.0,0.0,0.0,0.0,0.0,0.0,0.0,0.0,0.0,0.0,0.0,0.0,0.0,0.0,0.0,0.0,0.0,0.0,0.0,0.0,0.0,0.0,0.0,0.0,-3.2376,-3.512,-3.9072,-4.2687,-4.5911,-4.8345,-5.0767,-5.3052,-5.4949,-5.6004,-5.6359,-5.5463,-5.2283,-4.8105,-4.3183,-3.8819,0.0,0.0,0.0,-2.7402,-2.681,0.0,0.0,0.0,0.0,0.0,0.0,0.0,0.0,0.0,0.0,0.0,0.0,0.0,0.0,0.0,0.0,0.0,-4.3299,-4.2581,-4.1908,-4.1399,-3.8732,-3.7198,-3.6943,-3.4415,-3.2503,-3.1386,-3.116,-3.0608,-2.9792,-2.9792,-2.9792,-2.9792,-2.9792,0.0,0.0,-2.9252,-2.8649,-2.7896,-2.7582,-2.7118,-2.6697,-2.6571,-2.6596,-2.6891,0.0,0.0,0.0,0.0,0.0,0.0,0.0,0.0,0.0,0.0,0.0,0.0,0.0,0.0,0.0,0.0,0.0,0.0,0.0,0.0,0.0,0.0,0.0,0.0,0.0,0.0,0.0,0.0,0.0,0.0,0.0,0.0,0.0,0.0,0.0,0.0,0.0,0.0,0.0,0.0,0.0,0.0,0.0,0.0,0.0,0.0,0.0,0.0,0.0,0.0,0.0,-3.1999,-3.4431,-3.8927,-4.3854,-4.6344,0.0,0.0,-5.411,-5.5243,-5.548,-5.4059,-5.0371,-4.6075,-4.2185,0.0,0.0,0.0,-2.7824,-2.6776,-2.6708,-2.681,0.0,0.0,0.0,0.0,0.0,0.0,0.0,0.0,0.0,0.0,0.0,0.0,0.0,0.0,0.0,0.0,-4.3329,-4.2147,-4.1444,-4.1384,-3.9022,-3.7275,-3.6281,-3.4098,-3.2512,-3.1386,-3.0407,-2.9892,-2.9792,-2.9792,-2.9792,-2.9792,-2.9792,0.0,0.0,-2.9515,-2.8787,-2.7406,-2.7858,-2.7695,-2.7143,-2.671,-2.6779,-2.7462,0.0,0.0,0.0,0.0,0.0,0.0,0.0,0.0,0.0,0.0,0.0,0.0,0.0,0.0,0.0,0.0,0.0,0.0,0.0,0.0,0.0,0.0,0.0,0.0,0.0,0.0,0.0,0.0,0.0,0.0,0.0,0.0,0.0,0.0,0.0,0.0,0.0,0.0,0.0,0.0,0.0,0.0,0.0,0.0,0.0,0.0,0.0,0.0,0.0,0.0,0.0,0.0,-2.9668,-3.2942,0.0,0.0,-4.5551,-4.8578,-5.1708,-5.3771,-5.4786,-5.3771,-5.0118,-4.5686,-4.1508,0.0,0.0,-2.8839,-2.7435,-2.6691,-2.6691,-2.6691,-2.691,0.0,0.0,0.0,0.0,0.0,0.0,0.0,0.0,0.0,0.0,0.0,0.0,0.0,0.0,0.0,-4.2177,-4.1669,-4.101,-4.0232,-3.8646,-3.7252,-3.6198,-3.4365,-3.28,-3.1386,-3.0645,-3.0118,-2.9792,-2.9792,-2.9792,-2.9792,-2.9792,0.0,0.0,-2.9691,-2.9189,-2.8298,-2.8511,-2.8059,-2.7256,-2.703,-2.7214,-2.7689,0.0,0.0,0.0,0.0,0.0,0.0,0.0,0.0,0.0,0.0,0.0,0.0,0.0,0.0,0.0,0.0,0.0,0.0,0.0,0.0,0.0,0.0,0.0,0.0,0.0,0.0,0.0,0.0,0.0,0.0,0.0,0.0,0.0,0.0,0.0,0.0,0.0,0.0,0.0,0.0,0.0,0.0,0.0,0.0,0.0,0.0,0.0,0.0,0.0,0.0,0.0,0.0,0.0,0.0,0.0,0.0,-4.117,-4.4773,-4.802,-5.0727,-5.2435,-5.1708,-4.8308,-4.4079,0.0,0.0,-3.092,-2.8313,-2.7215,-2.6691,-2.6691,-2.6522,-2.6336,0.0,0.0,0.0,0.0,0.0,0.0,0.0,0.0,0.0,0.0,0.0,0.0,0.0,0.0,0.0,-4.0846,-4.0995,-4.0666,-3.9738,-3.8156,-3.6859,-3.5949,-3.4033,-3.2465,-3.116,-3.062,-3.0168,-2.9792,-2.9792,-2.9934,-3.0216,-2.9934,0.0,0.0,-2.9934,-2.9453,-2.8925,-2.8925,-2.8348,-2.7507,-2.7344,-2.7549,-2.804,0.0,0.0,0.0,0.0,0.0,0.0,0.0,0.0,0.0,0.0,0.0,0.0,0.0,0.0,0.0,0.0,0.0,0.0,0.0,0.0,0.0,0.0,0.0,0.0,0.0,0.0,0.0,0.0,0.0,0.0,0.0,0.0,0.0,0.0,0.0,0.0,0.0,0.0,0.0,0.0,0.0,0.0,0.0,0.0,0.0,0.0,0.0,0.0,0.0,0.0,0.0,0.0,0.0,0.0,0.0,0.0,-3.6079,-4.0663,-4.2895,-4.5703,-4.78,-4.7056,-4.4045,-4.0476,0.0,0.0,-2.9685,-2.811,-2.7215,-2.6691,-2.6691,-2.6099,-2.5479,-2.5078,0.0,0.0,0.0,0.0,0.0,0.0,0.0,0.0,0.0,0.0,0.0,0.0,0.0,0.0,-3.9514,-4.0053,-4.0397,-4.0382,-3.7642,-3.5935,-3.5446,-3.2761,-3.1135,-3.062,-3.0068,-2.9804,-2.9792,-2.9792,-3.0279,0.0,0.0,0.0,0.0,-3.0216,-2.9453,-2.8925,-2.8925,-2.8586,-2.8034,-2.7482,-2.778,-2.8609,0.0,0.0,0.0,0.0,0.0,0.0,0.0,0.0,0.0,0.0,0.0,0.0,0.0,0.0,0.0,0.0,0.0,0.0,0.0,0.0,0.0,0.0,0.0,0.0,0.0,0.0,0.0,0.0,0.0,0.0,0.0,0.0,0.0,0.0,0.0,0.0,0.0,0.0,0.0,0.0,0.0,0.0,0.0,0.0,0.0,0.0,0.0,0.0,0.0,0.0,0.0,0.0,0.0,0.0,0.0,0.0,0.0,0.0,-3.7347,-3.9918,-4.1644,-4.0899,-3.9039,-3.662,-3.3643,0.0,-2.8772,-2.6725,-2.6116,-2.5729,-2.4913,-2.4613,-2.4596,-2.5074,-2.4846,0.0,0.0,0.0,0.0,0.0,0.0,0.0,0.0,0.0,0.0,0.0,0.0,0.0,-3.9469,-3.9619,-3.9723,-3.9723,-3.8428,-3.6977,-3.5432,-3.3715,-3.2159,-3.0608,-3.0689,-3.0419,-2.9792,-3.0482,-3.0895,0.0,0.0,0.0,0.0,-3.0419,-3.0101,-3.041,-2.9796,-2.8938,-2.8084,-2.7908,-2.8287,-2.8893,0.0,0.0,0.0,0.0,0.0,0.0,0.0,0.0,0.0,0.0,0.0,0.0,0.0,0.0,0.0,0.0,0.0,0.0,0.0,0.0,0.0,0.0,0.0,0.0,0.0,0.0,0.0,0.0,0.0,0.0,0.0,0.0,0.0,0.0,0.0,0.0,0.0,0.0,0.0,0.0,0.0,0.0,-2.231,0.0,0.0,0.0,0.0,0.0,0.0,0.0,0.0,0.0,0.0,0.0,0.0,0.0,-2.5584,0.0,0.0,-3.4759,-3.6349,-3.5893,-3.4658,-3.2899,-3.048,0.0,-2.7232,-2.5541,-2.5058,-2.4745,-2.4034,-2.3539,-2.3434,-2.4058,-2.403,0.0,0.0,0.0,0.0,0.0,0.0,0.0,0.0,0.0,0.0,0.0,0.0,0.0,-3.9439,-3.9424,-3.9424,-3.9424,-3.8364,-3.7114,-3.5602,-3.4224,-3.2597,-3.0868,-3.1426,-3.1267,-3.0343,-3.1328,-3.1888,0.0,0.0,0.0,0.0,-3.1476,-3.1193,-3.1609,-3.0696,-2.9792,-2.8984,-2.8984,-2.9257,-2.9744,0.0,0.0,0.0,0.0,0.0,0.0,0.0,0.0,0.0,0.0,0.0,0.0,0.0,0.0,0.0,0.0,0.0,0.0,0.0,0.0,0.0,0.0,0.0,0.0,0.0,0.0,0.0,0.0,-2.143,-2.1628,-2.1658,0.0,0.0,0.0,0.0,0.0,0.0,0.0,0.0,0.0,0.0,0.0,0.0,0.0,0.0,0.0,0.0,0.0,0.0,0.0,0.0,0.0,0.0,0.0,0.0,0.0,0.0,0.0,0.0,0.0,0.0,0.0,-3.0666,-2.933,-2.7806,0.0,0.0,-2.456,-2.4078,-2.3803,-2.3819,-2.2865,-2.2166,-2.2574,0.0,0.0,0.0,0.0,0.0,0.0,0.0,0.0,0.0,0.0,0.0,0.0,0.0,0.0,-3.9349,-3.9394,-3.9394,-3.9349,-3.774,-3.6562,-3.5985,-3.4279,-3.2722,-3.1315,-3.2249,-3.2249,-3.1315,-3.2249,-3.3171,0.0,0.0,0.0,0.0,-3.3031,-3.2664,-3.2593,-3.1669,-3.0983,-3.0493,-3.0493,-3.0659,-3.0999,0.0,0.0,0.0,0.0,0.0,0.0,0.0,0.0,0.0,0.0,0.0,0.0,0.0,0.0,0.0,0.0,0.0,0.0,0.0,0.0,0.0,0.0,0.0,0.0,0.0,0.0,0.0,-2.146,-2.1552,-2.1794,-2.2135,-2.2254,0.0,0.0,0.0,0.0,0.0,0.0,0.0,0.0,0.0,0.0,0.0,0.0,0.0,0.0,-2.231,-2.2426,0.0,0.0,0.0,0.0,0.0,0.0,0.0,0.0,-2.2987,-2.3047,-2.3943,0.0,-2.6217,-2.5625,-2.5642,-2.5558,0.0,0.0,0.0,0.0,0.0,-2.303,-2.3162,-2.2283,-2.2251,0.0,0.0,0.0,0.0,0.0,0.0,0.0,0.0,0.0,0.0,0.0,0.0,0.0,0.0,-3.9185,-3.8661,-3.9125,-3.917,-3.8646,-3.7749,-3.6884,-3.5985,-3.4581,-3.3312,-3.2321,-3.3241,-3.3171,-3.2321,-3.3241,-3.3808,0.0,0.0,0.0,-3.5001,-3.3325,-3.3031,-3.3602,-3.2664,-3.1952,-3.1501,-3.1501,-3.1662,-3.1882,0.0,0.0,0.0,0.0,0.0,0.0,0.0,0.0,0.0,0.0,0.0,0.0,0.0,0.0,0.0,0.0,0.0,0.0,0.0,0.0,0.0,0.0,0.0,0.0,0.0,0.0,0.0,0.0,0.0,-2.213,0.0,0.0,0.0,0.0,0.0,0.0,0.0,0.0,0.0,0.0,-2.231,0.0,0.0,0.0,0.0,0.0,-2.2473,-2.2678,0.0,-2.2923,-2.3141,-2.3414,0.0,0.0,0.0,0.0,-2.3093,-2.2695,-2.2755,-2.3596,-2.4421,-2.3985,-2.4188,-2.4404,-2.4015,0.0,0.0,0.0,0.0,0.0,-2.246,0.0,0.0,0.0,0.0,0.0,0.0,0.0,0.0,0.0,0.0,0.0,0.0,0.0,0.0,0.0,0.0,-3.899,-3.7988,-3.8886,-3.896,-3.7973,-3.7599,-3.7183,-3.6652,-3.5321,-3.4177,-3.3241,-3.4259,-3.4177,-3.3241,-3.4259,-3.4691,0.0,0.0,0.0,-3.5439,-3.4341,-3.4259,-3.461,-3.3602,-3.303,-3.2817,-3.2817,-3.2876,-3.3071,0.0,0.0,0.0,0.0,0.0,0.0,0.0,0.0,0.0,0.0,0.0,0.0,0.0,0.0,0.0,0.0,0.0,0.0,0.0,0.0,0.0,0.0,0.0,0.0,0.0,0.0,0.0,0.0,0.0,0.0,0.0,0.0,0.0,0.0,0.0,0.0,0.0,0.0,0.0,0.0,-2.231,0.0,0.0,0.0,0.0,0.0,0.0,0.0,0.0,-2.3277,-2.35,-2.3774,-2.3774,0.0,0.0,0.0,0.0,0.0,-2.2849,-2.3766,-2.4652,-2.4269,-2.4337,-2.4472,-2.4371,0.0,0.0,0.0,0.0,0.0,0.0,0.0,0.0,0.0,0.0,0.0,0.0,0.0,0.0,0.0,0.0,0.0,0.0,0.0,0.0,0.0,0.0,-3.8571,-3.733,-3.8437,-3.8542,-3.73,-3.727,-3.727,-3.727,-3.6103,-3.5067,-3.4245,-3.5067,-3.5052,-3.4245,-3.5133,-3.5504,-3.5504,0.0,0.0,-3.5504,-3.5504,-3.5504,-3.5439,-3.4543,-3.4245,-3.4245,-3.4245,-3.4245,-3.4327,0.0,0.0,0.0,0.0,0.0,0.0,0.0,0.0,0.0,0.0,0.0,0.0,0.0,0.0,0.0,0.0,0.0,0.0,0.0,0.0,0.0,0.0,0.0,0.0,0.0,0.0,0.0,0.0,0.0,0.0,-2.2377,-2.2563,-2.2797,0.0,0.0,0.0,0.0,-2.2415,-2.231,-2.231,-2.231,0.0,0.0,0.0,0.0,0.0,0.0,0.0,0.0,-2.361,-2.3855,-2.4113,-2.4113,0.0,0.0,0.0,0.0,0.0,-2.3206,-2.446,-2.5347,-2.3192,-2.3579,-2.4354,-2.3697,0.0,0.0,0.0,0.0,0.0,0.0,0.0,0.0,0.0,0.0,0.0,0.0,0.0,0.0,0.0,0.0,0.0,0.0,0.0,0.0,0.0,0.0,0.0,-3.6671,-3.733,-3.7389,-3.6656,-3.6626,-3.6626,-3.6626,-3.5878,-3.5424,-3.5279,-3.5439,-3.5439,-3.5279,-3.5439,-3.5504,-3.5504,0.0,-3.5504,-3.5504,-3.5504,-3.5504,-3.5504,-3.5359,-3.5279,-3.5279,-3.5279,-3.5279,-3.5279,0.0,0.0,0.0,0.0,0.0,0.0,0.0,0.0,0.0,0.0,0.0,0.0,0.0,0.0,0.0,0.0,0.0,0.0,0.0,0.0,0.0,0.0,0.0,0.0,0.0,0.0,0.0,0.0,0.0,-2.247,-2.2798,-2.3087,-2.323,-2.3189,0.0,0.0,0.0,-2.2832,-2.2773,-2.2773,0.0,0.0,0.0,0.0,0.0,0.0,0.0,0.0,0.0,0.0,-2.4074,-2.419,-2.419,0.0,0.0,0.0,0.0,0.0,-2.3236,-2.3911,-2.4364,-2.3168,-2.4289,-2.549,-2.4763,0.0,0.0,0.0,0.0,0.0,0.0,0.0,0.0,0.0,0.0,0.0,0.0,0.0,0.0,0.0,0.0,0.0,0.0,0.0,0.0,0.0,0.0,0.0,-3.6013,-3.6881,-3.6971,-3.5983,-3.6297,-3.6312,-3.5953,-3.5654,-3.5504,-3.5504,-3.5504,-3.5504,-3.5504,-3.5504,-3.5504,-3.5504,0.0,-3.5504,-3.5504,-3.5504,-3.5504,-3.5504,-3.5504,-3.5504,-3.5504,-3.5504,-3.5504,-3.5504,0.0,0.0,0.0,0.0,0.0,0.0,0.0,0.0,0.0,0.0,0.0,0.0,0.0,0.0,0.0,0.0,0.0,0.0,0.0,0.0,0.0,0.0,0.0,0.0,0.0,0.0,0.0,-2.2371,-2.2371,-2.2695,-2.3305,-2.3566,-2.3588,0.0,0.0,0.0,0.0,-2.3236,-2.3189,-2.3189,0.0,0.0,0.0,0.0,0.0,0.0,0.0,0.0,0.0,0.0,0.0,0.0,0.0,0.0,0.0,-2.419,-2.3774,-2.33,-2.3212,-2.3354,-2.3459,-2.3219,0.0,-2.6167,-2.6133,0.0,0.0,0.0,0.0,0.0,0.0,0.0,0.0,0.0,0.0,0.0,0.0,0.0,0.0,0.0,0.0,0.0,0.0,0.0,0.0,0.0,0.0,0.0,-3.5549,-3.6432,-3.6522,-3.5534,-3.5998,-3.6013,-3.5504,-3.5504,-3.5504,-3.5504,-3.5504,-3.5504,-3.5504,-3.5504,-3.5504,-3.5504,-3.5504,-3.5504,-3.5504,-3.5504,-3.5504,-3.5504,-3.5504,-3.5504,-3.5504,-3.5504,-3.5504,-3.5504,0.0,0.0,0.0,0.0,0.0,0.0,0.0,0.0,0.0,0.0,0.0,0.0,0.0,0.0,0.0,0.0,0.0,0.0,0.0,0.0,0.0,0.0,0.0,0.0,0.0,-2.2426,-2.2426,-2.2669,-2.2669,-2.3021,-2.3671,-2.3692,-2.3837,-2.4113,0.0,0.0,0.0,-2.3346,-2.3189,-2.3189,-2.3189,0.0,0.0,0.0,0.0,0.0,0.0,0.0,0.0,0.0,0.0,0.0,0.0,0.0,-2.419,-2.419,-2.3955,-2.3606,-2.3282,-2.3517,-2.3633,-2.2632,-2.3528,0.0,-2.7199,0.0,0.0,0.0,0.0,0.0,0.0,0.0,0.0,0.0,0.0,0.0,0.0,0.0,0.0,0.0,0.0,0.0,0.0,0.0,0.0,0.0,0.0,0.0,-3.5504,-3.5594,-3.5594,-3.5504,-3.5549,-3.5549,-3.5504,-3.5504,-3.5504,-3.5504,-3.5504,-3.5504,-3.5504,-3.5504,-3.5504,-3.5504,-3.5504,-3.5504,-3.5504,-3.5504,-3.5504,-3.5504,-3.5504,-3.5504,-3.5504,-3.5504,-3.5504,-3.5504,0.0,0.0,0.0,0.0,0.0,0.0,0.0,0.0,0.0,0.0,0.0,0.0,0.0,0.0,0.0,0.0,0.0,0.0,0.0,0.0,0.0,0.0,0.0,-2.2426,-2.2695,-2.2599,-2.2704,-2.3021,-2.3212,-2.3437,-2.3714,-2.404,0.0,0.0,0.0,0.0,0.0,-2.3939,-2.3816,-2.3816,-2.3816,-2.3816,0.0,0.0,0.0,0.0,0.0,0.0,0.0,0.0,-2.419,-2.419,0.0,0.0,-2.419,-2.419,-2.3958,-2.3628,-2.33,-2.3543,-2.3746,-2.3124,0.0,0.0,0.0,0.0,0.0,0.0,0.0,0.0,0.0,0.0,0.0,0.0,0.0,0.0,0.0,0.0,0.0,0.0,0.0,0.0,0.0,0.0,0.0,0.0,0.0,0.0,0.0,-3.5504,-3.5504,-3.5504,-3.5504,-3.5504,-3.5504,-3.5504,-3.5504,-3.5504,-3.5504,-3.5504,-3.5504,-3.5504,-3.5504,-3.5504,-3.5504,-3.5504,-3.5504,-3.5504,-3.5504,-3.5504,-3.5504,-3.5504,-3.5504,-3.5504,-3.5504,-3.5504,0.0,0.0,0.0,0.0,0.0,0.0,0.0,0.0,0.0,0.0,0.0,0.0,0.0,0.0,0.0,0.0,0.0,0.0,0.0,0.0,0.0,0.0,0.0,-2.2426,-2.2695,-2.2797,-2.2972,-2.3189,-2.3544,-2.3735,-2.3876,0.0,0.0,0.0,0.0,0.0,0.0,0.0,-2.4339,-2.4284,-2.4284,-2.4266,0.0,0.0,0.0,0.0,0.0,0.0,0.0,0.0,0.0,0.0,0.0,0.0,0.0,0.0,-2.3958,-2.3649,-2.3414,-2.3517,-2.3606,0.0,0.0,0.0,0.0,0.0,0.0,0.0,0.0,0.0,0.0,0.0,0.0,0.0,0.0,0.0,0.0,0.0,0.0,0.0,0.0,0.0,0.0,0.0,0.0,0.0,0.0,0.0,0.0,-3.5175,-3.5175,-3.5175,-3.4981,-3.507,-3.5504,-3.5295,-3.5295,-3.5504,-3.5504,-3.5504,-3.5504,-3.5504,-3.5504,-3.5504,-3.5504,-3.5504,-3.5504,-3.5504,-3.5504,-3.5504,-3.5504,-3.5504,-3.5504,-3.5504,-3.5504,-3.5504,0.0,0.0,0.0,0.0,0.0,0.0,0.0,0.0,0.0,0.0,0.0,0.0,0.0,0.0,0.0,0.0,0.0,0.0,0.0,0.0,0.0,0.0,0.0,-2.2426,-2.2695,-2.3021,-2.3212,-2.3212,-2.3544,-2.3858,-2.419,0.0,0.0,0.0,0.0,0.0,0.0,0.0,-2.4685,-2.4512,-2.4495,-2.4375,-2.419,0.0,0.0,0.0,0.0,0.0,0.0,0.0,-2.419,0.0,0.0,0.0,0.0,0.0,-2.3958,-2.3692,-2.3692,-2.3477,0.0,0.0,0.0,0.0,0.0,0.0,0.0,0.0,0.0,0.0,0.0,0.0,0.0,0.0,0.0,0.0,0.0,0.0,0.0,0.0,0.0,0.0,0.0,0.0,0.0,0.0,0.0,0.0,0.0,-3.4472,-3.4472,-3.4472,-3.3844,-3.4143,-3.5474,-3.4801,-3.4801,-3.5489,-3.5489,-3.5489,-3.5504,-3.5504,-3.5504,-3.5504,-3.5504,-3.5504,-3.5504,-3.5504,-3.5504,-3.5504,-3.5504,-3.5504,-3.5504,-3.5504,-3.5504,-3.5504,0.0,0.0,0.0,0.0,0.0,0.0,0.0,0.0,0.0,0.0,0.0,0.0,0.0,0.0,0.0,0.0,0.0,0.0,0.0,0.0,0.0,0.0,0.0,0.0,0.0,0.0,-2.3671,-2.3896,-2.3996,-2.4094,0.0,0.0,0.0,-2.4428,0.0,0.0,0.0,0.0,0.0,-2.47,-2.4561,-2.4461,-2.4393,0.0,0.0,0.0,0.0,0.0,0.0,0.0,0.0,0.0,0.0,0.0,0.0,-2.419,-2.4132,-2.3996,-2.3756,-2.4001,0.0,0.0,0.0,0.0,0.0,0.0,0.0,0.0,0.0,0.0,0.0,0.0,0.0,0.0,0.0,0.0,0.0,0.0,0.0,0.0,0.0,0.0,0.0,0.0,0.0,0.0,0.0,0.0,0.0,-3.3784,-3.3784,-3.3784,-3.3589,-3.3679,-3.4083,-3.3888,-3.3888,-3.4098,-3.4562,-3.504,-3.5504,-3.5504,-3.5504,-3.5504,-3.5504,-3.5504,-3.5504,-3.5504,-3.5504,-3.5504,-3.5504,-3.5504,-3.5504,-3.5504,-3.5504,-3.5504,0.0,0.0,0.0,0.0,0.0,0.0,0.0,0.0,0.0,0.0,0.0,0.0,0.0,0.0,0.0,0.0,0.0,0.0,0.0,0.0,0.0,0.0,0.0,0.0,0.0,-2.3482,-2.3858,0.0,0.0,0.0,0.0,0.0,0.0,-2.4393,0.0,0.0,0.0,0.0,-2.4877,-2.4864,-2.4682,-2.4559,-2.4495,0.0,0.0,0.0,0.0,0.0,0.0,0.0,0.0,0.0,0.0,0.0,0.0,-2.419,-2.419,-2.4151,-2.3937,0.0,0.0,0.0,0.0,0.0,0.0,0.0,0.0,0.0,0.0,0.0,0.0,0.0,0.0,0.0,0.0,0.0,0.0,0.0,0.0,0.0,0.0,0.0,0.0,0.0,0.0,0.0,0.0,0.0,0.0,-3.3095,-3.3095,-3.3095,-3.2856,-3.2961,-3.3484,-3.3245,-3.3245,-3.3499,-3.3903,-3.4307,-3.4726,-3.5265,-3.5504,-3.5504,-3.5504,-3.5504,-3.5504,-3.5504,-3.5504,-3.5504,-3.5504,-3.5504,-3.5504,-3.5504,-3.5325,-3.51,0.0,0.0,0.0,0.0,0.0,0.0,0.0,0.0,0.0,0.0,0.0,0.0,0.0,0.0,0.0,0.0,0.0,0.0,0.0,0.0,0.0,0.0,0.0,0.0,0.0,0.0,0.0,0.0,0.0,0.0,0.0,0.0,-2.419,-2.4209,0.0,-2.4623,0.0,0.0,-2.5022,-2.501,-2.4864,-2.4716,-2.4543,-2.4526,0.0,0.0,0.0,0.0,0.0,0.0,0.0,0.0,0.0,0.0,-2.419,-2.419,-2.419,-2.419,0.0,0.0,0.0,0.0,0.0,0.0,0.0,0.0,0.0,0.0,0.0,0.0,0.0,0.0,0.0,0.0,0.0,0.0,0.0,0.0,0.0,0.0,0.0,0.0,0.0,0.0,0.0,0.0,0.0,0.0,0.0,-3.2347,-3.2405,-3.2404,-3.1938,-3.2238,-3.3382,-3.2855,-3.2885,-3.3427,-3.3487,-3.3456,-3.3455,-3.4801,-3.5444,-3.5504,-3.5504,-3.5504,-3.5504,-3.5504,-3.5504,-3.5504,-3.5504,-3.5474,-3.5415,-3.5489,-3.504,-3.4412,0.0,0.0,0.0,0.0,0.0,0.0,0.0,0.0,0.0,0.0,0.0,0.0,0.0,0.0,0.0,0.0,0.0,0.0,0.0,0.0,0.0,0.0,0.0,0.0,0.0,0.0,0.0,0.0,0.0,0.0,0.0,0.0,0.0,-2.4209,0.0,-2.476,0.0,0.0,-2.5243,-2.5214,-2.5041,-2.4937,-2.4885,-2.4771,-2.4716,0.0,0.0,0.0,0.0,0.0,0.0,0.0,-2.419,-2.419,-2.419,-2.419,-2.419,-2.419,0.0,0.0,0.0,0.0,0.0,0.0,0.0,0.0,0.0,0.0,0.0,0.0,0.0,0.0,0.0,0.0,0.0,0.0,0.0,0.0,0.0,0.0,0.0,0.0,0.0,0.0,0.0,0.0,0.0,0.0,-3.0891,-3.1467,-3.1765,-3.1656,-3.2641,-3.3019,-3.273,-3.3161,-3.3177,0.0,-3.3264,-3.3236,-3.2766,-3.4098,-3.4996,-3.5504,-3.5504,-3.5504,-3.5504,-3.5504,-3.5504,-3.5504,-3.5504,-3.5175,-3.4756,-3.531,-3.4741,-3.3858,0.0,0.0,0.0,0.0,0.0,0.0,0.0,0.0,0.0,0.0,0.0,0.0,0.0,0.0,0.0,0.0,0.0,0.0,0.0,0.0,0.0,0.0,0.0,0.0,0.0,0.0,0.0,0.0,0.0,0.0,0.0,0.0,0.0,-2.4357,0.0,-2.4828,0.0,0.0,-2.5214,-2.5274,-2.5088,-2.501,-2.4998,-2.4911,-2.4855,-2.4818,-2.4864,0.0,0.0,0.0,0.0,0.0,0.0,0.0,-2.419,-2.419,-2.419,-2.419,0.0,0.0,0.0,0.0,0.0,0.0,0.0,0.0,0.0,0.0,0.0,0.0,0.0,0.0,0.0,0.0,0.0,0.0,0.0,0.0,0.0,0.0,0.0,0.0,0.0,0.0,0.0,0.0,0.0,-3.0438,-3.049,-3.1123,-3.1442,-3.1406,-3.2157,-3.2364,-3.1964,-3.2348,-3.2565,-3.2568,-3.2845,-3.3201,-3.3512,-3.4212,-3.4666,-3.504,-3.5355,-3.5325,-3.504,-3.537,-3.5504,-3.5474,-3.5145,-3.4801,-3.4517,-3.4876,-3.4367,-3.3649,0.0,0.0,0.0,0.0,0.0,0.0,0.0,0.0,0.0,0.0,0.0,0.0,0.0,0.0,0.0,0.0,0.0,0.0,0.0,0.0,0.0,0.0,0.0,0.0,0.0,0.0,0.0,0.0,0.0,0.0,0.0,0.0,0.0,-2.4559,0.0,0.0,0.0,0.0,0.0,0.0,0.0,-2.5046,-2.5046,-2.5046,-2.4981,-2.4896,-2.5018,-2.4845,-2.4572,-2.4559,0.0,0.0,0.0,0.0,-2.419,-2.419,-2.419,-2.419,0.0,0.0,0.0,0.0,0.0,0.0,0.0,0.0,0.0,0.0,0.0,0.0,0.0,0.0,0.0,0.0,0.0,0.0,0.0,0.0,0.0,0.0,0.0,0.0,0.0,0.0,0.0,0.0,0.0,-3.0672,-3.0297,-3.099,-3.1405,-3.1386,-3.1612,-3.1676,-3.1563,-3.1676,-3.1983,-3.2481,-3.251,-3.3179,-3.4404,-3.4358,-3.436,-3.4495,-3.497,-3.4831,-3.4352,-3.4921,-3.516,-3.51,-3.4532,-3.4247,-3.4158,-3.4262,-3.3814,-3.326,0.0,0.0,0.0,0.0,0.0,0.0,0.0,0.0,0.0,0.0,0.0,0.0,0.0,0.0,0.0,0.0,0.0,0.0,-2.1532,0.0,0.0,-2.3592,0.0,0.0,0.0,0.0,0.0,0.0,0.0,0.0,0.0,0.0,0.0,0.0,0.0,0.0,0.0,0.0,0.0,0.0,0.0,0.0,-2.5264,-2.5264,-2.5253,-2.5233,-2.5253,-2.513,-2.4924,-2.4799,-2.4623,0.0,0.0,0.0,-2.419,-2.419,-2.419,0.0,0.0,0.0,0.0,0.0,0.0,0.0,0.0,0.0,0.0,0.0,0.0,0.0,0.0,0.0,0.0,0.0,0.0,0.0,0.0,0.0,0.0,0.0,0.0,0.0,0.0,0.0,0.0,0.0,-2.8299,-2.8897,-2.9326,-3.0674,-3.1361,-3.1237,-3.2463,-3.2815,-3.2202,-3.2798,-3.289,-3.2387,-3.2466,-3.2873,-3.3618,-3.3637,-3.3921,-3.4491,-3.3985,-3.3709,-3.3634,-3.3724,-3.3769,-3.3754,-3.3664,-3.3275,-3.2841,-3.3425,-3.2841,-3.1973,0.0,0.0,0.0,0.0,0.0,0.0,0.0,0.0,0.0,0.0,0.0,0.0,0.0,0.0,0.0,-2.1153,-2.115,-2.112,-2.1109,-2.226,-2.2966,-2.3022,-2.364,0.0,0.0,0.0,0.0,0.0,0.0,0.0,0.0,-2.4737,-2.4836,0.0,0.0,0.0,0.0,0.0,0.0,0.0,0.0,0.0,0.0,0.0,-2.5024,-2.4697,-2.5139,-2.5163,-2.4998,-2.4924,-2.4723,-2.4478,-2.4393,0.0,0.0,0.0,0.0,0.0,0.0,0.0,0.0,0.0,0.0,0.0,0.0,0.0,0.0,0.0,0.0,0.0,0.0,0.0,0.0,0.0,0.0,0.0,0.0,0.0,0.0,0.0,0.0,0.0,0.0,0.0,0.0,0.0,-2.8312,-2.8652,-2.8573,-2.952,-3.0029,-2.9973,-3.1004,-3.141,-3.1072,-3.1799,-3.2235,-3.2369,-3.3222,-3.3796,-3.4079,-3.4117,-3.4026,-3.3898,-3.3653,-3.329,-3.2976,-3.335,-3.3499,-3.3455,-3.3095,-3.2766,-3.2557,-3.2841,-3.2587,-3.2272,0.0,0.0,0.0,0.0,0.0,0.0,0.0,0.0,0.0,0.0,0.0,0.0,0.0,0.0,0.0,0.0,-2.1888,-2.1808,-2.1288,-2.2674,-2.3345,-2.2944,-2.3763,-2.419,0.0,0.0,0.0,0.0,0.0,0.0,-2.4804,-2.4993,-2.5077,0.0,-2.5224,0.0,0.0,0.0,0.0,0.0,0.0,0.0,0.0,0.0,0.0,0.0,-2.5005,-2.5203,-2.5077,-2.5022,-2.4831,-2.4604,-2.4545,-2.4393,0.0,0.0,0.0,0.0,0.0,0.0,0.0,0.0,0.0,0.0,0.0,0.0,0.0,0.0,0.0,0.0,0.0,0.0,0.0,0.0,0.0,0.0,0.0,0.0,0.0,0.0,0.0,0.0,0.0,0.0,0.0,0.0,-2.778,-2.8,-2.7781,-2.8333,-2.8772,-2.8975,-2.9533,-2.9922,-3.0108,-3.0835,-3.1461,-3.2019,-3.3322,-3.3931,-3.3947,-3.3859,-3.3512,-3.2983,-3.316,-3.2885,-3.2302,-3.2796,-3.2991,-3.2946,-3.2452,-3.2273,-3.2273,-3.2273,-3.2375,-3.2654,0.0,0.0,0.0,0.0,0.0,0.0,0.0,0.0,0.0,0.0,0.0,0.0,-2.1547,-2.1461,-2.1922,-2.3419,-2.2664,-2.221,-2.2504,-2.2829,-2.3364,-2.4079,-2.4171,0.0,-2.419,0.0,0.0,0.0,0.0,0.0,-2.4804,-2.5138,-2.5274,-2.5274,-2.5303,-2.5303,-2.5303,0.0,0.0,0.0,0.0,0.0,0.0,0.0,0.0,0.0,0.0,0.0,-2.5264,-2.5057,-2.4998,-2.4924,-2.4588,-2.4495,-2.4444,0.0,0.0,0.0,0.0,0.0,0.0,0.0,0.0,0.0,0.0,0.0,0.0,0.0,0.0,0.0,0.0,0.0,0.0,0.0,0.0,0.0,0.0,0.0,0.0,0.0,0.0,0.0,0.0,0.0,0.0,0.0,-2.5372,-2.6049,-2.6742,-2.7451,-2.8213,-2.8958,-2.9062,-2.9381,-3.0108,-3.0835,-3.1207,-3.1258,-3.2019,-3.2391,-3.2408,-3.187,-3.1646,-3.1613,-3.2357,-3.2252,-3.1526,-3.1556,-3.1571,-3.1571,-3.1541,-3.1526,-3.1526,-3.1526,-3.2012,-3.2594,0.0,0.0,0.0,0.0,0.0,0.0,0.0,0.0,0.0,0.0,0.0,0.0,0.0,-2.2447,-2.261,-2.3194,-2.3015,-2.2684,-2.2236,-2.3433,-2.4033,-2.3752,-2.4163,-2.4393,-2.4393,-2.4284,0.0,0.0,0.0,-2.4804,-2.4804,-2.5138,-2.5303,-2.5303,-2.5303,-2.5303,-2.5303,-2.5341,0.0,0.0,0.0,0.0,0.0,0.0,0.0,0.0,0.0,0.0,0.0,-2.5214,-2.5099,-2.4986,-2.4858,-2.4663,-2.4461,0.0,0.0,0.0,0.0,0.0,0.0,0.0,0.0,0.0,0.0,0.0,0.0,0.0,0.0,0.0,0.0,0.0,0.0,0.0,0.0,0.0,0.0,0.0,0.0,0.0,0.0,0.0,0.0,0.0,0.0,0.0,0.0,-2.5,-2.5253,-2.5998,-2.6522,-2.681,-2.774,-2.8839,-3.0091,-3.0362,-3.0734,-3.1207,-3.1935,-3.2313,-3.2307,-3.221,-3.1913,-3.1502,-3.1381,-3.0914,-3.0342,-3.118,-3.127,-3.0911,-3.1302,-3.1482,-3.1482,-3.1482,-3.1951,-3.2641,0.0,0.0,0.0,0.0,0.0,0.0,0.0,0.0,0.0,0.0,0.0,0.0,0.0,0.0,-2.3297,-2.3575,-2.3726,-2.3558,-2.2974,-2.4124,-2.454,-2.3955,-2.4351,-2.4591,-2.4591,-2.441,0.0,0.0,0.0,0.0,0.0,0.0,-2.5303,-2.5303,-2.5303,-2.5303,0.0,0.0,0.0,-2.5284,0.0,0.0,-2.336,0.0,0.0,0.0,0.0,0.0,0.0,0.0,0.0,0.0,0.0,0.0,0.0,0.0,0.0,0.0,0.0,0.0,0.0,0.0,0.0,0.0,0.0,0.0,0.0,0.0,0.0,0.0,0.0,0.0,0.0,0.0,0.0,0.0,0.0,0.0,0.0,0.0,0.0,0.0,0.0,0.0,0.0,0.0,0.0,0.0,-2.4489,-2.4949,-2.5456,-2.5947,-2.7182,-2.8279,-2.933,-2.96,-2.9973,-3.0463,-3.0937,-3.1213,-3.119,-3.1349,-3.1172,-3.0723,-3.0592,-3.0186,-2.9654,-3.0522,-3.0731,-3.0552,-3.1001,-3.133,-3.1524,-3.1796,-3.2312,-3.3039,0.0,0.0,0.0,0.0,0.0,0.0,0.0,0.0,0.0,0.0,0.0,0.0,0.0,0.0,0.0,-2.4728,-2.4804,-2.4804,-2.4804,-2.4818,-2.4818,-2.4818,-2.4818,-2.4804,-2.4804,-2.4607,0.0,0.0,0.0,0.0,0.0,0.0,-2.5303,0.0,-2.5303,-2.5303,-2.5303,0.0,-2.5303,-2.5226,0.0,-2.4129,-2.411,0.0,0.0,0.0,-2.5005,-2.5303,0.0,0.0,0.0,0.0,0.0,0.0,0.0,0.0,0.0,0.0,0.0,0.0,0.0,0.0,0.0,0.0,0.0,0.0,0.0,0.0,0.0,0.0,0.0,0.0,0.0,0.0,0.0,0.0,0.0,0.0,0.0,0.0,0.0,0.0,0.0,0.0,0.0,0.0,-2.231,-2.2919,-2.4371,-2.4489,-2.5184,-2.6623,-2.7402,-2.7772,-2.7789,-2.8569,-2.8958,-2.9011,-2.9011,-2.9011,-2.8991,-2.9115,-2.9156,-2.9198,-2.9971,-3.0027,-2.9544,-2.9604,-2.9978,-3.0447,-3.0548,-3.0968,-3.161,-3.2367,-3.3039,-3.3735,0.0,0.0,0.0,0.0,0.0,0.0,0.0,0.0,0.0,0.0,0.0,0.0,0.0,-2.4445,-2.454,-2.4785,-2.4891,-2.4937,-2.4937,-2.5084,-2.516,-2.516,-2.5018,-2.4937,-2.4937,-2.4799,0.0,0.0,0.0,0.0,0.0,0.0,0.0,0.0,-2.5303,-2.5303,-2.5303,-2.5341,0.0,0.0,-2.512,-2.4659,0.0,0.0,0.0,0.0,0.0,-2.5303,0.0,0.0,-2.5303,-2.5264,0.0,0.0,0.0,0.0,0.0,0.0,-2.4545,0.0,0.0,0.0,0.0,0.0,0.0,0.0,0.0,0.0,0.0,0.0,0.0,0.0,0.0,0.0,0.0,0.0,0.0,0.0,0.0,0.0,0.0,0.0,0.0,0.0,0.0,0.0,-2.231,-2.2496,-2.2885,-2.39,-2.4915,-2.5879,-2.6623,-2.7266,-2.7772,-2.8027,-2.8416,-2.9011,-2.9011,-2.9011,-2.8975,-2.8174,-2.8054,-2.8401,-2.8351,-2.845,-2.8748,-2.9786,-3.0078,-2.9894,-3.0929,-3.1672,-3.2311,-3.3061,-3.3735,-3.4333,0.0,0.0,0.0,0.0,0.0,0.0,0.0,0.0,0.0,0.0,0.0,0.0,0.0,0.0,-2.5019,-2.5019,-2.5084,-2.5141,-2.5141,-2.5224,-2.5303,-2.5303,-2.5192,-2.5141,-2.5141,-2.4968,0.0,0.0,0.0,0.0,0.0,0.0,0.0,0.0,0.0,0.0,0.0,0.0,0.0,0.0,-2.5341,0.0,0.0,-2.512,-2.5005,0.0,0.0,0.0,-2.5303,-2.5303,-2.5303,0.0,0.0,0.0,0.0,0.0,0.0,0.0,0.0,0.0,0.0,0.0,0.0,0.0,-2.2042,-2.1803,0.0,0.0,0.0,0.0,0.0,0.0,0.0,0.0,0.0,0.0,0.0,0.0,0.0,0.0,0.0,0.0,0.0,-2.2544,-2.2517,-2.266,-2.2443,-2.2446,-2.275,-2.3849,-2.4678,-2.5118,-2.5558,-2.5981,-2.642,-2.642,-2.681,-2.7571,-2.7571,-2.774,-2.8044,-2.7694,-2.7558,-2.7701,-2.7989,-2.819,-2.843,-2.9526,-2.9927,-2.9939,-3.0788,-3.1476,-3.2157,-3.3193,-3.3795,-3.4244,0.0,0.0,0.0,0.0,0.0,0.0,0.0,0.0,0.0,0.0,0.0,0.0,0.0,0.0,0.0,-2.5303,-2.5303,-2.5303,-2.5303,-2.5303,-2.5303,-2.5303,-2.5322,-2.5322,-2.5322,-2.5141,0.0,0.0,0.0,0.0,0.0,0.0,0.0,0.0,0.0,0.0,0.0,0.0,0.0,-2.5303,-2.5303,-2.5303,0.0,0.0,-2.5303,0.0,-2.5303,-2.5303,-2.5303,-2.5303,-2.5303,0.0,0.0,0.0,0.0,0.0,-2.5091,0.0,0.0,0.0,0.0,0.0,0.0,0.0,-2.2281,-2.2005,-2.1601,0.0,0.0,0.0,0.0,0.0,0.0,0.0,0.0,0.0,0.0,0.0,0.0,0.0,0.0,0.0,-2.3065,-2.287,-2.2873,-2.3165,-2.2712,-2.2649,-2.3282,-2.4011,-2.4418,-2.4388,-2.4472,-2.4506,-2.4506,-2.4506,-2.4814,-2.549,-2.549,-2.5862,-2.659,-2.7197,-2.7322,-2.711,-2.8283,-2.8616,-2.8391,-2.8944,-2.9678,-3.0396,-3.0477,-3.0924,-3.1661,-3.3004,-3.3515,-3.366,-2.3448,0.0,0.0,0.0,0.0,0.0,0.0,0.0,0.0,0.0,0.0,0.0,0.0,0.0,0.0,0.0,-2.5303,-2.5303,-2.5303,-2.5341,-2.539,-2.539,-2.5428,-2.5466,-2.5466,-2.536,0.0,0.0,0.0,0.0,0.0,0.0,0.0,0.0,0.0,0.0,0.0,0.0,0.0,-2.5303,-2.5303,0.0,-2.5303,-2.5303,-2.5303,-2.5303,-2.5303,-2.5303,-2.5303,0.0,-2.5303,-2.5303,0.0,0.0,0.0,0.0,0.0,0.0,0.0,0.0,0.0,0.0,0.0,0.0,-2.2997,-2.3272,-2.3272,0.0,0.0,0.0,0.0,0.0,0.0,0.0,0.0,0.0,0.0,0.0,0.0,0.0,0.0,0.0,-2.2263,-2.2764,-2.3117,-2.3189,-2.3087,-2.2985,-2.2842,-2.3591,-2.3899,-2.3625,-2.4201,-2.4506,-2.4506,-2.4506,-2.456,-2.4695,-2.4695,-2.5101,-2.5779,-2.5513,-2.5896,-2.6808,-2.7278,-2.7624,-2.7975,-2.8723,-2.9543,-3.0385,-3.0959,-3.1576,-3.2211,-3.311,-3.3439,-3.354,-2.411,0.0,0.0,0.0,0.0,0.0,0.0,0.0,0.0,0.0,0.0,0.0,0.0,0.0,0.0,0.0,0.0,-2.5409,0.0,-2.5428,-2.5446,-2.5456,-2.5483,-2.5503,-2.5503,-2.5464,-2.5448,0.0,0.0,0.0,0.0,0.0,0.0,0.0,0.0,0.0,0.0,0.0,-2.5303,-2.5303,-2.5303,0.0,-2.5303,-2.5303,-2.5303,-2.5303,-2.5303,-2.5303,-2.5303,-2.5303,-2.5303,0.0,0.0,-2.5303,-2.5303,0.0,-2.5224,-2.5141,0.0,0.0,0.0,-2.467,0.0,0.0,0.0,-2.3451,-2.3379,-2.2077,0.0,0.0,0.0,0.0,0.0,0.0,0.0,0.0,0.0,0.0,0.0,0.0,0.0,0.0,-2.1922,-2.2482,-2.2959,-2.3177,-2.3346,-2.3282,-2.2972,-2.3154,-2.3221,-2.3048,-2.3289,-2.3393,-2.3393,-2.3393,-2.3579,-2.3934,-2.3934,-2.4323,-2.505,-2.5129,-2.538,-2.5814,-2.6566,-2.71,-2.752,-2.8123,-2.9114,-3.0256,-3.0606,-3.1153,-3.1833,-3.2577,-3.2848,-3.3,-2.4519,0.0,0.0,0.0,0.0,0.0,0.0,0.0,0.0,0.0,0.0,0.0,0.0,0.0,0.0,0.0,0.0,0.0,0.0,0.0,-2.552,-2.5523,-2.5522,-2.5543,-2.5543,-2.5524,-2.5512,0.0,0.0,0.0,0.0,0.0,0.0,0.0,0.0,0.0,0.0,0.0,0.0,-2.5303,0.0,-2.5303,-2.5303,-2.5303,-2.5303,-2.5303,-2.5303,-2.5303,-2.5303,-2.5303,0.0,-2.5303,-2.5303,-2.5303,0.0,0.0,0.0,0.0,0.0,0.0,0.0,0.0,0.0,-2.4591,0.0,0.0,0.0,-2.2511,0.0,0.0,0.0,0.0,0.0,0.0,0.0,0.0,0.0,0.0,0.0,0.0,0.0,0.0,0.0,-2.2171,-2.2749,-2.3124,-2.3559,-2.3649,-2.3305,-2.2972,-2.2772,-2.2695,-2.2453,-2.231,-2.231,-2.231,-2.2598,-2.319,-2.319,-2.3646,-2.4523,-2.4966,-2.5178,-2.5226,-2.6101,-2.6689,-2.7052,-2.7412,-2.8416,-2.9702,-2.9989,-3.0548,-3.1258,-3.185,-3.2195,-3.2517,-2.5362,-2.5434,0.0,0.0,0.0,0.0,0.0,0.0,0.0,0.0,0.0,0.0,0.0,0.0,0.0,0.0,0.0,0.0,-2.5507,0.0,0.0,-2.5591,-2.5648,-2.5683,-2.5683,-2.5624,-2.5584,-2.5581,0.0,0.0,0.0,0.0,0.0,0.0,-2.4619,0.0,0.0,0.0,-2.4639,0.0,-2.5303,-2.5303,0.0,-2.5303,-2.5303,-2.5303,-2.5303,-2.5303,-2.5303,0.0,-2.5303,-2.5303,0.0,-2.5303,0.0,0.0,0.0,0.0,0.0,0.0,0.0,0.0,-2.4891,0.0,0.0,0.0,-2.4546,-2.4251,0.0,0.0,0.0,0.0,0.0,0.0,0.0,0.0,0.0,0.0,0.0,0.0,0.0,0.0,0.0,-2.2044,-2.2978,-2.3014,-2.3729,-2.3996,-2.3671,-2.3323,-2.3021,-2.2721,-2.2453,-2.231,-2.231,-2.231,-2.2344,-2.2429,-2.2429,-2.3156,-2.4489,-2.39,-2.4681,-2.6455,-2.5948,-2.6117,-2.6742,-2.681,-2.7317,-2.8213,-2.9583,-3.0548,-3.1207,-3.1275,-3.1732,-3.2473,-2.5521,-2.5534,0.0,0.0,0.0,0.0,0.0,0.0,0.0,0.0,0.0,0.0,0.0,0.0,0.0,0.0,0.0,-2.5627,0.0,0.0,0.0,0.0,0.0,0.0,-2.5703,-2.5664,-2.5664,-2.5664,-2.5637,0.0,0.0,0.0,0.0,0.0,-2.4866,0.0,-2.4601,0.0,0.0,0.0,0.0,0.0,0.0,-2.5303,-2.5303,-2.5303,-2.5303,-2.5303,-2.5303,0.0,-2.5303,0.0,0.0,0.0,0.0,0.0,0.0,0.0,0.0,0.0,0.0,0.0,0.0,0.0,-2.4943,0.0,-2.4746,0.0,0.0,0.0,0.0,0.0,0.0,0.0,-2.2905,0.0,0.0,0.0,0.0,0.0,0.0,0.0,0.0,0.0,0.0,0.0,-2.3749,-2.4151,-2.3996,-2.35,-2.3141,-2.2996,-2.2544,-2.231,-2.231,-2.231,-2.231,-2.231,-2.231,-2.2632,-2.3224,-2.3342,-2.4137,-2.5423,-2.5558,-2.6031,-2.6691,-2.6691,-2.7131,-2.7891,-2.9025,-2.9905,-3.0615,-3.1038,-3.1393,-3.1828,-2.5559,0.0,0.0,0.0,0.0,0.0,0.0,0.0,0.0,0.0,0.0,0.0,-2.5628,-2.5633,0.0,0.0,0.0,-2.5703,0.0,0.0,-2.5703,0.0,0.0,0.0,0.0,0.0,-2.5703,-2.5703,0.0,0.0,0.0,0.0,0.0,0.0,0.0,-2.4861,-2.4476,0.0,0.0,-2.5303,-2.5303,-2.5303,-2.5322,-2.5322,-2.5322,-2.5322,-2.5341,-2.5341,-2.5341,-2.5341,-2.5341,0.0,-2.5341,0.0,0.0,0.0,0.0,0.0,-2.5303,0.0,0.0,0.0,0.0,0.0,0.0,0.0,0.0,0.0,0.0,0.0,0.0,0.0,0.0,0.0,0.0,0.0,0.0,0.0,0.0,0.0,0.0,0.0,0.0,0.0,0.0,-2.2812,-2.3597,-2.4016,-2.3917,-2.3369,-2.3069,-2.3069,-2.2571,-2.231,-2.231,-2.231,-2.231,-2.231,-2.231,-2.2412,-2.2615,-2.2953,-2.3613,-2.4523,-2.4847,-2.5524,-2.6404,-2.6404,-2.6826,-2.7604,-2.8602,-2.9406,-3.0057,-3.0874,-3.1387,-3.1859,-2.5683,-2.5643,0.0,0.0,0.0,0.0,0.0,0.0,0.0,0.0,0.0,0.0,0.0,0.0,0.0,0.0,0.0,-2.5703,-2.5703,0.0,-2.5703,0.0,0.0,-2.5703,0.0,0.0,-2.5703,-2.5703,0.0,0.0,0.0,0.0,0.0,0.0,0.0,-2.4716,-2.5293,-2.4495,-2.4582,-2.5303,-2.5303,-2.5341,-2.5409,0.0,-2.5409,-2.5409,-2.5466,0.0,0.0,-2.5486,-2.5486,0.0,0.0,0.0,0.0,0.0,0.0,0.0,0.0,0.0,0.0,-2.5303,0.0,0.0,0.0,0.0,-2.5243,0.0,0.0,0.0,0.0,0.0,0.0,-2.318,0.0,0.0,0.0,0.0,0.0,0.0,0.0,0.0,0.0,0.0,0.0,-2.2465,-2.3259,-2.3566,-2.3236,-2.2898,-2.2721,-2.2721,-2.2453,-2.231,-2.231,-2.231,-2.231,-2.231,-2.231,-2.2682,-2.3342,-2.2649,-2.3122,-2.4472,-2.3765,-2.4289,-2.5642,-2.5642,-2.6065,-2.6877,-2.8399,-2.9263,-2.9747,-3.0806,-3.1927,-3.3006,0.0,0.0,0.0,0.0,0.0,0.0,0.0,-2.5647,0.0,0.0,0.0,0.0,0.0,0.0,-2.6328,0.0,0.0,-2.5703,-2.5703,-2.5703,0.0,0.0,0.0,-2.5703,0.0,0.0,0.0,-2.5703,0.0,0.0,0.0,0.0,0.0,0.0,0.0,-2.5201,0.0,0.0,0.0,0.0,0.0,-2.539,-2.5409,0.0,0.0,-2.5473,-2.5493,-2.5493,0.0,-2.5493,-2.5493,-2.5493,-2.5493,-2.5473,-2.5466,-2.5418,-2.539,0.0,0.0,0.0,-2.5303,-2.5303,0.0,0.0,0.0,0.0,0.0,0.0,0.0,0.0,0.0,0.0,0.0,-2.3841,0.0,0.0,0.0,0.0,0.0,0.0,0.0,0.0,0.0,0.0,0.0,-2.2756,-2.3156,-2.3414,-2.3522,-2.2996,-2.2695,-2.2695,-2.2453,-2.231,-2.231,-2.231,-2.231,-2.231,-2.231,-2.2446,-2.2665,-2.2412,-2.2835,-2.3748,-2.3511,-2.4239,-2.5609,-2.5609,-2.6031,-2.6826,-2.81,-2.9006,-2.978,-3.1108,-3.2034,-3.2825,-2.557,0.0,0.0,0.0,0.0,0.0,0.0,0.0,0.0,0.0,-2.6992,0.0,-2.6992,0.0,-2.6309,0.0,-2.5703,-2.5703,-2.5703,-2.5703,0.0,-2.5703,-2.5703,0.0,0.0,0.0,0.0,0.0,-2.5703,-2.5703,0.0,0.0,0.0,0.0,0.0,0.0,0.0,0.0,-2.5341,0.0,0.0,-2.5447,0.0,0.0,-2.5509,-2.5544,0.0,-2.5567,-2.5567,-2.5567,-2.5567,-2.5567,-2.5567,-2.5548,-2.5535,-2.5471,-2.5445,-2.539,-2.5341,-2.5322,0.0,-2.5303,-2.5303,0.0,-2.5303,0.0,0.0,0.0,0.0,0.0,0.0,0.0,0.0,-2.4409,-2.3673,0.0,0.0,-2.2061,0.0,0.0,0.0,0.0,0.0,0.0,-2.2222,-2.3001,-2.3151,-2.3206,0.0,0.0,-2.2563,-2.2563,-2.2388,-2.231,-2.231,-2.231,-2.231,-2.231,-2.231,-2.231,-2.231,-2.231,-2.2564,-2.3021,-2.3291,-2.416,-2.5422,-2.5695,-2.6336,-2.725,-2.8526,-2.9464,-3.0201,-3.1218,-3.2103,-3.2898,0.0,0.0,0.0,0.0,-2.5529,0.0,0.0,0.0,-2.6913,0.0,-2.7011,-2.707,-2.705,-2.6289,-2.5742,-2.5703,-2.5703,0.0,-2.5703,-2.5703,0.0,0.0,-2.5703,-2.5703,-2.5703,0.0,0.0,0.0,-2.5703,-2.5703,0.0,0.0,0.0,0.0,-2.5554,0.0,-2.5505,-2.5428,-2.539,-2.5409,-2.5466,-2.5543,-2.5601,-2.5601,-2.5601,-2.5605,-2.5683,-2.5703,-2.5703,-2.5703,-2.5703,-2.5703,-2.5703,-2.5664,-2.5605,-2.5605,-2.5498,-2.5399,-2.5409,-2.5341,-2.5303,-2.5303,0.0,0.0,0.0,0.0,-2.5303,0.0,0.0,0.0,0.0,0.0,0.0,0.0,-2.4001,-2.3293,-2.3088,0.0,0.0,0.0,0.0,0.0,0.0,-2.2538,-2.3042,-2.3206,-2.3212,0.0,0.0,0.0,-2.2293,-2.231,-2.231,-2.231,-2.231,-2.231,-2.231,-2.231,-2.231,-2.231,-2.231,-2.231,-2.231,-2.2344,-2.3067,-2.4013,-2.5142,-2.5889,-2.6842,-2.8039,-2.9591,-3.0516,-3.1018,-3.1306,-3.2197,-3.3273,-2.5428,-2.5418,-2.5425,0.0,-2.5446,-2.55,0.0,0.0,0.0,0.0,-2.7847,-2.7874,-2.7815,-2.7082,-2.6328,-2.5684,-2.5664,0.0,0.0,0.0,0.0,-2.5703,-2.5703,-2.5703,-2.5703,-2.5703,0.0,-2.5703,-2.5703,0.0,-2.5703,0.0,0.0,0.0,0.0,0.0,-2.5563,-2.5505,-2.547,-2.548,-2.5541,-2.5582,0.0,0.0,-2.5673,-2.5681,-2.5682,-2.5703,-2.5703,-2.5703,-2.5703,-2.5703,-2.5703,-2.5684,-2.5643,-2.5551,-2.5493,-2.5441,-2.536,-2.5303,-2.5303,-2.5303,-2.5303,-2.5303,0.0,0.0,0.0,0.0,0.0,0.0,0.0,0.0,0.0,0.0,0.0,0.0,0.0,0.0,0.0,-2.2997,0.0,0.0,-2.2666,-2.2645,-2.2883,-2.3534,-2.3346,0.0,0.0,0.0,0.0,-2.231,-2.231,-2.231,-2.231,-2.231,-2.231,-2.231,-2.231,-2.231,-2.231,-2.231,-2.231,-2.231,-2.2706,-2.3732,-2.5136,-2.5515,-2.6559,-2.8014,-2.9257,-3.0749,-3.2245,-3.2903,-3.3368,-3.368,-2.537,0.0,0.0,-2.536,0.0,0.0,-2.6043,0.0,0.0,-2.7945,-2.7774,0.0,-2.7535,-2.6801,-2.6133,-2.5644,-2.5664,0.0,0.0,0.0,0.0,-2.5703,-2.5703,-2.5703,-2.5703,-2.5332,0.0,-2.5703,0.0,0.0,-2.5703,0.0,0.0,0.0,0.0,-2.5594,0.0,-2.5563,-2.5556,-2.559,-2.563,0.0,0.0,-2.5663,-2.5681,-2.5664,-2.5684,-2.5703,-2.5703,-2.5703,-2.5703,-2.5703,-2.5703,-2.5703,-2.5683,-2.5605,-2.5552,-2.5476,-2.5408,-2.5341,-2.5303,-2.5303,-2.5303,-2.5303,-2.5303,-2.5303,-2.5303,0.0,0.0,0.0,0.0,0.0,0.0,0.0,0.0,0.0,0.0,0.0,0.0,0.0,-2.3529,0.0,-2.3529,-2.3204,-2.3142,-2.3464,0.0,0.0,0.0,0.0,0.0,-2.231,-2.2615,-2.2632,-2.231,-2.2632,-2.2683,-2.249,-2.249,-2.2554,-2.2686,-2.2686,-2.2686,-2.273,-2.3188,-2.4216,-2.5561,-2.6053,-2.7082,-2.8513,-2.9842,-3.1506,-3.3183,-3.3623,-3.3807,-3.3807,0.0,0.0,0.0,0.0,0.0,0.0,0.0,-2.6891,0.0,-2.7884,0.0,-2.6783,-2.6766,-2.6053,-2.558,-2.558,0.0,-2.5703,-2.5703,-2.5703,-2.5703,-2.5703,-2.5703,-2.5703,-2.5703,-2.4961,0.0,0.0,0.0,0.0,0.0,0.0,0.0,0.0,0.0,0.0,0.0,-2.5605,-2.563,0.0,-2.5696,-2.5643,-2.5597,-2.5658,-2.5641,-2.5604,-2.5664,-2.5684,-2.5703,-2.5703,-2.5703,-2.5703,-2.5703,-2.5703,-2.5703,-2.5684,-2.5598,-2.5511,-2.5505,-2.5409,-2.5322,-2.5322,-2.5322,-2.5322,-2.5322,-2.5303,-2.5303,-2.5303,-2.5303,-2.5303,0.0,0.0,0.0,0.0,0.0,0.0,0.0,0.0,0.0,0.0,0.0,0.0,-2.419,-2.3937,-2.361,0.0,0.0,0.0,0.0,0.0,0.0,-2.231,-2.2919,-2.2987,-2.2462,0.0,-2.3147,-2.2851,-2.2798,-2.2923,-2.3189,-2.3189,-2.3189,-2.3242,-2.3914,-2.495,-2.6157,-2.6844,-2.7918,-2.9329,-3.0797,-3.232,-3.366,-3.3752,-3.3807,-3.3807,0.0,0.0,0.0,0.0,0.0,-2.8063,-2.8582,-2.8161,-2.7806,-2.7903,-2.7219,-2.6698,-2.665,-2.5967,-2.5526,-2.5531,-2.5634,0.0,0.0,0.0,0.0,-2.5703,-2.5703,-2.5703,-2.5703,-2.5547,-2.5547,0.0,-2.5547,-2.5547,-2.5703,0.0,0.0,0.0,0.0,0.0,-2.5672,-2.5672,0.0,-2.5611,-2.5611,-2.5575,-2.5523,-2.5534,-2.5538,-2.5531,-2.5582,-2.5644,-2.5703,-2.5703,-2.5703,-2.5703,-2.5703,-2.5703,-2.5684,-2.5625,-2.5602,-2.557,-2.5517,-2.5486,-2.5466,-2.5466,-2.5466,-2.5447,-2.5409,-2.539,-2.537,-2.5303,-2.5303,-2.5303,-2.5303,0.0,0.0,0.0,0.0,0.0,0.0,0.0,0.0,0.0,0.0,0.0,0.0,0.0,0.0,0.0,0.0,0.0,0.0,0.0,0.0,0.0,-2.2446,0.0,0.0,0.0,-2.3127,-2.3673,-2.3305,-2.3141,-2.3189,-2.3189,-2.3189,-2.323,-2.3643,-2.4676,-2.6121,-2.653,-2.8017,-3.0081,-3.1017,-3.1971,-3.2908,-3.3568,-3.3807,-3.3807,0.0,0.0,0.0,0.0,0.0,0.0,0.0,-2.8255,0.0,-2.7909,-2.6785,-2.5957,-2.5928,-2.5678,-2.5509,-2.5498,-2.5611,-2.5703,-2.5703,-2.5703,-2.5703,-2.5703,-2.5703,0.0,-2.5703,-2.5254,-2.5254,-2.5703,-2.5254,-2.5254,-2.5703,0.0,0.0,0.0,0.0,-2.5687,0.0,0.0,0.0,-2.5561,-2.5562,-2.5522,-2.5449,-2.5495,-2.5483,-2.5452,-2.5554,-2.5629,-2.5644,-2.5684,-2.5703,-2.5703,-2.5703,-2.5703,-2.5684,-2.5664,-2.5625,-2.5584,-2.5563,-2.5537,-2.551,-2.551,-2.551,-2.549,-2.5471,-2.5443,-2.5447,-2.5409,-2.5409,-2.539,-2.537,-2.5322,0.0,0.0,0.0,0.0,0.0,0.0,0.0,0.0,0.0,0.0,0.0,0.0,0.0,0.0,0.0,0.0,0.0,0.0,0.0,0.0,0.0,0.0,0.0,0.0,0.0,-2.3791,-2.3565,-2.3544,-2.3714,-2.3714,-2.3714,-2.375,-2.4333,-2.5251,-2.6457,-2.7427,-2.9017,-3.0852,-3.1237,-3.2155,-3.3275,-3.366,-3.3807,-3.3807,0.0,-2.8225,0.0,0.0,-2.8975,0.0,-2.8492,-2.8174,-2.7932,-2.7678,-2.6294,-2.5322,-2.5322,-2.5447,-2.553,-2.5511,-2.5622,-2.5703,-2.5703,-2.5703,-2.5703,-2.5703,-2.5696,-2.5685,-2.5685,-2.4991,-2.4976,0.0,-2.4976,-2.4998,-2.5684,0.0,0.0,0.0,0.0,0.0,0.0,0.0,-2.5537,-2.5473,-2.5483,-2.5447,-2.539,-2.5447,-2.5428,-2.539,-2.5505,-2.5576,-2.5582,-2.5664,-2.5684,-2.5703,-2.5703,-2.5703,-2.5703,-2.5703,-2.5664,-2.5625,-2.5625,-2.5572,-2.5547,-2.5547,-2.5547,-2.5547,-2.5527,-2.5518,-2.553,-2.5502,-2.5502,-2.5474,-2.5418,-2.537,0.0,0.0,0.0,0.0,0.0,0.0,0.0,0.0,0.0,0.0,0.0,0.0,0.0,0.0,0.0,0.0,0.0,0.0,0.0,0.0,0.0,-2.3369,-2.3413,0.0,-2.3883,-2.3923,-2.3847,-2.3937,-2.4208,-2.4373,-2.4447,-2.4502,-2.5309,-2.6098,-2.6979,-2.8411,-2.9861,-3.1146,-3.1329,-3.2265,-3.3568,-3.3733,-3.3807,-3.3807,0.0,0.0,0.0,0.0,0.0,0.0,0.0,-2.856,-2.7787,-2.6929,-2.5976,-2.539,-2.539,-2.5505,-2.5592,-2.5601,-2.5668,-2.5703,-2.5703,-2.5703,-2.5703,-2.5703,-2.5646,-2.5618,-2.5618,-2.5459,-2.5449,0.0,0.0,-2.5473,-2.5605,-2.5605,0.0,0.0,0.0,0.0,0.0,-2.5543,-2.5476,-2.5399,-2.5418,-2.537,-2.5303,-2.5322,-2.5303,-2.5322,-2.539,-2.5456,-2.5524,-2.5582,-2.5644,-2.5703,-2.5703,-2.5703,-2.5703,-2.5703,-2.5703,-2.5684,-2.5684,-2.5683,-2.5683,-2.5683,-2.5683,-2.5663,-2.5604,-2.559,-2.5571,-2.5512,-2.5493,-2.5486,-2.5408,-2.539,-2.537,0.0,0.0,0.0,0.0,0.0,0.0,0.0,0.0,0.0,0.0,-2.419,0.0,0.0,0.0,0.0,0.0,0.0,0.0,-2.3189,0.0,-2.3541,-2.4201,-2.3884,-2.4037,-2.4689,-2.4322,-2.417,-2.4226,-2.4962,-2.5293,-2.5329,-2.6135,-2.6943,-2.775,-2.865,-2.9531,-3.0375,-3.1109,-3.1935,-3.2816,-3.3532,-3.3807,-3.3807,0.0,0.0,0.0,0.0,0.0,0.0,0.0,-2.7957,-2.7057,-2.6168,-2.5696,-2.5465,-2.5459,-2.5539,-2.5601,-2.5601,-2.5664,-2.5672,-2.5632,-2.5683,-2.5661,-2.5573,-2.558,-2.5582,-2.5543,-2.5509,-2.5492,0.0,0.0,-2.551,-2.5543,-2.5547,0.0,0.0,0.0,-2.5522,-2.5486,-2.5447,-2.5409,-2.5341,-2.5341,-2.5322,-2.5303,-2.5303,-2.5303,-2.5303,-2.539,-2.5416,-2.5459,-2.5553,-2.5644,-2.5703,-2.5703,-2.5703,-2.5703,-2.5703,-2.5703,-2.5703,-2.5703,-2.5703,-2.5703,-2.5703,-2.5703,-2.5684,-2.5664,-2.566,-2.5648,-2.5629,-2.559,-2.5531,-2.5466,-2.5432,-2.539,0.0,0.0,0.0,0.0,0.0,0.0,0.0,0.0,0.0,0.0,0.0,0.0,0.0,0.0,0.0,0.0,0.0,0.0,-2.3795,0.0,-2.3534,-2.4223,-2.3876,-2.3958,-2.4429,-2.4278,-2.419,-2.4226,-2.5035,-2.5935,-2.6851,-2.7181,-2.7787,-2.8594,-2.9402,-3.0191,-3.0999,-3.1806,-3.2614,-3.3366,-3.3678,-3.3807,-3.3807,-2.9717,0.0,-2.8675,0.0,-2.843,-2.7431,-2.7858,-2.7355,-2.6622,-2.5742,-2.5599,-2.5551,-2.5525,-2.5602,-2.5621,-2.5621,-2.5643,-2.5644,-2.5611,-2.5638,-2.5597,-2.5493,-2.5534,0.0,-2.5466,-2.5447,-2.5447,-2.5447,-2.5447,0.0,-2.5466,-2.5495,0.0,0.0,-2.548,-2.5449,-2.5409,-2.539,-2.5341,-2.5303,-2.5303,-2.5303,-2.5303,-2.5303,-2.5303,-2.5303,-2.5341,-2.539,-2.5398,-2.5503,-2.5595,-2.5664,-2.5684,-2.5703,-2.5703,-2.5703,-2.5703,-2.5703,-2.5703,-2.5703,-2.5703,-2.5703,-2.5703,-2.5703,-2.5703,-2.5703,-2.5703,-2.5703,-2.5664,-2.5602,-2.5511,-2.5468,-2.5409,-2.5303,0.0,0.0,0.0,0.0,0.0,0.0,-2.4575,-2.4545,-2.4393,0.0,0.0,0.0,0.0,0.0,0.0,0.0,0.0,0.0,0.0,0.0,0.0,-2.3976,-2.3976,-2.419,-2.419,-2.4318,-2.4575,-2.5621,-2.6851,-2.8154,-2.8154,-2.8613,-2.9402,-2.9971,-3.0815,-3.1806,-3.2394,-3.3091,-3.3807,-3.3807,-3.3807,-3.3807,-2.8082,-2.8618,-2.8952,-2.8255,-2.8165,-2.7913,-2.7142,-2.7012,-2.6699,-2.5801,-2.5704,-2.5669,-2.5611,-2.5656,-2.5703,-2.5703,-2.5634,-2.5592,-2.5601,-2.5534,-2.5506,0.0,0.0,-2.5409,-2.5409,-2.5341,-2.5303,-2.5303,0.0,0.0,-2.5409,0.0,-2.5505,-2.5505,-2.5428,-2.5409,-2.5409,-2.5322,-2.5303,-2.5303,-2.5303,-2.5303,-2.5303,-2.5303,-2.5303,-2.5303,-2.5303,-2.5341,-2.5409,-2.539,-2.5488,-2.5605,-2.5684,-2.5703,-2.5703,-2.5703,-2.5703,-2.5703,-2.5703,-2.5703,-2.5703,-2.5703,-2.5703,-2.5703,-2.5703,-2.5703,-2.5703,-2.5703,-2.5703,-2.566,-2.5511,-2.5507,-2.5466,-2.5322,0.0,0.0,0.0,0.0,0.0,0.0,-2.4804,-2.479,-2.479,0.0,0.0,0.0,0.0,0.0,0.0,0.0,0.0,-2.419,-2.419,0.0,-2.419,-2.4208,-2.4208,-2.419,-2.419,-2.4612,-2.5439,-2.7034,-2.8227,-2.8975,-2.8975,-2.9457,-3.0191,-3.021,-3.1146,-3.2596,-3.2614,-3.3091,-3.3807,-3.3807,-3.3807,-3.3807,-2.7948,-2.7687,-2.7613,-2.8036,-2.7161,-2.6555,-2.6949,-2.6504,-2.6016,-2.5742,-2.5665,-2.562,-2.5601,-2.5619,-2.5635,0.0,-2.557,-2.5522,0.0,-2.5486,-2.5466,-2.5363,-2.5389,-2.539,-2.5322,-2.5303,-2.5303,-2.5303,0.0,0.0,0.0,-2.5341,-2.537,-2.537,-2.5341,-2.5322,-2.5322,-2.5303,-2.5303,-2.5303,-2.5303,-2.5303,-2.5303,-2.5303,-2.5303,-2.5303,-2.5303,-2.5303,-2.5341,-2.539,-2.5451,-2.5543,-2.5616,-2.5664,-2.5703,-2.5703,-2.5703,-2.5703,-2.5703,-2.5703,-2.5703,-2.5703,-2.5703,-2.5703,-2.5703,-2.5703,-2.5703,-2.5703,-2.5703,-2.566,-2.5511,-2.5507,-2.5466,-2.5322,-2.5303,0.0,0.0,0.0,0.0,0.0,-2.4943,-2.485,0.0,-2.4654,0.0,0.0,0.0,0.0,0.0,0.0,0.0,0.0,-2.419,0.0,-2.419,-2.419,-2.4483,-2.5035,-2.5035,-2.5733,-2.7034,-2.7567,-2.8246,-2.9012,-2.9586,-2.9971,-3.0283,-3.1384,-3.2155,-3.2669,-3.3201,-3.3568,-3.3807,-3.3807,-3.3807,-3.3807,-2.7409,-2.7033,-2.6786,-2.7064,-2.6267,-2.5805,-2.6424,-2.6037,-2.5668,-2.5668,-2.5609,-2.5548,-2.5553,-2.5543,0.0,-2.5563,-2.5503,-2.5449,-2.5399,-2.5428,-2.539,-2.5303,-2.5341,-2.5341,-2.5303,-2.5303,0.0,-2.5303,-2.5224,-2.5192,-2.5192,-2.5138,-2.5149,-2.5192,-2.5192,-2.5224,-2.5303,-2.5303,-2.5303,-2.5303,-2.5303,-2.5303,-2.5303,-2.5303,-2.5303,-2.5303,-2.5303,-2.5303,-2.5303,-2.5341,-2.5428,-2.5513,-2.5554,-2.5621,-2.5703,-2.5703,-2.5703,-2.5703,-2.5703,-2.5703,-2.5703,-2.5703,-2.5703,-2.5703,-2.5703,-2.5703,-2.5703,-2.5703,-2.5687,-2.5621,-2.5517,-2.5488,-2.5428,-2.5322,-2.5303,-2.5303,-2.5303,0.0,0.0,0.0,0.0,0.0,0.0,-2.4855,-2.4766,0.0,0.0,0.0,0.0,0.0,0.0,-2.4649,-2.4942,0.0,-2.5107,-2.5107,-2.5346,-2.5841,-2.6153,-2.6814,-2.7805,-2.8117,-2.8521,-2.9012,-2.9549,-2.9934,-3.0301,-3.1623,-3.2339,-3.2687,-3.3495,-3.3807,-3.3752,-3.3458,-3.3532,-3.3752,-2.6601,-2.6649,0.0,0.0,-2.5583,0.0,-2.5683,-2.5646,-2.5601,-2.5582,-2.5536,-2.5499,-2.5495,-2.5428,-2.5428,-2.5486,0.0,0.0,0.0,-2.5322,-2.5303,-2.5303,-2.5303,-2.5303,-2.5303,-2.5303,-2.5303,-2.5303,-2.5099,-2.501,-2.4998,-2.4869,-2.4864,-2.501,-2.501,-2.5111,-2.5303,-2.5303,-2.5303,-2.5303,-2.5303,-2.5303,-2.5303,-2.5303,-2.5303,-2.5303,-2.5303,-2.5303,-2.5303,-2.5303,-2.539,-2.5495,-2.5504,-2.5598,-2.5703,-2.5703,-2.5703,-2.5703,-2.5703,-2.5703,-2.5703,-2.5703,-2.5703,-2.5703,-2.5703,-2.5703,-2.5681,-2.5681,-2.5643,-2.5578,-2.551,-2.5441,-2.539,-2.5303,-2.5303,-2.5303,-2.5303,0.0,0.0,0.0,0.0,0.0,0.0,-2.5111,-2.501,0.0,0.0,0.0,0.0,0.0,-2.5478,-2.5403,-2.6172,-2.6612,-2.6612,-2.6612,-2.6631,-2.6704,-2.7493,-2.7879,-2.7915,-2.8723,-2.9049,-2.8994,-2.9177,-2.9659,-3.0356,-3.1201,-3.2008,-3.2761,-3.3513,-3.3807,-3.3715,-3.2963,-3.3164,-3.3697,0.0,0.0,-2.6641,-2.6455,-2.5956,-2.5583,-2.5542,-2.5568,-2.5582,-2.5524,-2.5475,-2.5416,-2.5409,-2.537,-2.5322,-2.5341,-2.5322,-2.5322,-2.5322,-2.5303,-2.5303,-2.5303,-2.5303,-2.5303,-2.5303,-2.5303,-2.5303,-2.5303,-2.5099,-2.501,-2.4998,-2.4869,-2.4864,-2.501,-2.501,-2.5111,-2.5303,-2.5303,-2.5303,-2.5303,-2.5303,-2.5303,-2.5303,-2.5303,-2.5303,-2.5303,-2.5303,-2.5303,-2.5303,-2.5303,-2.539,-2.5495,-2.5504,-2.5598,-2.5703,-2.5703,-2.5703,-2.5703,-2.5703,-2.5703,-2.5703,-2.5703,-2.5703,-2.5703,-2.5703,-2.566,-2.5611,-2.5611,-2.5576,-2.5506,-2.544,-2.5408,-2.539,-2.5303,-2.5303,-2.5303,-2.5303,-2.5303,0.0,0.0,-2.5303,-2.5253,-2.5088,-2.5163,-2.5118,0.0,0.0,0.0,0.0,-2.6226,-2.6188,-2.5421,-2.6172,-2.6612,-2.6612,-2.6612,-2.6906,-2.753,-2.8338,-2.8723,-2.8741,-2.9549,-2.9586,-2.9085,-3.0962,-3.1513,-3.1219,-3.2651,-3.333,-3.3532,-3.3733,-3.3807,-3.377,-3.3587,-3.3642,-3.377,-2.7121,-2.6573,-2.6083,-2.6102,-2.5763,-2.5503,-2.5493,-2.5499,-2.5505,-2.5466,-2.5409,-2.5341,-2.5341,-2.5322,-2.5303,-2.5303,-2.5303,-2.5303,-2.5303,-2.5303,-2.5303,-2.5303,-2.5303,-2.5303,-2.5303,-2.5303,-2.5303,-2.5303,-2.5049,-2.4917,-2.4904,-2.4741,-2.4756,-2.4917,-2.4974,-2.5111,-2.5303,-2.5303,-2.5303,-2.5303,-2.5303,-2.5303,-2.5303,-2.5303,-2.5303,-2.5303,-2.5303,-2.5303,-2.5303,-2.5341,-2.5409,-2.5515,-2.5538,-2.5625,-2.5703,-2.5703,-2.5703,-2.5703,-2.5703,-2.5703,-2.5697,-2.5658,-2.5639,-2.5605,-2.5605,-2.5581,-2.5542,-2.5553,-2.5498,-2.5441,-2.5409,-2.537,-2.5341,-2.5303,-2.5322,-2.5341,-2.5303,-2.5322,0.0,-2.5303,-2.5303,-2.5264,-2.5152,-2.5243,-2.5222,-2.5043,-2.5834,0.0,-2.6138,-2.7519,-2.786,-2.686,-2.7507,-2.7869,-2.7869,-2.7761,-2.7934,-2.8356,-2.8796,-2.8994,-2.8994,-2.9457,-2.942,-2.9085,-3.0779,-3.1256,-3.098,-3.2596,-3.3256,-3.3293,-3.366,-3.3587,-3.3256,-3.3256,-3.3018,-3.2761,-2.7775,-2.6621,-2.5514,-2.5572,-2.5486,-2.5416,-2.5459,-2.5418,-2.5409,-2.539,-2.5341,-2.5303,-2.5303,-2.5303,-2.5303,-2.5303,-2.5303,-2.5303,-2.5303,-2.5303,-2.5303,-2.5303,-2.5303,-2.5303,-2.5303,-2.5303,-2.5303,-2.5303,-2.4975,-2.4828,-2.4828,-2.4639,-2.4654,-2.4828,-2.4949,-2.5111,-2.5303,-2.5303,-2.5303,-2.5303,-2.5303,-2.5303,-2.5303,-2.5303,-2.5303,-2.5303,-2.5303,-2.5303,-2.5322,-2.539,-2.5447,-2.5524,-2.5582,-2.5648,-2.5703,-2.5703,-2.5703,-2.5703,-2.5697,-2.5696,-2.5659,-2.5601,-2.5538,-2.5496,-2.5496,-2.5496,-2.548,-2.5475,-2.5428,-2.539,-2.539,-2.5341,-2.5303,-2.5303,-2.5341,-2.537,-2.5303,0.0,-2.537,-2.5303,-2.5303,-2.5303,-2.5303,-2.5418,-2.5495,-2.5495,-2.6986,-2.7558,-2.6746,-2.8692,-2.9497,-2.8806,-2.9214,-2.9454,-2.9454,-2.9225,-2.9093,-2.9093,-2.9093,-2.9093,-2.9093,-2.9222,-2.9204,-2.9149,-3.0093,-3.0401,-3.0391,-3.1985,-3.264,-3.2687,-3.3495,-3.3385,-3.2779,-3.2651,-3.2173,-3.1659,-2.7945,-2.7129,-2.6428,-2.6495,-2.588,-2.538,-2.534,-2.537,-2.539,-2.5322,-2.5303,-2.5303,-2.5303,-2.5303,-2.5303,-2.5303,-2.5303,-2.5303,-2.5303,-2.5303,-2.5303,-2.5303,-2.5303,-2.5303,-2.5303,-2.5303,-2.5303,-2.5303,-2.5077,-2.4974,-2.4962,-2.4828,-2.4842,-2.4974,-2.4998,-2.5111,-2.5303,-2.5303,-2.5303,-2.5303,-2.5303,-2.5303,-2.5303,-2.5303,-2.5303,-2.5303,-2.5303,-2.5341,-2.539,-2.5409,-2.5486,-2.5582,-2.5601,-2.5648,-2.5703,-2.5703,-2.5703,-2.5697,-2.5693,-2.5667,-2.5601,-2.5524,-2.5515,-2.5504,-2.5504,-2.5465,-2.5418,-2.5418,-2.537,-2.5322,-2.5322,-2.5303,-2.5303,-2.5303,-2.5303,-2.5303,-2.5303,0.0,-2.5303,-2.5303,-2.5303,-2.5303,-2.5303,-2.5967,-2.6409,-2.6409,-2.7332,-2.811,-2.8637,-2.8874,-2.9325,-3.0087,-2.9807,-2.9643,-2.9643,-2.9607,-2.9588,-2.9588,-2.9588,-2.9588,-2.9607,-3.0302,-3.0227,-2.9664,-3.1166,-3.1327,-3.0649,-3.2261,-3.2804,-3.2687,-3.3495,-3.3715,-3.3532,-3.2852,-3.2522,-3.2339,-2.7245,-2.6514,-2.5899,-2.5937,-2.561,-2.5341,-2.5303,-2.5322,-2.5341,-2.5303,-2.5303,-2.5303,-2.5303,-2.5303,-2.5303,-2.5303,-2.5303,-2.5303,-2.5303,-2.5303,-2.5303,-2.5303,-2.5303,-2.5303,-2.5303,-2.5303,-2.5303,-2.5303,-2.5099,-2.501,-2.501,-2.4943,-2.4937,-2.4991,-2.5111,-2.5214,-2.5303,-2.5303,-2.5303,-2.5303,-2.5303,-2.5303,-2.5303,-2.5303,-2.5303,-2.5303,-2.5341,-2.537,-2.5409,-2.5486,-2.5543,-2.561,-2.5632,-2.5679,-2.5703,-2.5703,-2.5703,-2.5694,-2.5658,-2.5601,-2.5524,-2.5466,-2.5428,-2.539,-2.539,-2.537,-2.5341,-2.5341,-2.5322,-2.5303,-2.5303,-2.5303,-2.5303,-2.5303,-2.5322,0.0,0.0,-2.5322,-2.5341,-2.5303,-2.5303,-2.5303,-2.5303,-2.6101,-2.6601,-2.6601,-2.7813,-2.8698,-2.9083,-2.9454,-2.9883,-3.0379,-3.0052,-2.9861,-2.9861,-2.9746,-2.9696,-2.9696,-2.9696,-2.9696,-2.9696,-3.0073,-3.0054,-2.9771,-3.0941,-3.1186,-3.0844,-3.2023,-3.2378,-3.2255,-3.3044,-3.3105,-3.2723,-3.2791,-3.2349,-3.1744,-2.6621,-2.5899,-2.5303,-2.5322,-2.5303,-2.5303,-2.5303,-2.5303,-2.5303,-2.5303,-2.5303,-2.5303,-2.5303,-2.5303,-2.5303,-2.5303,-2.5303,-2.5303,-2.5303,-2.5264,-2.5253,-2.5303,-2.5303,-2.5303,-2.5303,-2.5303,-2.5303,-2.5303,-2.5152,-2.5077,-2.5077,-2.5077,-2.5077,-2.5088,-2.5224,-2.5303,-2.5303,-2.5303,-2.5303,-2.5303,-2.5303,-2.5303,-2.5303,-2.5322,-2.5322,-2.5322,-2.5409,-2.5428,-2.5466,-2.5563,-2.5599,-2.5641,-2.5673,-2.5703,-2.5703,-2.5703,-2.5703,-2.5677,-2.5594,-2.5533,-2.5486,-2.5409,-2.5341,-2.5303,-2.5303,-2.5303,-2.5303,-2.5303,-2.5303,-2.5303,-2.5303,-2.5303,-2.5303,-2.5303,0.0,0.0,0.0,-2.5659,-2.5736,-2.589,-2.5736,-2.5668,-2.589,-2.6505,-2.6986,-2.7178,-2.8563,-2.939,-2.939,-3.0044,-3.0398,-3.0398,-3.0196,-3.0089,-3.0089,-2.9943,-2.9864,-2.9864,-2.9864,-2.9864,-2.9864,-2.9864,-2.9864,-2.9902,-3.053,-3.0743,-3.0748,-3.158,-3.192,-3.1958,-3.2571,-3.2534,-3.2222,-3.2646,-3.2027,-3.1071,-2.6687,-2.5937,-2.5322,-2.539,-2.5341,-2.5303,-2.5303,-2.5303,-2.5303,-2.5303,-2.5303,-2.5303,-2.5303,-2.5303,-2.5303,-2.5303,-2.5303,-2.5303,-2.5303,-2.5141,-2.5099,-2.5284,-2.5303,-2.5303,-2.5303,-2.5303,-2.5303,-2.5303,-2.5293,-2.5274,-2.5274,-2.5274,-2.5274,-2.5274,-2.5284,-2.5303,-2.5303,-2.5303,-2.5303,-2.5303,-2.5303,-2.5303,-2.5303,-2.537,-2.539,-2.5409,-2.5466,-2.5524,-2.5582,-2.5601,-2.5646,-2.5682,-2.5703,-2.5703,-2.5703,-2.5703,-2.5703,-2.5662,-2.5531,-2.5495,-2.5466,-2.5341,-2.5303,-2.5303,-2.5303,-2.5303,-2.5303,-2.5303,-2.5303,-2.5303,-2.5303,-2.5303,-2.5303,-2.5303,0.0,0.0,-2.639,-2.6505,-2.6813,-2.7601,-2.7005,-2.6813,-2.7621,-2.7775,-2.8102,-2.8852,-2.9775,-3.0302,-3.0302,-3.0359,-3.0398,-3.0398,-3.0367,-3.0367,-3.0367,-3.0355,-3.0343,-3.0343,-3.0343,-3.0343,-3.0343,-3.0343,-3.0343,-3.0343,-3.04,-3.0291,-3.0136,-3.0997,-3.1684,-3.2185,-3.2184,-3.2617,-3.3201,-3.2505,-3.1695,-3.0922,-2.5822,-2.5534,-2.5303,-2.5322,-2.5322,-2.5303,-2.5303,-2.5303,-2.5303,-2.5303,-2.5303,-2.5303,-2.5303,-2.5303,-2.5303,-2.5303,-2.5303,-2.5303,-2.5303,-2.5224,-2.5163,-2.513,-2.5224,-2.5303,-2.5303,-2.5303,-2.5303,-2.5303,-2.5303,-2.5303,-2.5303,-2.5303,-2.5303,-2.5303,-2.5303,-2.5303,-2.5303,-2.5303,-2.5303,-2.5303,-2.5303,-2.5303,-2.5303,-2.537,-2.5409,-2.5409,-2.5524,-2.5582,-2.561,-2.5654,-2.5685,-2.5703,-2.5703,-2.5703,-2.5703,-2.5703,-2.5703,-2.5683,-2.5597,-2.5568,-2.5543,-2.5447,-2.5428,-2.5428,-2.5428,-2.539,-2.537,-2.537,-2.5322,-2.5303,-2.5303,-2.5303,-2.5303,-2.5303,0.0,-2.5591,-2.6486,-2.6601,-2.6928,-2.7794,-2.7601,-2.7544,-2.7871,-2.8352,-2.8775,-2.9083,-2.991,-3.0398,-3.0398,-3.0398,-3.0398,-3.0398,-3.0398,-3.0398,-3.0398,-3.0398,-3.0398,-3.0398,-3.0398,-3.0398,-3.0398,-3.0398,-3.0398,-3.0398,-3.0398,-3.0355,-3.0273,-3.0605,-3.1102,-3.1694,-3.2155,-3.2893,-3.3557,-3.2703,-3.2273,-3.2015,-2.5303,-2.5303,-2.5303,-2.5303,-2.5303,-2.5303,-2.5303,-2.5303,-2.5303,-2.5303,-2.5303,-2.5303,-2.5303,-2.5303,-2.5303,-2.5303,-2.5303,-2.5303,-2.5303,-2.5303,-2.5253,-2.5099,-2.5224,-2.5303,-2.5303,-2.5303,-2.5303,-2.5303,-2.5303,-2.5303,-2.5303,-2.5303,-2.5303,-2.5303,-2.5303,-2.5303,-2.5303,-2.5303,-2.5303,-2.5322,-2.5322,-2.5341,-2.537,-2.5447,-2.5466,-2.5486,-2.5592,-2.5635,-2.5634,-2.5675,-2.5703,-2.5703,-2.5703,-2.5703,-2.5703,-2.5703,-2.5703,-2.5684,-2.5644,-2.5639,-2.5601,-2.5522,-2.5506,-2.5506,-2.5506,-2.5443,-2.5388,-2.5399,-2.5341,-2.5303,-2.5303,-2.5514,-2.5707,-2.5707,-2.5707,-2.6101,-2.7236,-2.7178,-2.7428,-2.8544,-2.8429,-2.8371,-2.8659,-2.8929,-2.9198,-2.9486,-3.0063,-3.0398,-3.0398,-3.0398,-3.0398,-3.0398,-3.0398,-3.0398,-3.0398,-3.0398,-3.0648,-3.1179,-3.0648,-3.0533,-3.0814,-3.0513,-3.0552,-3.0794,-3.0513,-3.0552,-3.0794,-3.0513,-3.0797,-3.1436,-3.1728,-3.2373,-3.3058,-3.2469,-3.2177,-3.1987,-2.5303,-2.5303,-2.5303,-2.5303,-2.5303,-2.5303,-2.5303,-2.5303,-2.5303,-2.5303,-2.5303,-2.5303,-2.5303,-2.5303,-2.5303,-2.5303,-2.5303,-2.5303,-2.5303,-2.5303,-2.5303,-2.5303,-2.5303,-2.5303,-2.5303,-2.5303,-2.5303,-2.5303,-2.5303,-2.5303,-2.5303,-2.5303,-2.5303,-2.5303,-2.5303,-2.5303,-2.5303,-2.5303,-2.5341,-2.5409,-2.5409,-2.5447,-2.5505,-2.5563,-2.5601,-2.5609,-2.5681,-2.5703,-2.5703,-2.5703,-2.5703,-2.5703,-2.5703,-2.5703,-2.5703,-2.5703,-2.5703,-2.5703,-2.5703,-2.5703,-2.5662,-2.552,-2.5493,-2.5493,-2.5493,-2.5451,-2.5394,-2.5399,-2.5341,-2.5303,-2.5303,-2.6024,-2.6601,-2.6621,-2.6601,-2.7198,-2.8852,-2.839,-2.8506,-3.0186,-2.9621,-2.9429,-3.0333,-2.9621,-2.9467,-3.0321,-3.0398,-3.0398,-3.0398,-3.0398,-3.0398,-3.0398,-3.0398,-3.0398,-3.0398,-3.0398,-3.1237,-3.2852,-3.1198,-3.0852,-3.166,-3.0794,-3.0871,-3.1641,-3.0794,-3.0891,-3.1621,-3.0756,-3.091,-3.1621,-3.0756,-3.0948,-3.1718,-3.1698,-3.116,-3.0533,-2.5303,-2.5303,-2.5303,-2.5303,-2.5303,-2.5303,-2.5303,-2.5303,-2.5303,-2.5303,-2.5303,-2.5303,-2.5303,-2.5303,-2.5303,-2.5303,-2.5303,-2.5303,-2.5303,-2.5303,-2.5303,-2.5303,-2.5303,-2.5303,-2.5303,-2.5303,-2.5303,-2.5303,-2.5303,-2.5303,-2.5303,-2.5303,-2.5303,-2.5303,-2.5303,-2.5303,-2.5303,-2.5341,-2.539,-2.5399,-2.5452,-2.548,-2.5506,-2.5571,-2.5601,-2.5609,-2.5681,-2.5703,-2.5703,-2.5703,-2.5703,-2.5703,-2.5703,-2.5703,-2.5703,-2.5703,-2.5703,-2.5703,-2.5703,-2.5703,-2.5683,-2.5658,-2.5636,-2.5636,-2.5636,-2.5558,-2.5466,-2.5475,-2.539,-2.5495,-2.6101,-2.6428,-2.6794,-2.7409,-2.7005,-2.7198,-2.8852,-2.7871,-2.7832,-3.0129,-2.9621,-2.9429,-3.0333,-3.016,-3.0121,-3.0379,-3.0398,-3.0398,-3.0398,-3.0398,-3.0398,-3.0398,-3.0398,-3.0698,-3.1314,-3.0717,-3.0648,-3.1141,-3.0629,-3.0533,-3.0794,-3.0513,-3.0533,-3.0775,-3.0513,-3.0552,-3.0775,-3.0513,-3.091,-3.1679,-3.141,-3.1814,-3.2468,-3.191,-3.1545,-3.1256,-2.5303,-2.5303,-2.5303,-2.5303,-2.5224,-2.5173,-2.5173,-2.5149,-2.5103,-2.5103,-2.5103,-2.5126,-2.5182,-2.5173,-2.5214,-2.5284,-2.5303,-2.5303,-2.5303,-2.5303,-2.5303,-2.5303,-2.5303,-2.5303,-2.5303,-2.5303,-2.5303,-2.5303,-2.5303,-2.5303,-2.5303,-2.5303,-2.5303,-2.5303,-2.5303,-2.5303,-2.5303,-2.537,-2.5427,-2.5453,-2.5517,-2.5551,-2.5584,-2.5615,-2.564,-2.5643,-2.5694,-2.5703,-2.5703,-2.5703,-2.5703,-2.5703,-2.5703,-2.5703,-2.5703,-2.5703,-2.5703,-2.5703,-2.5703,-2.5703,-2.5703,-2.5703,-2.5703,-2.5703,-2.5703,-2.5601,-2.551,-2.5495,-2.539,-2.5572,-2.6447,-2.689,-2.739,-2.8236,-2.7928,-2.8063,-2.9429,-2.8448,-2.8294,-3.0167,-2.9929,-2.9813,-3.034,-3.0398,-3.0398,-3.0398,-3.0398,-3.0398,-3.0398,-3.0398,-3.0398,-3.0398,-3.0398,-3.0648,-3.1179,-3.066,-3.0737,-3.1391,-3.0717,-3.0756,-3.1371,-3.0686,-3.0775,-3.1352,-3.0698,-3.0602,-3.0891,-3.0533,-3.0717,-3.1198,-3.1198,-3.1487,-3.1852,-3.1371,-3.1198,-3.1121,-2.5274,-2.5274,-2.5264,-2.5253,-2.5088,-2.4986,-2.4986,-2.4877,-2.4804,-2.4804,-2.4804,-2.4855,-2.4986,-2.501,-2.5088,-2.5274,-2.5303,-2.5303,-2.5303,-2.5303,-2.5303,-2.5303,-2.5303,-2.5303,-2.5303,-2.5303,-2.5303,-2.5303,-2.5303,-2.5303,-2.5303,-2.5303,-2.5303,-2.5303,-2.5303,-2.5303,-2.5303,-2.537,-2.5445,-2.5493,-2.5569,-2.5643,-2.5684,-2.5703,-2.5703,-2.5703,-2.5703,-2.5703,-2.5703,-2.5703,-2.5703,-2.5703,-2.5703,-2.5703,-2.5703,-2.5703,-2.5703,-2.5703,-2.5703,-2.5703,-2.5703,-2.5703,-2.5703,-2.5703,-2.5703,-2.5601,-2.5529,-2.5591,-2.5524,-2.5687,-2.6659,-2.7467,-2.8275,-2.9083,-2.914,-2.939,-3.0294,-2.9583,-2.9333,-3.0294,-3.0321,-3.0302,-3.0379,-3.0398,-3.0398,-3.0398,-3.0398,-3.0398,-3.0398,-3.0398,-3.0398,-3.0398,-3.0398,-3.0398,-3.0398,-3.0398,-3.1179,-3.266,-3.1141,-3.1198,-3.2622,-3.1102,-3.1237,-3.2583,-3.1064,-3.0852,-3.1525,-3.0737,-3.0398,-3.0398,-3.0398,-3.0398,-3.0398,-3.0398,-3.0398,-3.0398,-2.5099,-2.5077,-2.503,-2.4923,-2.4869,-2.4842,-2.4842,-2.4832,-2.4804,-2.4804,-2.4804,-2.4855,-2.4986,-2.501,-2.5088,-2.5274,-2.5303,-2.5303,-2.5303,-2.5303,-2.5303,-2.5303,-2.5303,-2.5303,-2.5303,-2.5303,-2.5303,-2.5303,-2.5303,-2.5303,-2.5303,-2.5303,-2.5303,-2.5303,-2.5303,-2.5303,-2.5303,-2.537,-2.5412,-2.542,-2.5545,-2.5619,-2.5625,-2.5684,-2.5703,-2.5703,-2.5703,-2.5703,-2.5703,-2.5703,-2.5703,-2.5703,-2.5703,-2.5703,-2.5703,-2.5703,-2.5703,-2.5703,-2.5703,-2.5703,-2.5703,-2.5703,-2.5703,-2.5703,-2.5703,-2.5601,-2.5698,-2.6381,-2.6418,-2.6774,-2.8275,-2.8698,-2.9121,-2.9987,-2.9544,-2.939,-3.0294,-2.9102,-2.8717,-3.0206,-2.9794,-2.964,-3.0321,-3.0398,-3.0417,-3.0467,-3.0417,-3.0398,-3.0398,-3.0398,-3.0398,-3.0398,-3.0398,-3.0398,-3.0398,-3.0398,-3.0571,-3.0948,-3.0571,-3.059,-3.0929,-3.0571,-3.059,-3.0929,-3.0552,-3.0513,-3.0679,-3.0475,-3.0398,-3.0398,-3.0398,-3.0398,-3.0398,-3.0398,-3.0398,-3.0398,-2.4943,-2.4904,-2.4877,-2.4818,-2.4716,-2.4654,-2.4654,-2.4594,-2.4512,-2.4512,-2.4591,-2.4712,-2.4891,-2.4962,-2.5088,-2.5274,-2.5303,-2.5303,-2.5303,-2.5303,-2.5303,-2.5303,-2.5303,-2.5303,-2.5303,-2.5303,-2.5303,-2.5303,-2.5303,-2.5303,-2.5303,-2.5303,-2.5303,-2.5303,-2.5303,-2.5303,-2.5303,-2.537,-2.5398,-2.5406,-2.5554,-2.5593,-2.5605,-2.5664,-2.5703,-2.5703,-2.5703,-2.5703,-2.5703,-2.5703,-2.5703,-2.5703,-2.5703,-2.5703,-2.5703,-2.5703,-2.5703,-2.5703,-2.5703,-2.5703,-2.5703,-2.5703,-2.5703,-2.5703,-2.5703,-2.593,-2.6283,-2.6709,-2.7042,-2.7648,-2.8871,-2.9102,-2.939,-3.0256,-3.0025,-2.989,-3.034,-2.966,-2.9429,-3.0302,-3.0006,-2.991,-3.041,-3.0472,-3.0492,-3.0498,-3.0467,-3.0417,-3.0398,-3.0398,-3.059,-3.1006,-3.0621,-3.0794,-3.1583,-3.0814,-3.0814,-3.1602,-3.1198,-3.1218,-3.1583,-3.1198,-3.1025,-3.1006,-3.0571,-3.0398,-3.0398,-3.0398,-3.0398,-3.0398,-3.0398,-3.0398,-3.0398,-3.0398,-3.0398,-3.0283,-2.479,-2.4746,-2.4746,-2.47,-2.4561,-2.4444,-2.4444,-2.4303,-2.4209,-2.4247,-2.4393,-2.4591,-2.4799,-2.4968,-2.5111,-2.5293,-2.5303,-2.5303,-2.5303,-2.5303,-2.5303,-2.5303,-2.5303,-2.5303,-2.5303,-2.5303,-2.5303,-2.5303,-2.5303,-2.5303,-2.5303,-2.5303,-2.5303,-2.5303,-2.5303,-2.5303,-2.5303,-2.537,-2.539,-2.539,-2.5524,-2.5564,-2.5584,-2.5664,-2.5684,-2.5703,-2.5703,-2.5703,-2.5703,-2.5703,-2.5703,-2.5703,-2.5703,-2.5703,-2.5703,-2.5703,-2.5703,-2.5703,-2.5703,-2.5703,-2.5703,-2.5703,-2.5703,-2.5703,-2.5703,-2.6328,-2.6923,-2.7021,-2.7662,-2.8426,-2.9198,-2.9333,-2.9563,-3.0294,-3.0398,-3.0398,-3.0398,-3.0398,-3.0417,-3.0417,-3.0417,-3.0467,-3.0525,-3.0554,-3.0571,-3.0518,-3.0491,-3.0525,-3.0621,-3.0475,-3.0871,-3.1872,-3.0929,-3.1141,-3.2679,-3.1179,-3.1179,-3.2699,-3.216,-3.2256,-3.2872,-3.2064,-3.1698,-3.166,-3.0794,-3.0398,-3.0398,-3.0398,-3.0398,-3.0398,-3.0398,-3.0398,-3.0379,-3.0237,-3.0179,-2.9967,-2.4575,-2.4545,-2.4478,-2.4321,-2.4266,-2.4247,-2.4247,-2.4209,-2.4247,-2.4445,-2.4478,-2.462,-2.4937,-2.5141,-2.5264,-2.5303,-2.5303,-2.5303,-2.5303,-2.5303,-2.5303,-2.5303,-2.5303,-2.5303,-2.5303,-2.5303,-2.5303,-2.5303,-2.5303,-2.5303,-2.5303,-2.5303,-2.5303,-2.5303,-2.5303,-2.5303,-2.5303,-2.5303,-2.5303,-2.5322,-2.5409,-2.5468,-2.5524,-2.5581,-2.5644,-2.5703,-2.5703,-2.5703,-2.5703,-2.5703,-2.5703,-2.5703,-2.5703,-2.5703,-2.5703,-2.5703,-2.5703,-2.5703,-2.5703,-2.5703,-2.5703,-2.5703,-2.5703,-2.5703,-2.5703,-2.6328,-2.7109,-2.7866,-2.8554,-2.9294,-3.016,-3.0256,-3.0275,-3.0379,-3.0398,-3.0398,-3.0398,-3.0448,-3.0487,-3.0487,-3.0544,-3.0602,-3.066,-3.0588,-3.054,-3.0587,-3.0492,-3.0737,-3.1487,-3.0814,-3.1121,-3.2699,-3.1218,-3.0871,-3.1852,-3.0891,-3.0891,-3.1872,-3.2468,-3.2795,-3.2872,-3.2064,-3.1698,-3.166,-3.0794,-3.0398,-3.0398,-3.0398,-3.0398,-3.0398,-3.0398,-3.0398,-3.0302,-2.9544,-2.9275,-2.914,-2.4375,-2.4321,-2.4303,-2.4209,-2.419,-2.419,-2.419,-2.419,-2.4266,-2.4478,-2.4591,-2.4756,-2.4986,-2.5173,-2.5303,-2.5303,-2.5303,-2.5303,-2.5303,-2.5303,-2.5303,-2.5303,-2.5303,-2.5303,-2.5303,-2.5303,-2.5303,-2.5303,-2.5303,-2.5303,-2.5303,-2.5303,-2.5303,-2.5303,-2.5303,-2.5303,-2.5303,-2.5303,-2.5303,-2.5303,-2.537,-2.5416,-2.5459,-2.5551,-2.5625,-2.5644,-2.5684,-2.5703,-2.5703,-2.5703,-2.5703,-2.5703,-2.5703,-2.5703,-2.5703,-2.5703,-2.5703,-2.5703,-2.5703,-2.5703,-2.5703,-2.5703,-2.5703,-2.5703,-2.5703,-2.6348,-2.7187,-2.8027,-2.8823,-2.9603,-3.0351,-3.0506,-3.0506,-3.0467,-3.0487,-3.0506,-3.0506,-3.0544,-3.0563,-3.0557,-3.0586,-3.0621,-3.0679,-3.0646,-3.0614,-3.0645,-3.0604,-3.0717,-3.1064,-3.0694,-3.1032,-3.2261,-3.1064,-3.1025,-3.2352,-3.1064,-3.1314,-3.3083,-3.2564,-3.2506,-3.2891,-3.3045,-3.2583,-3.1679,-3.1295,-3.0852,-3.0398,-3.0398,-3.0398,-3.034,-2.9871,-2.9679,-2.9563,-2.8736,-2.9025,-2.9506]}]]